<?xml version="1.0" encoding="UTF-8" standalone="no" ?>
<gpx xmlns="http://www.topografix.com/GPX/1/1" xmlns:xsi="http://www.w3.org/2001/XMLSchema-instance" xsi:schemaLocation="http://www.topografix.com/GPX/1/1 http://www.topografix.com/GPX/1/1/gpx.xsd" version="1.1" creator="VisuGPX - https://www.visugpx.com">
  <metadata>
    <name>Ocres - Courtes</name>
  </metadata>
  <trk>
    <name><![CDATA[Ocres - Courtes_1]]></name>
    <trkseg>
      <trkpt lat="43.92132" lon="5.41978">
        <ele>309.073</ele>
        <time>2021-02-21T11:52:26Z</time>
      </trkpt>
      <trkpt lat="43.9212" lon="5.41991">
        <ele>310.634</ele>
        <time>2021-02-21T11:52:32Z</time>
      </trkpt>
      <trkpt lat="43.92114" lon="5.42005">
        <ele>311.641</ele>
        <time>2021-02-21T11:52:37Z</time>
      </trkpt>
      <trkpt lat="43.92108" lon="5.42026">
        <ele>312.881</ele>
        <time>2021-02-21T11:52:43Z</time>
      </trkpt>
      <trkpt lat="43.92107" lon="5.42034">
        <ele>313.009</ele>
        <time>2021-02-21T11:52:45Z</time>
      </trkpt>
      <trkpt lat="43.92105" lon="5.42041">
        <ele>313.208</ele>
        <time>2021-02-21T11:52:47Z</time>
      </trkpt>
      <trkpt lat="43.92103" lon="5.42044">
        <ele>313.43</ele>
        <time>2021-02-21T11:52:48Z</time>
      </trkpt>
      <trkpt lat="43.92088" lon="5.4206">
        <ele>314.43</ele>
        <time>2021-02-21T11:52:54Z</time>
      </trkpt>
      <trkpt lat="43.9208" lon="5.42071">
        <ele>315.247</ele>
        <time>2021-02-21T11:52:58Z</time>
      </trkpt>
      <trkpt lat="43.9208" lon="5.4208">
        <ele>315.416</ele>
        <time>2021-02-21T11:53:00Z</time>
      </trkpt>
      <trkpt lat="43.92079" lon="5.42088">
        <ele>315.857</ele>
        <time>2021-02-21T11:53:02Z</time>
      </trkpt>
      <trkpt lat="43.92075" lon="5.42105">
        <ele>316.668</ele>
        <time>2021-02-21T11:53:07Z</time>
      </trkpt>
      <trkpt lat="43.92074" lon="5.42112">
        <ele>317.262</ele>
        <time>2021-02-21T11:53:11Z</time>
      </trkpt>
      <trkpt lat="43.92074" lon="5.42112">
        <ele>318.853</ele>
        <time>2021-02-21T11:53:25Z</time>
      </trkpt>
      <trkpt lat="43.92074" lon="5.42112">
        <ele>320.026</ele>
        <time>2021-02-21T11:53:35Z</time>
      </trkpt>
      <trkpt lat="43.92074" lon="5.42112">
        <ele>321.647</ele>
        <time>2021-02-21T11:53:52Z</time>
      </trkpt>
      <trkpt lat="43.92074" lon="5.42112">
        <ele>322.811</ele>
        <time>2021-02-21T11:54:09Z</time>
      </trkpt>
      <trkpt lat="43.92074" lon="5.42112">
        <ele>323.808</ele>
        <time>2021-02-21T11:54:26Z</time>
      </trkpt>
      <trkpt lat="43.92074" lon="5.42112">
        <ele>324.848</ele>
        <time>2021-02-21T11:54:49Z</time>
      </trkpt>
      <trkpt lat="43.92074" lon="5.42112">
        <ele>325.628</ele>
        <time>2021-02-21T11:55:09Z</time>
      </trkpt>
      <trkpt lat="43.92076" lon="5.42121">
        <ele>325.855</ele>
        <time>2021-02-21T11:55:14Z</time>
      </trkpt>
      <trkpt lat="43.92082" lon="5.42134">
        <ele>326.094</ele>
        <time>2021-02-21T11:55:19Z</time>
      </trkpt>
      <trkpt lat="43.92085" lon="5.42139">
        <ele>326.225</ele>
        <time>2021-02-21T11:55:23Z</time>
      </trkpt>
      <trkpt lat="43.92087" lon="5.42145">
        <ele>326.686</ele>
        <time>2021-02-21T11:55:27Z</time>
      </trkpt>
      <trkpt lat="43.92088" lon="5.42149">
        <ele>326.66</ele>
        <time>2021-02-21T11:55:30Z</time>
      </trkpt>
      <trkpt lat="43.92086" lon="5.42152">
        <ele>326.611</ele>
        <time>2021-02-21T11:55:32Z</time>
      </trkpt>
      <trkpt lat="43.92082" lon="5.4216">
        <ele>327.469</ele>
        <time>2021-02-21T11:55:38Z</time>
      </trkpt>
      <trkpt lat="43.92081" lon="5.42165">
        <ele>328.404</ele>
        <time>2021-02-21T11:55:43Z</time>
      </trkpt>
      <trkpt lat="43.92082" lon="5.42166">
        <ele>328.824</ele>
        <time>2021-02-21T11:55:49Z</time>
      </trkpt>
      <trkpt lat="43.92082" lon="5.42166">
        <ele>330.008</ele>
        <time>2021-02-21T11:56:04Z</time>
      </trkpt>
      <trkpt lat="43.92082" lon="5.42166">
        <ele>331.232</ele>
        <time>2021-02-21T11:56:22Z</time>
      </trkpt>
      <trkpt lat="43.92082" lon="5.42166">
        <ele>332.082</ele>
        <time>2021-02-21T11:56:38Z</time>
      </trkpt>
      <trkpt lat="43.92083" lon="5.42169">
        <ele>332.839</ele>
        <time>2021-02-21T11:56:52Z</time>
      </trkpt>
      <trkpt lat="43.92085" lon="5.42176">
        <ele>333.238</ele>
        <time>2021-02-21T11:56:59Z</time>
      </trkpt>
      <trkpt lat="43.92087" lon="5.4218">
        <ele>333.449</ele>
        <time>2021-02-21T11:57:01Z</time>
      </trkpt>
      <trkpt lat="43.9209" lon="5.42187">
        <ele>333.87</ele>
        <time>2021-02-21T11:57:04Z</time>
      </trkpt>
      <trkpt lat="43.92093" lon="5.42197">
        <ele>334.484</ele>
        <time>2021-02-21T11:57:10Z</time>
      </trkpt>
      <trkpt lat="43.92094" lon="5.4221">
        <ele>334.885</ele>
        <time>2021-02-21T11:57:15Z</time>
      </trkpt>
      <trkpt lat="43.92096" lon="5.42212">
        <ele>335.024</ele>
        <time>2021-02-21T11:57:16Z</time>
      </trkpt>
      <trkpt lat="43.92098" lon="5.42215">
        <ele>335.204</ele>
        <time>2021-02-21T11:57:18Z</time>
      </trkpt>
      <trkpt lat="43.92099" lon="5.42218">
        <ele>335.414</ele>
        <time>2021-02-21T11:57:19Z</time>
      </trkpt>
      <trkpt lat="43.92099" lon="5.4222">
        <ele>335.408</ele>
        <time>2021-02-21T11:57:20Z</time>
      </trkpt>
      <trkpt lat="43.921" lon="5.4223">
        <ele>335.668</ele>
        <time>2021-02-21T11:57:23Z</time>
      </trkpt>
      <trkpt lat="43.92101" lon="5.42233">
        <ele>335.628</ele>
        <time>2021-02-21T11:57:24Z</time>
      </trkpt>
      <trkpt lat="43.92101" lon="5.4224">
        <ele>336.055</ele>
        <time>2021-02-21T11:57:27Z</time>
      </trkpt>
      <trkpt lat="43.92101" lon="5.4225">
        <ele>336.024</ele>
        <time>2021-02-21T11:57:30Z</time>
      </trkpt>
      <trkpt lat="43.921" lon="5.42253">
        <ele>336.025</ele>
        <time>2021-02-21T11:57:31Z</time>
      </trkpt>
      <trkpt lat="43.92096" lon="5.42256">
        <ele>336.426</ele>
        <time>2021-02-21T11:57:34Z</time>
      </trkpt>
      <trkpt lat="43.92094" lon="5.4226">
        <ele>336.69</ele>
        <time>2021-02-21T11:57:39Z</time>
      </trkpt>
      <trkpt lat="43.92094" lon="5.4226">
        <ele>337.681</ele>
        <time>2021-02-21T11:57:55Z</time>
      </trkpt>
      <trkpt lat="43.92093" lon="5.42261">
        <ele>337.829</ele>
        <time>2021-02-21T11:58:02Z</time>
      </trkpt>
      <trkpt lat="43.9209" lon="5.42262">
        <ele>338</ele>
        <time>2021-02-21T11:58:03Z</time>
      </trkpt>
      <trkpt lat="43.92083" lon="5.42263">
        <ele>338.42</ele>
        <time>2021-02-21T11:58:06Z</time>
      </trkpt>
      <trkpt lat="43.92077" lon="5.42267">
        <ele>338.808</ele>
        <time>2021-02-21T11:58:08Z</time>
      </trkpt>
      <trkpt lat="43.92072" lon="5.42275">
        <ele>339.278</ele>
        <time>2021-02-21T11:58:11Z</time>
      </trkpt>
      <trkpt lat="43.92069" lon="5.42277">
        <ele>339.258</ele>
        <time>2021-02-21T11:58:13Z</time>
      </trkpt>
      <trkpt lat="43.92066" lon="5.42278">
        <ele>339.485</ele>
        <time>2021-02-21T11:58:15Z</time>
      </trkpt>
      <trkpt lat="43.92066" lon="5.42278">
        <ele>339.854</ele>
        <time>2021-02-21T11:58:23Z</time>
      </trkpt>
      <trkpt lat="43.92066" lon="5.42278">
        <ele>341.015</ele>
        <time>2021-02-21T11:58:42Z</time>
      </trkpt>
      <trkpt lat="43.92066" lon="5.42278">
        <ele>341.856</ele>
        <time>2021-02-21T11:58:57Z</time>
      </trkpt>
      <trkpt lat="43.92066" lon="5.42278">
        <ele>342.83</ele>
        <time>2021-02-21T11:59:20Z</time>
      </trkpt>
      <trkpt lat="43.92066" lon="5.42278">
        <ele>343.241</ele>
        <time>2021-02-21T11:59:35Z</time>
      </trkpt>
      <trkpt lat="43.92066" lon="5.42278">
        <ele>343.622</ele>
        <time>2021-02-21T11:59:49Z</time>
      </trkpt>
      <trkpt lat="43.92067" lon="5.4228">
        <ele>343.862</ele>
        <time>2021-02-21T11:59:55Z</time>
      </trkpt>
      <trkpt lat="43.92067" lon="5.4228">
        <ele>344.008</ele>
        <time>2021-02-21T12:00:08Z</time>
      </trkpt>
      <trkpt lat="43.92067" lon="5.4228">
        <ele>344.208</ele>
        <time>2021-02-21T12:00:22Z</time>
      </trkpt>
      <trkpt lat="43.9207" lon="5.42281">
        <ele>344.618</ele>
        <time>2021-02-21T12:00:35Z</time>
      </trkpt>
      <trkpt lat="43.92071" lon="5.42281">
        <ele>344.618</ele>
        <time>2021-02-21T12:00:36Z</time>
      </trkpt>
      <trkpt lat="43.92076" lon="5.42288">
        <ele>344.845</ele>
        <time>2021-02-21T12:00:41Z</time>
      </trkpt>
      <trkpt lat="43.92077" lon="5.42291">
        <ele>344.834</ele>
        <time>2021-02-21T12:00:42Z</time>
      </trkpt>
      <trkpt lat="43.92078" lon="5.42299">
        <ele>345.095</ele>
        <time>2021-02-21T12:00:44Z</time>
      </trkpt>
      <trkpt lat="43.92079" lon="5.42302">
        <ele>345.236</ele>
        <time>2021-02-21T12:00:45Z</time>
      </trkpt>
      <trkpt lat="43.92087" lon="5.42316">
        <ele>345.82</ele>
        <time>2021-02-21T12:00:50Z</time>
      </trkpt>
      <trkpt lat="43.92087" lon="5.42325">
        <ele>346.011</ele>
        <time>2021-02-21T12:00:54Z</time>
      </trkpt>
      <trkpt lat="43.92085" lon="5.42327">
        <ele>346.431</ele>
        <time>2021-02-21T12:01:00Z</time>
      </trkpt>
      <trkpt lat="43.92084" lon="5.42339">
        <ele>346.061</ele>
        <time>2021-02-21T12:01:04Z</time>
      </trkpt>
      <trkpt lat="43.92086" lon="5.42351">
        <ele>346.007</ele>
        <time>2021-02-21T12:01:07Z</time>
      </trkpt>
      <trkpt lat="43.92086" lon="5.42355">
        <ele>346.608</ele>
        <time>2021-02-21T12:01:11Z</time>
      </trkpt>
      <trkpt lat="43.92086" lon="5.42355">
        <ele>346.699</ele>
        <time>2021-02-21T12:01:21Z</time>
      </trkpt>
      <trkpt lat="43.92086" lon="5.42355">
        <ele>346.679</ele>
        <time>2021-02-21T12:01:40Z</time>
      </trkpt>
      <trkpt lat="43.92086" lon="5.42355">
        <ele>346.896</ele>
        <time>2021-02-21T12:02:03Z</time>
      </trkpt>
      <trkpt lat="43.92086" lon="5.42355">
        <ele>346.895</ele>
        <time>2021-02-21T12:02:24Z</time>
      </trkpt>
      <trkpt lat="43.92085" lon="5.42354">
        <ele>346.846</ele>
        <time>2021-02-21T12:02:47Z</time>
      </trkpt>
      <trkpt lat="43.92085" lon="5.42354">
        <ele>346.817</ele>
        <time>2021-02-21T12:03:07Z</time>
      </trkpt>
      <trkpt lat="43.92086" lon="5.42357">
        <ele>346.891</ele>
        <time>2021-02-21T12:03:16Z</time>
      </trkpt>
      <trkpt lat="43.92089" lon="5.42373">
        <ele>346.652</ele>
        <time>2021-02-21T12:03:22Z</time>
      </trkpt>
      <trkpt lat="43.92091" lon="5.42381">
        <ele>346.621</ele>
        <time>2021-02-21T12:03:24Z</time>
      </trkpt>
      <trkpt lat="43.9209" lon="5.42387">
        <ele>346.641</ele>
        <time>2021-02-21T12:03:26Z</time>
      </trkpt>
      <trkpt lat="43.92083" lon="5.42397">
        <ele>347.005</ele>
        <time>2021-02-21T12:03:31Z</time>
      </trkpt>
      <trkpt lat="43.92082" lon="5.42399">
        <ele>347.208</ele>
        <time>2021-02-21T12:03:32Z</time>
      </trkpt>
      <trkpt lat="43.92082" lon="5.42401">
        <ele>347.258</ele>
        <time>2021-02-21T12:03:33Z</time>
      </trkpt>
      <trkpt lat="43.9208" lon="5.42405">
        <ele>347.418</ele>
        <time>2021-02-21T12:03:35Z</time>
      </trkpt>
      <trkpt lat="43.92074" lon="5.42412">
        <ele>347.235</ele>
        <time>2021-02-21T12:03:38Z</time>
      </trkpt>
      <trkpt lat="43.9207" lon="5.42419">
        <ele>347.224</ele>
        <time>2021-02-21T12:03:40Z</time>
      </trkpt>
      <trkpt lat="43.92067" lon="5.42422">
        <ele>347.055</ele>
        <time>2021-02-21T12:03:43Z</time>
      </trkpt>
      <trkpt lat="43.92067" lon="5.42422">
        <ele>347.296</ele>
        <time>2021-02-21T12:03:58Z</time>
      </trkpt>
      <trkpt lat="43.92067" lon="5.42422">
        <ele>347.21</ele>
        <time>2021-02-21T12:04:14Z</time>
      </trkpt>
      <trkpt lat="43.92068" lon="5.42422">
        <ele>347.271</ele>
        <time>2021-02-21T12:04:27Z</time>
      </trkpt>
      <trkpt lat="43.92067" lon="5.42422">
        <ele>347.033</ele>
        <time>2021-02-21T12:04:28Z</time>
      </trkpt>
      <trkpt lat="43.9206" lon="5.42427">
        <ele>346.423</ele>
        <time>2021-02-21T12:04:31Z</time>
      </trkpt>
      <trkpt lat="43.92057" lon="5.4243">
        <ele>346.015</ele>
        <time>2021-02-21T12:04:32Z</time>
      </trkpt>
      <trkpt lat="43.92055" lon="5.42433">
        <ele>345.808</ele>
        <time>2021-02-21T12:04:34Z</time>
      </trkpt>
      <trkpt lat="43.92054" lon="5.42438">
        <ele>345.699</ele>
        <time>2021-02-21T12:04:35Z</time>
      </trkpt>
      <trkpt lat="43.92055" lon="5.42446">
        <ele>345.689</ele>
        <time>2021-02-21T12:04:36Z</time>
      </trkpt>
      <trkpt lat="43.92055" lon="5.42455">
        <ele>345.496</ele>
        <time>2021-02-21T12:04:37Z</time>
      </trkpt>
      <trkpt lat="43.92053" lon="5.42462">
        <ele>345.445</ele>
        <time>2021-02-21T12:04:38Z</time>
      </trkpt>
      <trkpt lat="43.92051" lon="5.42468">
        <ele>345.226</ele>
        <time>2021-02-21T12:04:39Z</time>
      </trkpt>
      <trkpt lat="43.92049" lon="5.4249">
        <ele>344.467</ele>
        <time>2021-02-21T12:04:44Z</time>
      </trkpt>
      <trkpt lat="43.92049" lon="5.42506">
        <ele>344.261</ele>
        <time>2021-02-21T12:04:48Z</time>
      </trkpt>
      <trkpt lat="43.92049" lon="5.42509">
        <ele>344.072</ele>
        <time>2021-02-21T12:04:49Z</time>
      </trkpt>
      <trkpt lat="43.92046" lon="5.42514">
        <ele>343.495</ele>
        <time>2021-02-21T12:04:53Z</time>
      </trkpt>
      <trkpt lat="43.92046" lon="5.42514">
        <ele>342.249</ele>
        <time>2021-02-21T12:05:06Z</time>
      </trkpt>
      <trkpt lat="43.92043" lon="5.42516">
        <ele>342.023</ele>
        <time>2021-02-21T12:05:10Z</time>
      </trkpt>
      <trkpt lat="43.92039" lon="5.42516">
        <ele>342.808</ele>
        <time>2021-02-21T12:05:14Z</time>
      </trkpt>
      <trkpt lat="43.92038" lon="5.42515">
        <ele>343.455</ele>
        <time>2021-02-21T12:05:19Z</time>
      </trkpt>
      <trkpt lat="43.92037" lon="5.42511">
        <ele>343.625</ele>
        <time>2021-02-21T12:05:24Z</time>
      </trkpt>
      <trkpt lat="43.92034" lon="5.42503">
        <ele>344.622</ele>
        <time>2021-02-21T12:05:30Z</time>
      </trkpt>
      <trkpt lat="43.92033" lon="5.42496">
        <ele>345.691</ele>
        <time>2021-02-21T12:05:36Z</time>
      </trkpt>
      <trkpt lat="43.92032" lon="5.42491">
        <ele>346.012</ele>
        <time>2021-02-21T12:05:42Z</time>
      </trkpt>
      <trkpt lat="43.92031" lon="5.4249">
        <ele>346.693</ele>
        <time>2021-02-21T12:05:49Z</time>
      </trkpt>
      <trkpt lat="43.92032" lon="5.42482">
        <ele>347.237</ele>
        <time>2021-02-21T12:05:55Z</time>
      </trkpt>
      <trkpt lat="43.92032" lon="5.42479">
        <ele>347.868</ele>
        <time>2021-02-21T12:06:01Z</time>
      </trkpt>
      <trkpt lat="43.92031" lon="5.42472">
        <ele>348.847</ele>
        <time>2021-02-21T12:06:07Z</time>
      </trkpt>
      <trkpt lat="43.9203" lon="5.4247">
        <ele>349.829</ele>
        <time>2021-02-21T12:06:14Z</time>
      </trkpt>
      <trkpt lat="43.9203" lon="5.42471">
        <ele>350.421</ele>
        <time>2021-02-21T12:06:20Z</time>
      </trkpt>
      <trkpt lat="43.92027" lon="5.42474">
        <ele>350.808</ele>
        <time>2021-02-21T12:06:22Z</time>
      </trkpt>
      <trkpt lat="43.92022" lon="5.42481">
        <ele>351.47</ele>
        <time>2021-02-21T12:06:27Z</time>
      </trkpt>
      <trkpt lat="43.92022" lon="5.42483">
        <ele>351.63</ele>
        <time>2021-02-21T12:06:28Z</time>
      </trkpt>
      <trkpt lat="43.92022" lon="5.42484">
        <ele>351.827</ele>
        <time>2021-02-21T12:06:29Z</time>
      </trkpt>
      <trkpt lat="43.92023" lon="5.4249">
        <ele>352.246</ele>
        <time>2021-02-21T12:06:34Z</time>
      </trkpt>
      <trkpt lat="43.92023" lon="5.42492">
        <ele>352.487</ele>
        <time>2021-02-21T12:06:35Z</time>
      </trkpt>
      <trkpt lat="43.92018" lon="5.42496">
        <ele>352.858</ele>
        <time>2021-02-21T12:06:39Z</time>
      </trkpt>
      <trkpt lat="43.92009" lon="5.42502">
        <ele>353.492</ele>
        <time>2021-02-21T12:06:46Z</time>
      </trkpt>
      <trkpt lat="43.9201" lon="5.42508">
        <ele>354.293</ele>
        <time>2021-02-21T12:06:52Z</time>
      </trkpt>
      <trkpt lat="43.92009" lon="5.42508">
        <ele>355.098</ele>
        <time>2021-02-21T12:07:01Z</time>
      </trkpt>
      <trkpt lat="43.92009" lon="5.42508">
        <ele>356.815</ele>
        <time>2021-02-21T12:07:25Z</time>
      </trkpt>
      <trkpt lat="43.92009" lon="5.42508">
        <ele>358.026</ele>
        <time>2021-02-21T12:07:44Z</time>
      </trkpt>
      <trkpt lat="43.92009" lon="5.42508">
        <ele>359.008</ele>
        <time>2021-02-21T12:08:07Z</time>
      </trkpt>
      <trkpt lat="43.92011" lon="5.42513">
        <ele>359.095</ele>
        <time>2021-02-21T12:08:15Z</time>
      </trkpt>
      <trkpt lat="43.92011" lon="5.42519">
        <ele>358.835</ele>
        <time>2021-02-21T12:08:17Z</time>
      </trkpt>
      <trkpt lat="43.92011" lon="5.42522">
        <ele>358.842</ele>
        <time>2021-02-21T12:08:19Z</time>
      </trkpt>
      <trkpt lat="43.92013" lon="5.42527">
        <ele>356.468</ele>
        <time>2021-02-21T12:09:27Z</time>
      </trkpt>
      <trkpt lat="43.92013" lon="5.42527">
        <ele>356.457</ele>
        <time>2021-02-21T12:09:37Z</time>
      </trkpt>
      <trkpt lat="43.92012" lon="5.42525">
        <ele>356.658</ele>
        <time>2021-02-21T12:09:43Z</time>
      </trkpt>
      <trkpt lat="43.92009" lon="5.42524">
        <ele>356.639</ele>
        <time>2021-02-21T12:09:45Z</time>
      </trkpt>
      <trkpt lat="43.92007" lon="5.42525">
        <ele>356.863</ele>
        <time>2021-02-21T12:09:47Z</time>
      </trkpt>
      <trkpt lat="43.92005" lon="5.42528">
        <ele>357.064</ele>
        <time>2021-02-21T12:09:50Z</time>
      </trkpt>
      <trkpt lat="43.92004" lon="5.42531">
        <ele>357.213</ele>
        <time>2021-02-21T12:09:56Z</time>
      </trkpt>
      <trkpt lat="43.91998" lon="5.42543">
        <ele>357.043</ele>
        <time>2021-02-21T12:10:02Z</time>
      </trkpt>
      <trkpt lat="43.91996" lon="5.42547">
        <ele>357.007</ele>
        <time>2021-02-21T12:10:05Z</time>
      </trkpt>
      <trkpt lat="43.91994" lon="5.42547">
        <ele>357.408</ele>
        <time>2021-02-21T12:10:06Z</time>
      </trkpt>
      <trkpt lat="43.91993" lon="5.42547">
        <ele>357.237</ele>
        <time>2021-02-21T12:10:07Z</time>
      </trkpt>
      <trkpt lat="43.91991" lon="5.42547">
        <ele>357.237</ele>
        <time>2021-02-21T12:10:10Z</time>
      </trkpt>
      <trkpt lat="43.91991" lon="5.42548">
        <ele>357.064</ele>
        <time>2021-02-21T12:10:18Z</time>
      </trkpt>
      <trkpt lat="43.9199" lon="5.42553">
        <ele>356.883</ele>
        <time>2021-02-21T12:10:20Z</time>
      </trkpt>
      <trkpt lat="43.91988" lon="5.42555">
        <ele>356.834</ele>
        <time>2021-02-21T12:10:21Z</time>
      </trkpt>
      <trkpt lat="43.91983" lon="5.4256">
        <ele>356.655</ele>
        <time>2021-02-21T12:10:25Z</time>
      </trkpt>
      <trkpt lat="43.91983" lon="5.42561">
        <ele>356.489</ele>
        <time>2021-02-21T12:10:34Z</time>
      </trkpt>
      <trkpt lat="43.91983" lon="5.42561">
        <ele>356.23</ele>
        <time>2021-02-21T12:10:47Z</time>
      </trkpt>
      <trkpt lat="43.91981" lon="5.42568">
        <ele>355.882</ele>
        <time>2021-02-21T12:10:51Z</time>
      </trkpt>
      <trkpt lat="43.9198" lon="5.42571">
        <ele>355.843</ele>
        <time>2021-02-21T12:10:52Z</time>
      </trkpt>
      <trkpt lat="43.91977" lon="5.42578">
        <ele>355.417</ele>
        <time>2021-02-21T12:10:55Z</time>
      </trkpt>
      <trkpt lat="43.91981" lon="5.42583">
        <ele>355.008</ele>
        <time>2021-02-21T12:10:58Z</time>
      </trkpt>
      <trkpt lat="43.91982" lon="5.42587">
        <ele>354.834</ele>
        <time>2021-02-21T12:11:00Z</time>
      </trkpt>
      <trkpt lat="43.91984" lon="5.42593">
        <ele>354.434</ele>
        <time>2021-02-21T12:11:03Z</time>
      </trkpt>
      <trkpt lat="43.91981" lon="5.42599">
        <ele>354.011</ele>
        <time>2021-02-21T12:11:06Z</time>
      </trkpt>
      <trkpt lat="43.9198" lon="5.42603">
        <ele>354.05</ele>
        <time>2021-02-21T12:11:08Z</time>
      </trkpt>
      <trkpt lat="43.9198" lon="5.42608">
        <ele>354.051</ele>
        <time>2021-02-21T12:11:10Z</time>
      </trkpt>
      <trkpt lat="43.91978" lon="5.42621">
        <ele>353.842</ele>
        <time>2021-02-21T12:11:15Z</time>
      </trkpt>
      <trkpt lat="43.91978" lon="5.42631">
        <ele>353.846</ele>
        <time>2021-02-21T12:11:19Z</time>
      </trkpt>
      <trkpt lat="43.91974" lon="5.42637">
        <ele>353.667</ele>
        <time>2021-02-21T12:11:22Z</time>
      </trkpt>
      <trkpt lat="43.91972" lon="5.42642">
        <ele>353.689</ele>
        <time>2021-02-21T12:11:24Z</time>
      </trkpt>
      <trkpt lat="43.91972" lon="5.4265">
        <ele>353.606</ele>
        <time>2021-02-21T12:11:28Z</time>
      </trkpt>
      <trkpt lat="43.91972" lon="5.42655">
        <ele>353.626</ele>
        <time>2021-02-21T12:11:30Z</time>
      </trkpt>
      <trkpt lat="43.9197" lon="5.42668">
        <ele>353.608</ele>
        <time>2021-02-21T12:11:36Z</time>
      </trkpt>
      <trkpt lat="43.91969" lon="5.42676">
        <ele>353.444</ele>
        <time>2021-02-21T12:11:41Z</time>
      </trkpt>
      <trkpt lat="43.91969" lon="5.4268">
        <ele>353.414</ele>
        <time>2021-02-21T12:11:43Z</time>
      </trkpt>
      <trkpt lat="43.91969" lon="5.42682">
        <ele>353.481</ele>
        <time>2021-02-21T12:11:46Z</time>
      </trkpt>
      <trkpt lat="43.91968" lon="5.42686">
        <ele>353.41</ele>
        <time>2021-02-21T12:11:51Z</time>
      </trkpt>
      <trkpt lat="43.91968" lon="5.42686">
        <ele>353.631</ele>
        <time>2021-02-21T12:11:59Z</time>
      </trkpt>
      <trkpt lat="43.91966" lon="5.4269">
        <ele>353.852</ele>
        <time>2021-02-21T12:12:05Z</time>
      </trkpt>
      <trkpt lat="43.91966" lon="5.42692">
        <ele>354.066</ele>
        <time>2021-02-21T12:12:12Z</time>
      </trkpt>
      <trkpt lat="43.91965" lon="5.42696">
        <ele>354.677</ele>
        <time>2021-02-21T12:12:16Z</time>
      </trkpt>
      <trkpt lat="43.91964" lon="5.42699">
        <ele>354.875</ele>
        <time>2021-02-21T12:12:18Z</time>
      </trkpt>
      <trkpt lat="43.91963" lon="5.42707">
        <ele>355.628</ele>
        <time>2021-02-21T12:12:22Z</time>
      </trkpt>
      <trkpt lat="43.91962" lon="5.42711">
        <ele>356.42</ele>
        <time>2021-02-21T12:12:28Z</time>
      </trkpt>
      <trkpt lat="43.91962" lon="5.42712">
        <ele>357.008</ele>
        <time>2021-02-21T12:12:34Z</time>
      </trkpt>
      <trkpt lat="43.91962" lon="5.42712">
        <ele>358.073</ele>
        <time>2021-02-21T12:12:46Z</time>
      </trkpt>
      <trkpt lat="43.91962" lon="5.42717">
        <ele>358.633</ele>
        <time>2021-02-21T12:12:52Z</time>
      </trkpt>
      <trkpt lat="43.91962" lon="5.4272">
        <ele>359.26</ele>
        <time>2021-02-21T12:12:57Z</time>
      </trkpt>
      <trkpt lat="43.91962" lon="5.4272">
        <ele>360.299</ele>
        <time>2021-02-21T12:13:11Z</time>
      </trkpt>
      <trkpt lat="43.91964" lon="5.42729">
        <ele>360.82</ele>
        <time>2021-02-21T12:13:19Z</time>
      </trkpt>
      <trkpt lat="43.91966" lon="5.42735">
        <ele>361.071</ele>
        <time>2021-02-21T12:13:21Z</time>
      </trkpt>
      <trkpt lat="43.91966" lon="5.42743">
        <ele>361.235</ele>
        <time>2021-02-21T12:13:24Z</time>
      </trkpt>
      <trkpt lat="43.9197" lon="5.42759">
        <ele>361.246</ele>
        <time>2021-02-21T12:13:29Z</time>
      </trkpt>
      <trkpt lat="43.91971" lon="5.42772">
        <ele>361.258</ele>
        <time>2021-02-21T12:13:33Z</time>
      </trkpt>
      <trkpt lat="43.9197" lon="5.4278">
        <ele>361.452</ele>
        <time>2021-02-21T12:13:36Z</time>
      </trkpt>
      <trkpt lat="43.91969" lon="5.42789">
        <ele>361.417</ele>
        <time>2021-02-21T12:13:39Z</time>
      </trkpt>
      <trkpt lat="43.9197" lon="5.42803">
        <ele>361.208</ele>
        <time>2021-02-21T12:13:43Z</time>
      </trkpt>
      <trkpt lat="43.9197" lon="5.42805">
        <ele>361.671</ele>
        <time>2021-02-21T12:13:44Z</time>
      </trkpt>
      <trkpt lat="43.91969" lon="5.42808">
        <ele>361.441</ele>
        <time>2021-02-21T12:13:45Z</time>
      </trkpt>
      <trkpt lat="43.91969" lon="5.42814">
        <ele>360.658</ele>
        <time>2021-02-21T12:13:47Z</time>
      </trkpt>
      <trkpt lat="43.91969" lon="5.42816">
        <ele>360.827</ele>
        <time>2021-02-21T12:13:48Z</time>
      </trkpt>
      <trkpt lat="43.9197" lon="5.42818">
        <ele>360.618</ele>
        <time>2021-02-21T12:13:49Z</time>
      </trkpt>
      <trkpt lat="43.91977" lon="5.42828">
        <ele>360.479</ele>
        <time>2021-02-21T12:13:53Z</time>
      </trkpt>
      <trkpt lat="43.91987" lon="5.42835">
        <ele>360.293</ele>
        <time>2021-02-21T12:13:58Z</time>
      </trkpt>
      <trkpt lat="43.91992" lon="5.4284">
        <ele>360.224</ele>
        <time>2021-02-21T12:14:01Z</time>
      </trkpt>
      <trkpt lat="43.91994" lon="5.4284">
        <ele>360.218</ele>
        <time>2021-02-21T12:14:03Z</time>
      </trkpt>
      <trkpt lat="43.91994" lon="5.42841">
        <ele>360.098</ele>
        <time>2021-02-21T12:14:13Z</time>
      </trkpt>
      <trkpt lat="43.91995" lon="5.42841">
        <ele>359.617</ele>
        <time>2021-02-21T12:14:19Z</time>
      </trkpt>
      <trkpt lat="43.91997" lon="5.42841">
        <ele>359.008</ele>
        <time>2021-02-21T12:14:30Z</time>
      </trkpt>
      <trkpt lat="43.91998" lon="5.42842">
        <ele>359.087</ele>
        <time>2021-02-21T12:14:31Z</time>
      </trkpt>
      <trkpt lat="43.92008" lon="5.42849">
        <ele>359.437</ele>
        <time>2021-02-21T12:14:35Z</time>
      </trkpt>
      <trkpt lat="43.92015" lon="5.42855">
        <ele>360.054</ele>
        <time>2021-02-21T12:14:39Z</time>
      </trkpt>
      <trkpt lat="43.92024" lon="5.42859">
        <ele>360.273</ele>
        <time>2021-02-21T12:14:44Z</time>
      </trkpt>
      <trkpt lat="43.92038" lon="5.42861">
        <ele>360.454</ele>
        <time>2021-02-21T12:14:49Z</time>
      </trkpt>
      <trkpt lat="43.9205" lon="5.4286">
        <ele>360.675</ele>
        <time>2021-02-21T12:14:54Z</time>
      </trkpt>
      <trkpt lat="43.92051" lon="5.4286">
        <ele>360.899</ele>
        <time>2021-02-21T12:14:55Z</time>
      </trkpt>
      <trkpt lat="43.92055" lon="5.42858">
        <ele>360.83</ele>
        <time>2021-02-21T12:14:57Z</time>
      </trkpt>
      <trkpt lat="43.92059" lon="5.42858">
        <ele>360.862</ele>
        <time>2021-02-21T12:14:59Z</time>
      </trkpt>
      <trkpt lat="43.92067" lon="5.42853">
        <ele>361.083</ele>
        <time>2021-02-21T12:15:03Z</time>
      </trkpt>
      <trkpt lat="43.92069" lon="5.42852">
        <ele>361.011</ele>
        <time>2021-02-21T12:15:04Z</time>
      </trkpt>
      <trkpt lat="43.9207" lon="5.42851">
        <ele>361.008</ele>
        <time>2021-02-21T12:15:05Z</time>
      </trkpt>
      <trkpt lat="43.92079" lon="5.42854">
        <ele>361.242</ele>
        <time>2021-02-21T12:15:08Z</time>
      </trkpt>
      <trkpt lat="43.92083" lon="5.4285">
        <ele>361.212</ele>
        <time>2021-02-21T12:15:10Z</time>
      </trkpt>
      <trkpt lat="43.92083" lon="5.42847">
        <ele>361.269</ele>
        <time>2021-02-21T12:15:11Z</time>
      </trkpt>
      <trkpt lat="43.92084" lon="5.42845">
        <ele>361.498</ele>
        <time>2021-02-21T12:15:12Z</time>
      </trkpt>
      <trkpt lat="43.92086" lon="5.42842">
        <ele>361.269</ele>
        <time>2021-02-21T12:15:14Z</time>
      </trkpt>
      <trkpt lat="43.92094" lon="5.42846">
        <ele>361.69</ele>
        <time>2021-02-21T12:15:18Z</time>
      </trkpt>
      <trkpt lat="43.92098" lon="5.42851">
        <ele>361.874</ele>
        <time>2021-02-21T12:15:21Z</time>
      </trkpt>
      <trkpt lat="43.92098" lon="5.42853">
        <ele>362.045</ele>
        <time>2021-02-21T12:15:22Z</time>
      </trkpt>
      <trkpt lat="43.92099" lon="5.42855">
        <ele>362.214</ele>
        <time>2021-02-21T12:15:23Z</time>
      </trkpt>
      <trkpt lat="43.92104" lon="5.42857">
        <ele>362.254</ele>
        <time>2021-02-21T12:15:26Z</time>
      </trkpt>
      <trkpt lat="43.92106" lon="5.42858">
        <ele>362.409</ele>
        <time>2021-02-21T12:15:27Z</time>
      </trkpt>
      <trkpt lat="43.92111" lon="5.42862">
        <ele>362.808</ele>
        <time>2021-02-21T12:15:30Z</time>
      </trkpt>
      <trkpt lat="43.92114" lon="5.42863">
        <ele>363.047</ele>
        <time>2021-02-21T12:15:32Z</time>
      </trkpt>
      <trkpt lat="43.92117" lon="5.42865">
        <ele>363.257</ele>
        <time>2021-02-21T12:15:34Z</time>
      </trkpt>
      <trkpt lat="43.92121" lon="5.42869">
        <ele>363.674</ele>
        <time>2021-02-21T12:15:36Z</time>
      </trkpt>
      <trkpt lat="43.92122" lon="5.42875">
        <ele>363.873</ele>
        <time>2021-02-21T12:15:38Z</time>
      </trkpt>
      <trkpt lat="43.92122" lon="5.42878">
        <ele>364.234</ele>
        <time>2021-02-21T12:15:39Z</time>
      </trkpt>
      <trkpt lat="43.92126" lon="5.42882">
        <ele>364.635</ele>
        <time>2021-02-21T12:15:41Z</time>
      </trkpt>
      <trkpt lat="43.92131" lon="5.42887">
        <ele>365.279</ele>
        <time>2021-02-21T12:15:44Z</time>
      </trkpt>
      <trkpt lat="43.92133" lon="5.42889">
        <ele>365.41</ele>
        <time>2021-02-21T12:15:45Z</time>
      </trkpt>
      <trkpt lat="43.92141" lon="5.42898">
        <ele>366.631</ele>
        <time>2021-02-21T12:15:50Z</time>
      </trkpt>
      <trkpt lat="43.92142" lon="5.429">
        <ele>367.461</ele>
        <time>2021-02-21T12:15:55Z</time>
      </trkpt>
      <trkpt lat="43.92142" lon="5.429">
        <ele>369.807</ele>
        <time>2021-02-21T12:16:13Z</time>
      </trkpt>
      <trkpt lat="43.92142" lon="5.429">
        <ele>372.008</ele>
        <time>2021-02-21T12:16:31Z</time>
      </trkpt>
      <trkpt lat="43.92142" lon="5.429">
        <ele>373.879</ele>
        <time>2021-02-21T12:16:49Z</time>
      </trkpt>
      <trkpt lat="43.92143" lon="5.42901">
        <ele>374.619</ele>
        <time>2021-02-21T12:16:59Z</time>
      </trkpt>
      <trkpt lat="43.92144" lon="5.42902">
        <ele>375.296</ele>
        <time>2021-02-21T12:17:04Z</time>
      </trkpt>
      <trkpt lat="43.92144" lon="5.42902">
        <ele>376.665</ele>
        <time>2021-02-21T12:17:24Z</time>
      </trkpt>
      <trkpt lat="43.92143" lon="5.42902">
        <ele>378.026</ele>
        <time>2021-02-21T12:17:48Z</time>
      </trkpt>
      <trkpt lat="43.92143" lon="5.42902">
        <ele>379.027</ele>
        <time>2021-02-21T12:18:13Z</time>
      </trkpt>
      <trkpt lat="43.92144" lon="5.42902">
        <ele>379.661</ele>
        <time>2021-02-21T12:18:36Z</time>
      </trkpt>
      <trkpt lat="43.92144" lon="5.42902">
        <ele>380.022</ele>
        <time>2021-02-21T12:19:00Z</time>
      </trkpt>
      <trkpt lat="43.92144" lon="5.42902">
        <ele>380.671</ele>
        <time>2021-02-21T12:19:28Z</time>
      </trkpt>
      <trkpt lat="43.92144" lon="5.42902">
        <ele>381.041</ele>
        <time>2021-02-21T12:19:58Z</time>
      </trkpt>
      <trkpt lat="43.92144" lon="5.42902">
        <ele>381.415</ele>
        <time>2021-02-21T12:20:23Z</time>
      </trkpt>
      <trkpt lat="43.92146" lon="5.42901">
        <ele>381.608</ele>
        <time>2021-02-21T12:20:36Z</time>
      </trkpt>
      <trkpt lat="43.92148" lon="5.42902">
        <ele>381.653</ele>
        <time>2021-02-21T12:20:37Z</time>
      </trkpt>
      <trkpt lat="43.9215" lon="5.42903">
        <ele>381.683</ele>
        <time>2021-02-21T12:20:38Z</time>
      </trkpt>
      <trkpt lat="43.92161" lon="5.42909">
        <ele>381.84</ele>
        <time>2021-02-21T12:20:42Z</time>
      </trkpt>
      <trkpt lat="43.9217" lon="5.42918">
        <ele>381.819</ele>
        <time>2021-02-21T12:20:46Z</time>
      </trkpt>
      <trkpt lat="43.92172" lon="5.42918">
        <ele>381.82</ele>
        <time>2021-02-21T12:20:47Z</time>
      </trkpt>
      <trkpt lat="43.92178" lon="5.42915">
        <ele>381.831</ele>
        <time>2021-02-21T12:20:49Z</time>
      </trkpt>
      <trkpt lat="43.92181" lon="5.42915">
        <ele>381.685</ele>
        <time>2021-02-21T12:20:50Z</time>
      </trkpt>
      <trkpt lat="43.92187" lon="5.42912">
        <ele>381.846</ele>
        <time>2021-02-21T12:20:52Z</time>
      </trkpt>
      <trkpt lat="43.92189" lon="5.42906">
        <ele>381.487</ele>
        <time>2021-02-21T12:20:53Z</time>
      </trkpt>
      <trkpt lat="43.92193" lon="5.42899">
        <ele>381.042</ele>
        <time>2021-02-21T12:20:55Z</time>
      </trkpt>
      <trkpt lat="43.92195" lon="5.42899">
        <ele>381.026</ele>
        <time>2021-02-21T12:20:56Z</time>
      </trkpt>
      <trkpt lat="43.92197" lon="5.42901">
        <ele>380.608</ele>
        <time>2021-02-21T12:20:57Z</time>
      </trkpt>
      <trkpt lat="43.922" lon="5.42903">
        <ele>380.444</ele>
        <time>2021-02-21T12:20:59Z</time>
      </trkpt>
      <trkpt lat="43.92201" lon="5.42905">
        <ele>380.244</ele>
        <time>2021-02-21T12:21:00Z</time>
      </trkpt>
      <trkpt lat="43.92204" lon="5.42912">
        <ele>380.041</ele>
        <time>2021-02-21T12:21:03Z</time>
      </trkpt>
      <trkpt lat="43.92208" lon="5.4292">
        <ele>379.62</ele>
        <time>2021-02-21T12:21:06Z</time>
      </trkpt>
      <trkpt lat="43.92213" lon="5.42926">
        <ele>379.451</ele>
        <time>2021-02-21T12:21:08Z</time>
      </trkpt>
      <trkpt lat="43.92216" lon="5.4293">
        <ele>379.242</ele>
        <time>2021-02-21T12:21:09Z</time>
      </trkpt>
      <trkpt lat="43.92222" lon="5.42943">
        <ele>379.096</ele>
        <time>2021-02-21T12:21:11Z</time>
      </trkpt>
      <trkpt lat="43.92228" lon="5.42957">
        <ele>378.677</ele>
        <time>2021-02-21T12:21:13Z</time>
      </trkpt>
      <trkpt lat="43.92232" lon="5.42972">
        <ele>378.289</ele>
        <time>2021-02-21T12:21:15Z</time>
      </trkpt>
      <trkpt lat="43.92236" lon="5.42989">
        <ele>377.806</ele>
        <time>2021-02-21T12:21:17Z</time>
      </trkpt>
      <trkpt lat="43.92242" lon="5.43005">
        <ele>377.426</ele>
        <time>2021-02-21T12:21:19Z</time>
      </trkpt>
      <trkpt lat="43.92244" lon="5.43013">
        <ele>377.208</ele>
        <time>2021-02-21T12:21:20Z</time>
      </trkpt>
      <trkpt lat="43.92247" lon="5.43025">
        <ele>376.644</ele>
        <time>2021-02-21T12:21:22Z</time>
      </trkpt>
      <trkpt lat="43.92258" lon="5.43041">
        <ele>375.664</ele>
        <time>2021-02-21T12:21:27Z</time>
      </trkpt>
      <trkpt lat="43.92265" lon="5.43052">
        <ele>374.811</ele>
        <time>2021-02-21T12:21:32Z</time>
      </trkpt>
      <trkpt lat="43.92265" lon="5.43052">
        <ele>373.09</ele>
        <time>2021-02-21T12:21:46Z</time>
      </trkpt>
      <trkpt lat="43.92265" lon="5.43052">
        <ele>371.461</ele>
        <time>2021-02-21T12:22:00Z</time>
      </trkpt>
      <trkpt lat="43.92265" lon="5.43052">
        <ele>370.662</ele>
        <time>2021-02-21T12:22:09Z</time>
      </trkpt>
      <trkpt lat="43.92267" lon="5.43053">
        <ele>369.616</ele>
        <time>2021-02-21T12:22:21Z</time>
      </trkpt>
      <trkpt lat="43.92268" lon="5.43056">
        <ele>369.677</ele>
        <time>2021-02-21T12:22:22Z</time>
      </trkpt>
      <trkpt lat="43.9227" lon="5.43059">
        <ele>369.462</ele>
        <time>2021-02-21T12:22:23Z</time>
      </trkpt>
      <trkpt lat="43.92276" lon="5.43072">
        <ele>369.283</ele>
        <time>2021-02-21T12:22:27Z</time>
      </trkpt>
      <trkpt lat="43.92281" lon="5.43084">
        <ele>368.811</ele>
        <time>2021-02-21T12:22:30Z</time>
      </trkpt>
      <trkpt lat="43.92287" lon="5.43092">
        <ele>368.408</ele>
        <time>2021-02-21T12:22:32Z</time>
      </trkpt>
      <trkpt lat="43.92294" lon="5.43098">
        <ele>368.022</ele>
        <time>2021-02-21T12:22:34Z</time>
      </trkpt>
      <trkpt lat="43.92296" lon="5.43102">
        <ele>367.622</ele>
        <time>2021-02-21T12:22:36Z</time>
      </trkpt>
      <trkpt lat="43.92296" lon="5.43102">
        <ele>367.439</ele>
        <time>2021-02-21T12:22:37Z</time>
      </trkpt>
      <trkpt lat="43.92295" lon="5.43103">
        <ele>366.858</ele>
        <time>2021-02-21T12:22:45Z</time>
      </trkpt>
      <trkpt lat="43.92295" lon="5.43103">
        <ele>366.099</ele>
        <time>2021-02-21T12:22:55Z</time>
      </trkpt>
      <trkpt lat="43.92295" lon="5.43105">
        <ele>365.21</ele>
        <time>2021-02-21T12:23:02Z</time>
      </trkpt>
      <trkpt lat="43.92295" lon="5.43106">
        <ele>364.264</ele>
        <time>2021-02-21T12:23:12Z</time>
      </trkpt>
      <trkpt lat="43.92295" lon="5.43106">
        <ele>363.625</ele>
        <time>2021-02-21T12:23:23Z</time>
      </trkpt>
      <trkpt lat="43.92295" lon="5.43106">
        <ele>362.659</ele>
        <time>2021-02-21T12:23:38Z</time>
      </trkpt>
      <trkpt lat="43.92293" lon="5.43111">
        <ele>362.203</ele>
        <time>2021-02-21T12:23:47Z</time>
      </trkpt>
      <trkpt lat="43.92291" lon="5.43114">
        <ele>362.023</ele>
        <time>2021-02-21T12:23:48Z</time>
      </trkpt>
      <trkpt lat="43.92284" lon="5.43123">
        <ele>361.808</ele>
        <time>2021-02-21T12:23:51Z</time>
      </trkpt>
      <trkpt lat="43.92277" lon="5.43131">
        <ele>361.451</ele>
        <time>2021-02-21T12:23:54Z</time>
      </trkpt>
      <trkpt lat="43.92268" lon="5.43137">
        <ele>361.041</ele>
        <time>2021-02-21T12:23:57Z</time>
      </trkpt>
      <trkpt lat="43.92266" lon="5.43137">
        <ele>361.038</ele>
        <time>2021-02-21T12:23:58Z</time>
      </trkpt>
      <trkpt lat="43.92265" lon="5.43136">
        <ele>360.867</ele>
        <time>2021-02-21T12:24:00Z</time>
      </trkpt>
      <trkpt lat="43.92262" lon="5.43137">
        <ele>360.228</ele>
        <time>2021-02-21T12:24:07Z</time>
      </trkpt>
      <trkpt lat="43.92262" lon="5.43137">
        <ele>359.069</ele>
        <time>2021-02-21T12:24:26Z</time>
      </trkpt>
      <trkpt lat="43.92262" lon="5.43137">
        <ele>358.223</ele>
        <time>2021-02-21T12:24:43Z</time>
      </trkpt>
      <trkpt lat="43.92262" lon="5.43137">
        <ele>357.634</ele>
        <time>2021-02-21T12:25:03Z</time>
      </trkpt>
      <trkpt lat="43.92262" lon="5.43137">
        <ele>357.291</ele>
        <time>2021-02-21T12:25:19Z</time>
      </trkpt>
      <trkpt lat="43.92262" lon="5.43137">
        <ele>357.081</ele>
        <time>2021-02-21T12:25:34Z</time>
      </trkpt>
      <trkpt lat="43.92262" lon="5.43137">
        <ele>356.619</ele>
        <time>2021-02-21T12:25:57Z</time>
      </trkpt>
      <trkpt lat="43.92262" lon="5.43137">
        <ele>356.408</ele>
        <time>2021-02-21T12:26:18Z</time>
      </trkpt>
      <trkpt lat="43.92261" lon="5.43137">
        <ele>356.235</ele>
        <time>2021-02-21T12:26:42Z</time>
      </trkpt>
      <trkpt lat="43.92261" lon="5.43137">
        <ele>356.085</ele>
        <time>2021-02-21T12:27:02Z</time>
      </trkpt>
      <trkpt lat="43.92261" lon="5.43137">
        <ele>356.012</ele>
        <time>2021-02-21T12:27:17Z</time>
      </trkpt>
      <trkpt lat="43.92262" lon="5.43138">
        <ele>356.081</ele>
        <time>2021-02-21T12:27:25Z</time>
      </trkpt>
      <trkpt lat="43.92261" lon="5.43139">
        <ele>356.072</ele>
        <time>2021-02-21T12:27:35Z</time>
      </trkpt>
      <trkpt lat="43.92261" lon="5.43142">
        <ele>356.023</ele>
        <time>2021-02-21T12:27:36Z</time>
      </trkpt>
      <trkpt lat="43.92259" lon="5.43154">
        <ele>356.217</ele>
        <time>2021-02-21T12:27:39Z</time>
      </trkpt>
      <trkpt lat="43.92256" lon="5.43165">
        <ele>356.068</ele>
        <time>2021-02-21T12:27:42Z</time>
      </trkpt>
      <trkpt lat="43.9225" lon="5.43182">
        <ele>355.692</ele>
        <time>2021-02-21T12:27:47Z</time>
      </trkpt>
      <trkpt lat="43.92246" lon="5.43189">
        <ele>355.473</ele>
        <time>2021-02-21T12:27:50Z</time>
      </trkpt>
      <trkpt lat="43.92245" lon="5.43192">
        <ele>355.62</ele>
        <time>2021-02-21T12:27:51Z</time>
      </trkpt>
      <trkpt lat="43.92244" lon="5.43207">
        <ele>355.608</ele>
        <time>2021-02-21T12:27:56Z</time>
      </trkpt>
      <trkpt lat="43.92245" lon="5.43216">
        <ele>355.435</ele>
        <time>2021-02-21T12:27:59Z</time>
      </trkpt>
      <trkpt lat="43.92245" lon="5.43229">
        <ele>355.645</ele>
        <time>2021-02-21T12:28:02Z</time>
      </trkpt>
      <trkpt lat="43.92246" lon="5.43232">
        <ele>355.482</ele>
        <time>2021-02-21T12:28:03Z</time>
      </trkpt>
      <trkpt lat="43.92252" lon="5.43241">
        <ele>355.411</ele>
        <time>2021-02-21T12:28:07Z</time>
      </trkpt>
      <trkpt lat="43.92253" lon="5.43246">
        <ele>355.412</ele>
        <time>2021-02-21T12:28:08Z</time>
      </trkpt>
      <trkpt lat="43.92253" lon="5.43254">
        <ele>355.473</ele>
        <time>2021-02-21T12:28:10Z</time>
      </trkpt>
      <trkpt lat="43.92253" lon="5.43257">
        <ele>355.457</ele>
        <time>2021-02-21T12:28:11Z</time>
      </trkpt>
      <trkpt lat="43.92254" lon="5.43263">
        <ele>355.418</ele>
        <time>2021-02-21T12:28:15Z</time>
      </trkpt>
      <trkpt lat="43.92256" lon="5.43266">
        <ele>355.257</ele>
        <time>2021-02-21T12:28:17Z</time>
      </trkpt>
      <trkpt lat="43.9226" lon="5.43269">
        <ele>355</ele>
        <time>2021-02-21T12:28:19Z</time>
      </trkpt>
      <trkpt lat="43.92271" lon="5.43271">
        <ele>355.02</ele>
        <time>2021-02-21T12:28:22Z</time>
      </trkpt>
      <trkpt lat="43.92274" lon="5.4327">
        <ele>355.008</ele>
        <time>2021-02-21T12:28:23Z</time>
      </trkpt>
      <trkpt lat="43.92276" lon="5.43271">
        <ele>355.261</ele>
        <time>2021-02-21T12:28:24Z</time>
      </trkpt>
      <trkpt lat="43.9228" lon="5.43276">
        <ele>355.271</ele>
        <time>2021-02-21T12:28:27Z</time>
      </trkpt>
      <trkpt lat="43.92281" lon="5.43281">
        <ele>355.098</ele>
        <time>2021-02-21T12:28:29Z</time>
      </trkpt>
      <trkpt lat="43.92284" lon="5.43287">
        <ele>355.047</ele>
        <time>2021-02-21T12:28:31Z</time>
      </trkpt>
      <trkpt lat="43.92287" lon="5.43302">
        <ele>355.688</ele>
        <time>2021-02-21T12:28:36Z</time>
      </trkpt>
      <trkpt lat="43.92285" lon="5.43322">
        <ele>355.899</ele>
        <time>2021-02-21T12:28:42Z</time>
      </trkpt>
      <trkpt lat="43.92286" lon="5.43338">
        <ele>356.013</ele>
        <time>2021-02-21T12:28:47Z</time>
      </trkpt>
      <trkpt lat="43.92286" lon="5.43341">
        <ele>355.864</ele>
        <time>2021-02-21T12:28:48Z</time>
      </trkpt>
      <trkpt lat="43.92285" lon="5.43347">
        <ele>355.817</ele>
        <time>2021-02-21T12:28:50Z</time>
      </trkpt>
      <trkpt lat="43.92284" lon="5.4335">
        <ele>355.887</ele>
        <time>2021-02-21T12:28:51Z</time>
      </trkpt>
      <trkpt lat="43.92283" lon="5.43354">
        <ele>356.415</ele>
        <time>2021-02-21T12:28:55Z</time>
      </trkpt>
      <trkpt lat="43.92283" lon="5.43354">
        <ele>356.808</ele>
        <time>2021-02-21T12:29:09Z</time>
      </trkpt>
      <trkpt lat="43.92283" lon="5.43358">
        <ele>357.227</ele>
        <time>2021-02-21T12:29:22Z</time>
      </trkpt>
      <trkpt lat="43.92283" lon="5.43358">
        <ele>357.637</ele>
        <time>2021-02-21T12:29:38Z</time>
      </trkpt>
      <trkpt lat="43.92283" lon="5.43358">
        <ele>358.014</ele>
        <time>2021-02-21T12:29:54Z</time>
      </trkpt>
      <trkpt lat="43.92283" lon="5.43361">
        <ele>358.043</ele>
        <time>2021-02-21T12:29:59Z</time>
      </trkpt>
      <trkpt lat="43.92296" lon="5.43381">
        <ele>358.064</ele>
        <time>2021-02-21T12:30:05Z</time>
      </trkpt>
      <trkpt lat="43.92307" lon="5.43397">
        <ele>358.455</ele>
        <time>2021-02-21T12:30:09Z</time>
      </trkpt>
      <trkpt lat="43.92313" lon="5.43413">
        <ele>358.419</ele>
        <time>2021-02-21T12:30:13Z</time>
      </trkpt>
      <trkpt lat="43.92313" lon="5.43428">
        <ele>358.63</ele>
        <time>2021-02-21T12:30:17Z</time>
      </trkpt>
      <trkpt lat="43.92313" lon="5.43435">
        <ele>358.617</ele>
        <time>2021-02-21T12:30:19Z</time>
      </trkpt>
      <trkpt lat="43.92314" lon="5.43441">
        <ele>358.887</ele>
        <time>2021-02-21T12:30:21Z</time>
      </trkpt>
      <trkpt lat="43.92313" lon="5.43451">
        <ele>358.815</ele>
        <time>2021-02-21T12:30:24Z</time>
      </trkpt>
      <trkpt lat="43.92312" lon="5.4346">
        <ele>358.808</ele>
        <time>2021-02-21T12:30:26Z</time>
      </trkpt>
      <trkpt lat="43.92314" lon="5.43477">
        <ele>358.817</ele>
        <time>2021-02-21T12:30:30Z</time>
      </trkpt>
      <trkpt lat="43.92316" lon="5.43487">
        <ele>358.657</ele>
        <time>2021-02-21T12:30:33Z</time>
      </trkpt>
      <trkpt lat="43.92318" lon="5.43489">
        <ele>358.824</ele>
        <time>2021-02-21T12:30:34Z</time>
      </trkpt>
      <trkpt lat="43.92319" lon="5.43491">
        <ele>359.023</ele>
        <time>2021-02-21T12:30:35Z</time>
      </trkpt>
      <trkpt lat="43.9232" lon="5.43492">
        <ele>358.674</ele>
        <time>2021-02-21T12:30:38Z</time>
      </trkpt>
      <trkpt lat="43.9232" lon="5.43492">
        <ele>358.865</ele>
        <time>2021-02-21T12:30:51Z</time>
      </trkpt>
      <trkpt lat="43.9232" lon="5.43492">
        <ele>358.849</ele>
        <time>2021-02-21T12:31:08Z</time>
      </trkpt>
      <trkpt lat="43.9232" lon="5.43492">
        <ele>358.89</ele>
        <time>2021-02-21T12:31:09Z</time>
      </trkpt>
      <trkpt lat="43.92319" lon="5.43493">
        <ele>359.089</ele>
        <time>2021-02-21T12:31:12Z</time>
      </trkpt>
      <trkpt lat="43.92318" lon="5.43493">
        <ele>359.006</ele>
        <time>2021-02-21T12:31:13Z</time>
      </trkpt>
      <trkpt lat="43.92315" lon="5.43492">
        <ele>359.226</ele>
        <time>2021-02-21T12:31:16Z</time>
      </trkpt>
      <trkpt lat="43.92314" lon="5.43489">
        <ele>359.208</ele>
        <time>2021-02-21T12:31:18Z</time>
      </trkpt>
      <trkpt lat="43.92316" lon="5.43483">
        <ele>359.464</ele>
        <time>2021-02-21T12:31:20Z</time>
      </trkpt>
      <trkpt lat="43.92317" lon="5.43481">
        <ele>359.434</ele>
        <time>2021-02-21T12:31:21Z</time>
      </trkpt>
      <trkpt lat="43.9232" lon="5.43483">
        <ele>359.691</ele>
        <time>2021-02-21T12:31:23Z</time>
      </trkpt>
      <trkpt lat="43.92317" lon="5.43491">
        <ele>359.61</ele>
        <time>2021-02-21T12:31:26Z</time>
      </trkpt>
      <trkpt lat="43.92315" lon="5.43505">
        <ele>360.091</ele>
        <time>2021-02-21T12:31:30Z</time>
      </trkpt>
      <trkpt lat="43.92313" lon="5.4351">
        <ele>360.242</ele>
        <time>2021-02-21T12:31:33Z</time>
      </trkpt>
      <trkpt lat="43.92312" lon="5.43512">
        <ele>360.216</ele>
        <time>2021-02-21T12:31:35Z</time>
      </trkpt>
      <trkpt lat="43.92312" lon="5.43512">
        <ele>360.427</ele>
        <time>2021-02-21T12:31:44Z</time>
      </trkpt>
      <trkpt lat="43.92312" lon="5.43512">
        <ele>361.226</ele>
        <time>2021-02-21T12:32:02Z</time>
      </trkpt>
      <trkpt lat="43.92312" lon="5.43518">
        <ele>361.447</ele>
        <time>2021-02-21T12:32:10Z</time>
      </trkpt>
      <trkpt lat="43.92312" lon="5.43521">
        <ele>361.411</ele>
        <time>2021-02-21T12:32:11Z</time>
      </trkpt>
      <trkpt lat="43.92316" lon="5.43527">
        <ele>361.208</ele>
        <time>2021-02-21T12:32:13Z</time>
      </trkpt>
      <trkpt lat="43.92319" lon="5.43531">
        <ele>361.218</ele>
        <time>2021-02-21T12:32:15Z</time>
      </trkpt>
      <trkpt lat="43.92317" lon="5.43534">
        <ele>361.478</ele>
        <time>2021-02-21T12:32:17Z</time>
      </trkpt>
      <trkpt lat="43.92307" lon="5.43536">
        <ele>361.695</ele>
        <time>2021-02-21T12:32:23Z</time>
      </trkpt>
      <trkpt lat="43.92297" lon="5.43538">
        <ele>362.084</ele>
        <time>2021-02-21T12:32:28Z</time>
      </trkpt>
      <trkpt lat="43.92284" lon="5.43545">
        <ele>362.265</ele>
        <time>2021-02-21T12:32:33Z</time>
      </trkpt>
      <trkpt lat="43.92279" lon="5.43562">
        <ele>362.236</ele>
        <time>2021-02-21T12:32:37Z</time>
      </trkpt>
      <trkpt lat="43.92273" lon="5.43572">
        <ele>362.04</ele>
        <time>2021-02-21T12:32:39Z</time>
      </trkpt>
      <trkpt lat="43.92266" lon="5.4358">
        <ele>362.061</ele>
        <time>2021-02-21T12:32:41Z</time>
      </trkpt>
      <trkpt lat="43.92255" lon="5.43585">
        <ele>362.294</ele>
        <time>2021-02-21T12:32:44Z</time>
      </trkpt>
      <trkpt lat="43.92252" lon="5.43585">
        <ele>361.657</ele>
        <time>2021-02-21T12:32:45Z</time>
      </trkpt>
      <trkpt lat="43.92249" lon="5.43586">
        <ele>361.622</ele>
        <time>2021-02-21T12:32:46Z</time>
      </trkpt>
      <trkpt lat="43.92243" lon="5.43588">
        <ele>361.608</ele>
        <time>2021-02-21T12:32:48Z</time>
      </trkpt>
      <trkpt lat="43.92229" lon="5.43596">
        <ele>361.435</ele>
        <time>2021-02-21T12:32:52Z</time>
      </trkpt>
      <trkpt lat="43.92217" lon="5.43602">
        <ele>361.425</ele>
        <time>2021-02-21T12:32:56Z</time>
      </trkpt>
      <trkpt lat="43.92215" lon="5.43609">
        <ele>361.432</ele>
        <time>2021-02-21T12:32:59Z</time>
      </trkpt>
      <trkpt lat="43.9221" lon="5.43616">
        <ele>361.421</ele>
        <time>2021-02-21T12:33:03Z</time>
      </trkpt>
      <trkpt lat="43.9221" lon="5.43616">
        <ele>361.252</ele>
        <time>2021-02-21T12:33:09Z</time>
      </trkpt>
      <trkpt lat="43.9221" lon="5.43618">
        <ele>360.833</ele>
        <time>2021-02-21T12:33:14Z</time>
      </trkpt>
      <trkpt lat="43.92211" lon="5.43629">
        <ele>360.667</ele>
        <time>2021-02-21T12:33:16Z</time>
      </trkpt>
      <trkpt lat="43.92213" lon="5.43639">
        <ele>360.298</ele>
        <time>2021-02-21T12:33:18Z</time>
      </trkpt>
      <trkpt lat="43.92215" lon="5.43648">
        <ele>359.635</ele>
        <time>2021-02-21T12:33:22Z</time>
      </trkpt>
      <trkpt lat="43.9222" lon="5.43655">
        <ele>359.286</ele>
        <time>2021-02-21T12:33:26Z</time>
      </trkpt>
      <trkpt lat="43.9222" lon="5.43656">
        <ele>359.414</ele>
        <time>2021-02-21T12:33:27Z</time>
      </trkpt>
      <trkpt lat="43.92223" lon="5.43656">
        <ele>359.208</ele>
        <time>2021-02-21T12:33:29Z</time>
      </trkpt>
      <trkpt lat="43.92223" lon="5.43658">
        <ele>359.049</ele>
        <time>2021-02-21T12:33:30Z</time>
      </trkpt>
      <trkpt lat="43.92225" lon="5.43673">
        <ele>358.039</ele>
        <time>2021-02-21T12:33:34Z</time>
      </trkpt>
      <trkpt lat="43.92221" lon="5.43685">
        <ele>357.216</ele>
        <time>2021-02-21T12:33:37Z</time>
      </trkpt>
      <trkpt lat="43.92223" lon="5.43684">
        <ele>355.445</ele>
        <time>2021-02-21T12:33:45Z</time>
      </trkpt>
      <trkpt lat="43.92224" lon="5.43682">
        <ele>353.016</ele>
        <time>2021-02-21T12:33:59Z</time>
      </trkpt>
      <trkpt lat="43.92224" lon="5.43682">
        <ele>351.247</ele>
        <time>2021-02-21T12:34:12Z</time>
      </trkpt>
      <trkpt lat="43.92225" lon="5.43681">
        <ele>349.051</ele>
        <time>2021-02-21T12:34:31Z</time>
      </trkpt>
      <trkpt lat="43.92225" lon="5.43681">
        <ele>347.292</ele>
        <time>2021-02-21T12:34:52Z</time>
      </trkpt>
      <trkpt lat="43.92225" lon="5.43682">
        <ele>345.894</ele>
        <time>2021-02-21T12:35:10Z</time>
      </trkpt>
      <trkpt lat="43.92225" lon="5.43682">
        <ele>345.057</ele>
        <time>2021-02-21T12:35:25Z</time>
      </trkpt>
      <trkpt lat="43.92225" lon="5.43682">
        <ele>344.222</ele>
        <time>2021-02-21T12:35:40Z</time>
      </trkpt>
      <trkpt lat="43.92225" lon="5.43682">
        <ele>343.408</ele>
        <time>2021-02-21T12:36:00Z</time>
      </trkpt>
      <trkpt lat="43.92225" lon="5.43682">
        <ele>342.875</ele>
        <time>2021-02-21T12:36:17Z</time>
      </trkpt>
      <trkpt lat="43.92224" lon="5.43682">
        <ele>342.265</ele>
        <time>2021-02-21T12:36:37Z</time>
      </trkpt>
      <trkpt lat="43.92224" lon="5.43682">
        <ele>341.862</ele>
        <time>2021-02-21T12:36:59Z</time>
      </trkpt>
      <trkpt lat="43.92224" lon="5.43682">
        <ele>341.631</ele>
        <time>2021-02-21T12:37:09Z</time>
      </trkpt>
      <trkpt lat="43.9222" lon="5.43687">
        <ele>341.282</ele>
        <time>2021-02-21T12:37:16Z</time>
      </trkpt>
      <trkpt lat="43.92211" lon="5.43697">
        <ele>340.863</ele>
        <time>2021-02-21T12:37:20Z</time>
      </trkpt>
      <trkpt lat="43.92204" lon="5.43708">
        <ele>340.297</ele>
        <time>2021-02-21T12:37:24Z</time>
      </trkpt>
      <trkpt lat="43.92204" lon="5.43708">
        <ele>339.878</ele>
        <time>2021-02-21T12:37:35Z</time>
      </trkpt>
      <trkpt lat="43.92203" lon="5.4371">
        <ele>339.085</ele>
        <time>2021-02-21T12:37:45Z</time>
      </trkpt>
      <trkpt lat="43.92201" lon="5.43712">
        <ele>338.689</ele>
        <time>2021-02-21T12:37:46Z</time>
      </trkpt>
      <trkpt lat="43.922" lon="5.43718">
        <ele>337.617</ele>
        <time>2021-02-21T12:37:49Z</time>
      </trkpt>
      <trkpt lat="43.922" lon="5.4372">
        <ele>337.208</ele>
        <time>2021-02-21T12:37:50Z</time>
      </trkpt>
      <trkpt lat="43.922" lon="5.43727">
        <ele>336.614</ele>
        <time>2021-02-21T12:37:53Z</time>
      </trkpt>
      <trkpt lat="43.92201" lon="5.43728">
        <ele>336.474</ele>
        <time>2021-02-21T12:37:54Z</time>
      </trkpt>
      <trkpt lat="43.92202" lon="5.4373">
        <ele>336.271</ele>
        <time>2021-02-21T12:37:55Z</time>
      </trkpt>
      <trkpt lat="43.92205" lon="5.43737">
        <ele>336.25</ele>
        <time>2021-02-21T12:37:58Z</time>
      </trkpt>
      <trkpt lat="43.92206" lon="5.43738">
        <ele>336.291</ele>
        <time>2021-02-21T12:37:59Z</time>
      </trkpt>
      <trkpt lat="43.92209" lon="5.43742">
        <ele>336.272</ele>
        <time>2021-02-21T12:38:02Z</time>
      </trkpt>
      <trkpt lat="43.92209" lon="5.43744">
        <ele>336.226</ele>
        <time>2021-02-21T12:38:03Z</time>
      </trkpt>
      <trkpt lat="43.92211" lon="5.43746">
        <ele>336.217</ele>
        <time>2021-02-21T12:38:05Z</time>
      </trkpt>
      <trkpt lat="43.92215" lon="5.43747">
        <ele>336.097</ele>
        <time>2021-02-21T12:38:07Z</time>
      </trkpt>
      <trkpt lat="43.92218" lon="5.43749">
        <ele>336.223</ele>
        <time>2021-02-21T12:38:09Z</time>
      </trkpt>
      <trkpt lat="43.92221" lon="5.43751">
        <ele>336.625</ele>
        <time>2021-02-21T12:38:11Z</time>
      </trkpt>
      <trkpt lat="43.92223" lon="5.43753">
        <ele>335.008</ele>
        <time>2021-02-21T12:38:13Z</time>
      </trkpt>
      <trkpt lat="43.92226" lon="5.43757">
        <ele>337.235</ele>
        <time>2021-02-21T12:38:15Z</time>
      </trkpt>
      <trkpt lat="43.92237" lon="5.43767">
        <ele>338.445</ele>
        <time>2021-02-21T12:38:20Z</time>
      </trkpt>
      <trkpt lat="43.92248" lon="5.43776">
        <ele>339.442</ele>
        <time>2021-02-21T12:38:25Z</time>
      </trkpt>
      <trkpt lat="43.92249" lon="5.43782">
        <ele>339.871</ele>
        <time>2021-02-21T12:38:27Z</time>
      </trkpt>
      <trkpt lat="43.92248" lon="5.43787">
        <ele>340.412</ele>
        <time>2021-02-21T12:38:29Z</time>
      </trkpt>
      <trkpt lat="43.92246" lon="5.43793">
        <ele>340.883</ele>
        <time>2021-02-21T12:38:32Z</time>
      </trkpt>
      <trkpt lat="43.92248" lon="5.43796">
        <ele>341.277</ele>
        <time>2021-02-21T12:38:34Z</time>
      </trkpt>
      <trkpt lat="43.92252" lon="5.43796">
        <ele>341.438</ele>
        <time>2021-02-21T12:38:36Z</time>
      </trkpt>
      <trkpt lat="43.92259" lon="5.43797">
        <ele>341.649</ele>
        <time>2021-02-21T12:38:38Z</time>
      </trkpt>
      <trkpt lat="43.92263" lon="5.43797">
        <ele>341.802</ele>
        <time>2021-02-21T12:38:39Z</time>
      </trkpt>
      <trkpt lat="43.92284" lon="5.43795">
        <ele>342.222</ele>
        <time>2021-02-21T12:38:43Z</time>
      </trkpt>
      <trkpt lat="43.92296" lon="5.43795">
        <ele>342.408</ele>
        <time>2021-02-21T12:38:45Z</time>
      </trkpt>
      <trkpt lat="43.9231" lon="5.43798">
        <ele>342.48</ele>
        <time>2021-02-21T12:38:47Z</time>
      </trkpt>
      <trkpt lat="43.92323" lon="5.43803">
        <ele>342.48</ele>
        <time>2021-02-21T12:38:49Z</time>
      </trkpt>
      <trkpt lat="43.92337" lon="5.43806">
        <ele>342.437</ele>
        <time>2021-02-21T12:38:51Z</time>
      </trkpt>
      <trkpt lat="43.92345" lon="5.43808">
        <ele>342.456</ele>
        <time>2021-02-21T12:38:52Z</time>
      </trkpt>
      <trkpt lat="43.92368" lon="5.43813">
        <ele>342.437</ele>
        <time>2021-02-21T12:38:55Z</time>
      </trkpt>
      <trkpt lat="43.92412" lon="5.43823">
        <ele>341.898</ele>
        <time>2021-02-21T12:39:00Z</time>
      </trkpt>
      <trkpt lat="43.92437" lon="5.43833">
        <ele>341.062</ele>
        <time>2021-02-21T12:39:03Z</time>
      </trkpt>
      <trkpt lat="43.92441" lon="5.43834">
        <ele>340.673</ele>
        <time>2021-02-21T12:39:05Z</time>
      </trkpt>
      <trkpt lat="43.92441" lon="5.43834">
        <ele>340.436</ele>
        <time>2021-02-21T12:39:15Z</time>
      </trkpt>
      <trkpt lat="43.92442" lon="5.43835">
        <ele>339.617</ele>
        <time>2021-02-21T12:39:24Z</time>
      </trkpt>
      <trkpt lat="43.92439" lon="5.43835">
        <ele>339.218</ele>
        <time>2021-02-21T12:39:28Z</time>
      </trkpt>
      <trkpt lat="43.92439" lon="5.43835">
        <ele>337.808</ele>
        <time>2021-02-21T12:39:51Z</time>
      </trkpt>
      <trkpt lat="43.9244" lon="5.43835">
        <ele>337.049</ele>
        <time>2021-02-21T12:40:02Z</time>
      </trkpt>
      <trkpt lat="43.92441" lon="5.43835">
        <ele>336.669</ele>
        <time>2021-02-21T12:40:15Z</time>
      </trkpt>
      <trkpt lat="43.92442" lon="5.43834">
        <ele>336.426</ele>
        <time>2021-02-21T12:40:18Z</time>
      </trkpt>
      <trkpt lat="43.92447" lon="5.43837">
        <ele>336.445</ele>
        <time>2021-02-21T12:40:20Z</time>
      </trkpt>
      <trkpt lat="43.92466" lon="5.43842">
        <ele>336.036</ele>
        <time>2021-02-21T12:40:25Z</time>
      </trkpt>
      <trkpt lat="43.92491" lon="5.43851">
        <ele>335.437</ele>
        <time>2021-02-21T12:40:30Z</time>
      </trkpt>
      <trkpt lat="43.92525" lon="5.43862">
        <ele>334.631</ele>
        <time>2021-02-21T12:40:35Z</time>
      </trkpt>
      <trkpt lat="43.92541" lon="5.43869">
        <ele>334.082</ele>
        <time>2021-02-21T12:40:38Z</time>
      </trkpt>
      <trkpt lat="43.92545" lon="5.43869">
        <ele>333.821</ele>
        <time>2021-02-21T12:40:39Z</time>
      </trkpt>
      <trkpt lat="43.92548" lon="5.43868">
        <ele>333.841</ele>
        <time>2021-02-21T12:40:42Z</time>
      </trkpt>
      <trkpt lat="43.92548" lon="5.43868">
        <ele>332.605</ele>
        <time>2021-02-21T12:40:57Z</time>
      </trkpt>
      <trkpt lat="43.92548" lon="5.43868">
        <ele>331.808</ele>
        <time>2021-02-21T12:41:05Z</time>
      </trkpt>
      <trkpt lat="43.92548" lon="5.43867">
        <ele>331.638</ele>
        <time>2021-02-21T12:41:07Z</time>
      </trkpt>
      <trkpt lat="43.9255" lon="5.43861">
        <ele>331.438</ele>
        <time>2021-02-21T12:41:10Z</time>
      </trkpt>
      <trkpt lat="43.92548" lon="5.43842">
        <ele>331.095</ele>
        <time>2021-02-21T12:41:16Z</time>
      </trkpt>
      <trkpt lat="43.92544" lon="5.43817">
        <ele>331.084</ele>
        <time>2021-02-21T12:41:24Z</time>
      </trkpt>
      <trkpt lat="43.92541" lon="5.43791">
        <ele>331.065</ele>
        <time>2021-02-21T12:41:32Z</time>
      </trkpt>
      <trkpt lat="43.9254" lon="5.43762">
        <ele>331.076</ele>
        <time>2021-02-21T12:41:41Z</time>
      </trkpt>
      <trkpt lat="43.92541" lon="5.43729">
        <ele>331.21</ele>
        <time>2021-02-21T12:41:51Z</time>
      </trkpt>
      <trkpt lat="43.92542" lon="5.43701">
        <ele>331.611</ele>
        <time>2021-02-21T12:41:59Z</time>
      </trkpt>
      <trkpt lat="43.92543" lon="5.43677">
        <ele>331.894</ele>
        <time>2021-02-21T12:42:06Z</time>
      </trkpt>
      <trkpt lat="43.92544" lon="5.43654">
        <ele>332.257</ele>
        <time>2021-02-21T12:42:12Z</time>
      </trkpt>
      <trkpt lat="43.92544" lon="5.43633">
        <ele>332.622</ele>
        <time>2021-02-21T12:42:18Z</time>
      </trkpt>
      <trkpt lat="43.92545" lon="5.43602">
        <ele>333.408</ele>
        <time>2021-02-21T12:42:26Z</time>
      </trkpt>
      <trkpt lat="43.92546" lon="5.43564">
        <ele>334.485</ele>
        <time>2021-02-21T12:42:36Z</time>
      </trkpt>
      <trkpt lat="43.92547" lon="5.43536">
        <ele>335.665</ele>
        <time>2021-02-21T12:42:44Z</time>
      </trkpt>
      <trkpt lat="43.92549" lon="5.43533">
        <ele>335.892</ele>
        <time>2021-02-21T12:42:45Z</time>
      </trkpt>
      <trkpt lat="43.92553" lon="5.4353">
        <ele>336.061</ele>
        <time>2021-02-21T12:42:47Z</time>
      </trkpt>
      <trkpt lat="43.92555" lon="5.43532">
        <ele>336.272</ele>
        <time>2021-02-21T12:42:48Z</time>
      </trkpt>
      <trkpt lat="43.92568" lon="5.43534">
        <ele>336.813</ele>
        <time>2021-02-21T12:42:53Z</time>
      </trkpt>
      <trkpt lat="43.92585" lon="5.43537">
        <ele>337.887</ele>
        <time>2021-02-21T12:43:00Z</time>
      </trkpt>
      <trkpt lat="43.92601" lon="5.4354">
        <ele>339.088</ele>
        <time>2021-02-21T12:43:07Z</time>
      </trkpt>
      <trkpt lat="43.92606" lon="5.43541">
        <ele>339.297</ele>
        <time>2021-02-21T12:43:09Z</time>
      </trkpt>
      <trkpt lat="43.92613" lon="5.43542">
        <ele>339.823</ele>
        <time>2021-02-21T12:43:12Z</time>
      </trkpt>
      <trkpt lat="43.92633" lon="5.43546">
        <ele>341.025</ele>
        <time>2021-02-21T12:43:20Z</time>
      </trkpt>
      <trkpt lat="43.92655" lon="5.43549">
        <ele>342.408</ele>
        <time>2021-02-21T12:43:28Z</time>
      </trkpt>
      <trkpt lat="43.92673" lon="5.43552">
        <ele>343.425</ele>
        <time>2021-02-21T12:43:34Z</time>
      </trkpt>
      <trkpt lat="43.92699" lon="5.43558">
        <ele>344.695</ele>
        <time>2021-02-21T12:43:43Z</time>
      </trkpt>
      <trkpt lat="43.92717" lon="5.4356">
        <ele>345.682</ele>
        <time>2021-02-21T12:43:49Z</time>
      </trkpt>
      <trkpt lat="43.92741" lon="5.43564">
        <ele>346.881</ele>
        <time>2021-02-21T12:43:57Z</time>
      </trkpt>
      <trkpt lat="43.9276" lon="5.43568">
        <ele>347.642</ele>
        <time>2021-02-21T12:44:03Z</time>
      </trkpt>
      <trkpt lat="43.92788" lon="5.43574">
        <ele>349.093</ele>
        <time>2021-02-21T12:44:12Z</time>
      </trkpt>
      <trkpt lat="43.9281" lon="5.4358">
        <ele>350.027</ele>
        <time>2021-02-21T12:44:19Z</time>
      </trkpt>
      <trkpt lat="43.92836" lon="5.43585">
        <ele>351.298</ele>
        <time>2021-02-21T12:44:27Z</time>
      </trkpt>
      <trkpt lat="43.92859" lon="5.4359">
        <ele>352.033</ele>
        <time>2021-02-21T12:44:34Z</time>
      </trkpt>
      <trkpt lat="43.92883" lon="5.43598">
        <ele>353.023</ele>
        <time>2021-02-21T12:44:42Z</time>
      </trkpt>
      <trkpt lat="43.92913" lon="5.43607">
        <ele>354.415</ele>
        <time>2021-02-21T12:44:52Z</time>
      </trkpt>
      <trkpt lat="43.92941" lon="5.43616">
        <ele>355.608</ele>
        <time>2021-02-21T12:45:01Z</time>
      </trkpt>
      <trkpt lat="43.92965" lon="5.43623">
        <ele>356.619</ele>
        <time>2021-02-21T12:45:09Z</time>
      </trkpt>
      <trkpt lat="43.92992" lon="5.4363">
        <ele>357.629</ele>
        <time>2021-02-21T12:45:18Z</time>
      </trkpt>
      <trkpt lat="43.93014" lon="5.43637">
        <ele>358.696</ele>
        <time>2021-02-21T12:45:25Z</time>
      </trkpt>
      <trkpt lat="43.93031" lon="5.43642">
        <ele>359.255</ele>
        <time>2021-02-21T12:45:31Z</time>
      </trkpt>
      <trkpt lat="43.93052" lon="5.43646">
        <ele>360.276</ele>
        <time>2021-02-21T12:45:39Z</time>
      </trkpt>
      <trkpt lat="43.93067" lon="5.43647">
        <ele>360.457</ele>
        <time>2021-02-21T12:45:43Z</time>
      </trkpt>
      <trkpt lat="43.93082" lon="5.43645">
        <ele>360.641</ele>
        <time>2021-02-21T12:45:47Z</time>
      </trkpt>
      <trkpt lat="43.93098" lon="5.43633">
        <ele>360.852</ele>
        <time>2021-02-21T12:45:51Z</time>
      </trkpt>
      <trkpt lat="43.93107" lon="5.43623">
        <ele>360.676</ele>
        <time>2021-02-21T12:45:53Z</time>
      </trkpt>
      <trkpt lat="43.93116" lon="5.43613">
        <ele>360.69</ele>
        <time>2021-02-21T12:45:55Z</time>
      </trkpt>
      <trkpt lat="43.93122" lon="5.43607">
        <ele>360.619</ele>
        <time>2021-02-21T12:45:56Z</time>
      </trkpt>
      <trkpt lat="43.93134" lon="5.43597">
        <ele>360.408</ele>
        <time>2021-02-21T12:45:58Z</time>
      </trkpt>
      <trkpt lat="43.93142" lon="5.43592">
        <ele>360.463</ele>
        <time>2021-02-21T12:45:59Z</time>
      </trkpt>
      <trkpt lat="43.93149" lon="5.4359">
        <ele>360.453</ele>
        <time>2021-02-21T12:46:00Z</time>
      </trkpt>
      <trkpt lat="43.93166" lon="5.43588">
        <ele>360.63</ele>
        <time>2021-02-21T12:46:02Z</time>
      </trkpt>
      <trkpt lat="43.93174" lon="5.43589">
        <ele>359.829</ele>
        <time>2021-02-21T12:46:03Z</time>
      </trkpt>
      <trkpt lat="43.93182" lon="5.43591">
        <ele>359.48</ele>
        <time>2021-02-21T12:46:04Z</time>
      </trkpt>
      <trkpt lat="43.93203" lon="5.43596">
        <ele>359.851</ele>
        <time>2021-02-21T12:46:07Z</time>
      </trkpt>
      <trkpt lat="43.93209" lon="5.43599">
        <ele>359.875</ele>
        <time>2021-02-21T12:46:08Z</time>
      </trkpt>
      <trkpt lat="43.93215" lon="5.43602">
        <ele>359.876</ele>
        <time>2021-02-21T12:46:09Z</time>
      </trkpt>
      <trkpt lat="43.9323" lon="5.43615">
        <ele>359.846</ele>
        <time>2021-02-21T12:46:12Z</time>
      </trkpt>
      <trkpt lat="43.93248" lon="5.43625">
        <ele>359.688</ele>
        <time>2021-02-21T12:46:17Z</time>
      </trkpt>
      <trkpt lat="43.93275" lon="5.43639">
        <ele>359.416</ele>
        <time>2021-02-21T12:46:25Z</time>
      </trkpt>
      <trkpt lat="43.93288" lon="5.43639">
        <ele>359.408</ele>
        <time>2021-02-21T12:46:29Z</time>
      </trkpt>
      <trkpt lat="43.9329" lon="5.43636">
        <ele>359.46</ele>
        <time>2021-02-21T12:46:30Z</time>
      </trkpt>
      <trkpt lat="43.93302" lon="5.43608">
        <ele>359.09</ele>
        <time>2021-02-21T12:46:37Z</time>
      </trkpt>
      <trkpt lat="43.93317" lon="5.43579">
        <ele>359.267</ele>
        <time>2021-02-21T12:46:45Z</time>
      </trkpt>
      <trkpt lat="43.93336" lon="5.43545">
        <ele>359.236</ele>
        <time>2021-02-21T12:46:54Z</time>
      </trkpt>
      <trkpt lat="43.93348" lon="5.43522">
        <ele>359.647</ele>
        <time>2021-02-21T12:47:00Z</time>
      </trkpt>
      <trkpt lat="43.93359" lon="5.43504">
        <ele>359.698</ele>
        <time>2021-02-21T12:47:05Z</time>
      </trkpt>
      <trkpt lat="43.93376" lon="5.43476">
        <ele>359.622</ele>
        <time>2021-02-21T12:47:12Z</time>
      </trkpt>
      <trkpt lat="43.93398" lon="5.4344">
        <ele>359.663</ele>
        <time>2021-02-21T12:47:21Z</time>
      </trkpt>
      <trkpt lat="43.93415" lon="5.43413">
        <ele>359.863</ele>
        <time>2021-02-21T12:47:27Z</time>
      </trkpt>
      <trkpt lat="43.93419" lon="5.43409">
        <ele>359.644</ele>
        <time>2021-02-21T12:47:28Z</time>
      </trkpt>
      <trkpt lat="43.93432" lon="5.43398">
        <ele>359.818</ele>
        <time>2021-02-21T12:47:31Z</time>
      </trkpt>
      <trkpt lat="43.93437" lon="5.43395">
        <ele>359.608</ele>
        <time>2021-02-21T12:47:32Z</time>
      </trkpt>
      <trkpt lat="43.93447" lon="5.43388">
        <ele>359.652</ele>
        <time>2021-02-21T12:47:34Z</time>
      </trkpt>
      <trkpt lat="43.93451" lon="5.43382">
        <ele>359.482</ele>
        <time>2021-02-21T12:47:35Z</time>
      </trkpt>
      <trkpt lat="43.93457" lon="5.43365">
        <ele>359.229</ele>
        <time>2021-02-21T12:47:37Z</time>
      </trkpt>
      <trkpt lat="43.93463" lon="5.43344">
        <ele>359.058</ele>
        <time>2021-02-21T12:47:39Z</time>
      </trkpt>
      <trkpt lat="43.93486" lon="5.43271">
        <ele>357.479</ele>
        <time>2021-02-21T12:47:46Z</time>
      </trkpt>
      <trkpt lat="43.93497" lon="5.43233">
        <ele>356.85</ele>
        <time>2021-02-21T12:47:50Z</time>
      </trkpt>
      <trkpt lat="43.935" lon="5.43228">
        <ele>356.634</ele>
        <time>2021-02-21T12:47:51Z</time>
      </trkpt>
      <trkpt lat="43.93504" lon="5.43225">
        <ele>356.495</ele>
        <time>2021-02-21T12:47:52Z</time>
      </trkpt>
      <trkpt lat="43.93513" lon="5.43226">
        <ele>356.244</ele>
        <time>2021-02-21T12:47:54Z</time>
      </trkpt>
      <trkpt lat="43.9353" lon="5.43232">
        <ele>355.605</ele>
        <time>2021-02-21T12:47:59Z</time>
      </trkpt>
      <trkpt lat="43.93545" lon="5.43233">
        <ele>355.415</ele>
        <time>2021-02-21T12:48:04Z</time>
      </trkpt>
      <trkpt lat="43.93547" lon="5.4323">
        <ele>355.408</ele>
        <time>2021-02-21T12:48:05Z</time>
      </trkpt>
      <trkpt lat="43.93548" lon="5.43222">
        <ele>355.27</ele>
        <time>2021-02-21T12:48:07Z</time>
      </trkpt>
      <trkpt lat="43.93554" lon="5.43198">
        <ele>354.84</ele>
        <time>2021-02-21T12:48:12Z</time>
      </trkpt>
      <trkpt lat="43.93563" lon="5.43169">
        <ele>354.447</ele>
        <time>2021-02-21T12:48:18Z</time>
      </trkpt>
      <trkpt lat="43.93572" lon="5.43147">
        <ele>354.276</ele>
        <time>2021-02-21T12:48:23Z</time>
      </trkpt>
      <trkpt lat="43.93588" lon="5.43116">
        <ele>353.817</ele>
        <time>2021-02-21T12:48:29Z</time>
      </trkpt>
      <trkpt lat="43.93592" lon="5.43111">
        <ele>353.848</ele>
        <time>2021-02-21T12:48:30Z</time>
      </trkpt>
      <trkpt lat="43.93609" lon="5.43085">
        <ele>353.252</ele>
        <time>2021-02-21T12:48:35Z</time>
      </trkpt>
      <trkpt lat="43.93613" lon="5.4308">
        <ele>353.213</ele>
        <time>2021-02-21T12:48:36Z</time>
      </trkpt>
      <trkpt lat="43.93631" lon="5.43051">
        <ele>352.848</ele>
        <time>2021-02-21T12:48:41Z</time>
      </trkpt>
      <trkpt lat="43.93634" lon="5.43044">
        <ele>352.661</ele>
        <time>2021-02-21T12:48:42Z</time>
      </trkpt>
      <trkpt lat="43.93635" lon="5.43037">
        <ele>352.417</ele>
        <time>2021-02-21T12:48:43Z</time>
      </trkpt>
      <trkpt lat="43.93639" lon="5.43013">
        <ele>352.208</ele>
        <time>2021-02-21T12:48:46Z</time>
      </trkpt>
      <trkpt lat="43.93642" lon="5.42971">
        <ele>351.86</ele>
        <time>2021-02-21T12:48:51Z</time>
      </trkpt>
      <trkpt lat="43.93642" lon="5.42962">
        <ele>351.67</ele>
        <time>2021-02-21T12:48:52Z</time>
      </trkpt>
      <trkpt lat="43.93641" lon="5.42946">
        <ele>351.247</ele>
        <time>2021-02-21T12:48:54Z</time>
      </trkpt>
      <trkpt lat="43.9364" lon="5.42938">
        <ele>351.276</ele>
        <time>2021-02-21T12:48:55Z</time>
      </trkpt>
      <trkpt lat="43.93635" lon="5.42907">
        <ele>350.687</ele>
        <time>2021-02-21T12:48:59Z</time>
      </trkpt>
      <trkpt lat="43.93634" lon="5.42898">
        <ele>350.698</ele>
        <time>2021-02-21T12:49:00Z</time>
      </trkpt>
      <trkpt lat="43.93625" lon="5.42848">
        <ele>349.692</ele>
        <time>2021-02-21T12:49:06Z</time>
      </trkpt>
      <trkpt lat="43.93618" lon="5.428">
        <ele>348.643</ele>
        <time>2021-02-21T12:49:12Z</time>
      </trkpt>
      <trkpt lat="43.93621" lon="5.4279">
        <ele>348.474</ele>
        <time>2021-02-21T12:49:14Z</time>
      </trkpt>
      <trkpt lat="43.93624" lon="5.42786">
        <ele>348.256</ele>
        <time>2021-02-21T12:49:15Z</time>
      </trkpt>
      <trkpt lat="43.93643" lon="5.42765">
        <ele>347.421</ele>
        <time>2021-02-21T12:49:21Z</time>
      </trkpt>
      <trkpt lat="43.93668" lon="5.42737">
        <ele>346.608</ele>
        <time>2021-02-21T12:49:29Z</time>
      </trkpt>
      <trkpt lat="43.93683" lon="5.42719">
        <ele>346.253</ele>
        <time>2021-02-21T12:49:35Z</time>
      </trkpt>
      <trkpt lat="43.93702" lon="5.42696">
        <ele>345.683</ele>
        <time>2021-02-21T12:49:43Z</time>
      </trkpt>
      <trkpt lat="43.93717" lon="5.42681">
        <ele>345.48</ele>
        <time>2021-02-21T12:49:49Z</time>
      </trkpt>
      <trkpt lat="43.9373" lon="5.42676">
        <ele>345.059</ele>
        <time>2021-02-21T12:49:54Z</time>
      </trkpt>
      <trkpt lat="43.93741" lon="5.42669">
        <ele>345.06</ele>
        <time>2021-02-21T12:50:00Z</time>
      </trkpt>
      <trkpt lat="43.93754" lon="5.42661">
        <ele>344.651</ele>
        <time>2021-02-21T12:50:04Z</time>
      </trkpt>
      <trkpt lat="43.93762" lon="5.42656">
        <ele>346.295</ele>
        <time>2021-02-21T12:50:07Z</time>
      </trkpt>
      <trkpt lat="43.93763" lon="5.42653">
        <ele>345.686</ele>
        <time>2021-02-21T12:50:08Z</time>
      </trkpt>
      <trkpt lat="43.93764" lon="5.42627">
        <ele>346.613</ele>
        <time>2021-02-21T12:50:15Z</time>
      </trkpt>
      <trkpt lat="43.93766" lon="5.42602">
        <ele>347.043</ele>
        <time>2021-02-21T12:50:20Z</time>
      </trkpt>
      <trkpt lat="43.93767" lon="5.42584">
        <ele>347.607</ele>
        <time>2021-02-21T12:50:24Z</time>
      </trkpt>
      <trkpt lat="43.93771" lon="5.42563">
        <ele>348.208</ele>
        <time>2021-02-21T12:50:29Z</time>
      </trkpt>
      <trkpt lat="43.93769" lon="5.42541">
        <ele>348.847</ele>
        <time>2021-02-21T12:50:34Z</time>
      </trkpt>
      <trkpt lat="43.93763" lon="5.42519">
        <ele>349.467</ele>
        <time>2021-02-21T12:50:39Z</time>
      </trkpt>
      <trkpt lat="43.93756" lon="5.42504">
        <ele>349.864</ele>
        <time>2021-02-21T12:50:42Z</time>
      </trkpt>
      <trkpt lat="43.93754" lon="5.425">
        <ele>350.093</ele>
        <time>2021-02-21T12:50:43Z</time>
      </trkpt>
      <trkpt lat="43.93741" lon="5.42481">
        <ele>350.664</ele>
        <time>2021-02-21T12:50:48Z</time>
      </trkpt>
      <trkpt lat="43.93726" lon="5.42457">
        <ele>351.275</ele>
        <time>2021-02-21T12:50:54Z</time>
      </trkpt>
      <trkpt lat="43.93707" lon="5.42433">
        <ele>352.299</ele>
        <time>2021-02-21T12:51:01Z</time>
      </trkpt>
      <trkpt lat="43.93692" lon="5.42418">
        <ele>352.83</ele>
        <time>2021-02-21T12:51:06Z</time>
      </trkpt>
      <trkpt lat="43.9369" lon="5.42414">
        <ele>353.024</ele>
        <time>2021-02-21T12:51:07Z</time>
      </trkpt>
      <trkpt lat="43.93694" lon="5.42405">
        <ele>353.204</ele>
        <time>2021-02-21T12:51:09Z</time>
      </trkpt>
      <trkpt lat="43.93705" lon="5.42396">
        <ele>353.614</ele>
        <time>2021-02-21T12:51:13Z</time>
      </trkpt>
      <trkpt lat="43.9372" lon="5.42383">
        <ele>354.208</ele>
        <time>2021-02-21T12:51:18Z</time>
      </trkpt>
      <trkpt lat="43.93733" lon="5.42371">
        <ele>354.618</ele>
        <time>2021-02-21T12:51:22Z</time>
      </trkpt>
      <trkpt lat="43.93737" lon="5.42366">
        <ele>354.688</ele>
        <time>2021-02-21T12:51:23Z</time>
      </trkpt>
      <trkpt lat="43.93749" lon="5.42352">
        <ele>354.685</ele>
        <time>2021-02-21T12:51:26Z</time>
      </trkpt>
      <trkpt lat="43.93752" lon="5.42346">
        <ele>354.644</ele>
        <time>2021-02-21T12:51:27Z</time>
      </trkpt>
      <trkpt lat="43.93755" lon="5.4234">
        <ele>354.695</ele>
        <time>2021-02-21T12:51:28Z</time>
      </trkpt>
      <trkpt lat="43.93763" lon="5.42335">
        <ele>354.846</ele>
        <time>2021-02-21T12:51:30Z</time>
      </trkpt>
      <trkpt lat="43.93776" lon="5.42321">
        <ele>354.89</ele>
        <time>2021-02-21T12:51:35Z</time>
      </trkpt>
      <trkpt lat="43.93779" lon="5.42319">
        <ele>355.091</ele>
        <time>2021-02-21T12:51:36Z</time>
      </trkpt>
      <trkpt lat="43.93784" lon="5.42317">
        <ele>355.093</ele>
        <time>2021-02-21T12:51:38Z</time>
      </trkpt>
      <trkpt lat="43.93798" lon="5.42301">
        <ele>355.465</ele>
        <time>2021-02-21T12:51:44Z</time>
      </trkpt>
      <trkpt lat="43.9381" lon="5.42287">
        <ele>355.821</ele>
        <time>2021-02-21T12:51:49Z</time>
      </trkpt>
      <trkpt lat="43.9381" lon="5.42284">
        <ele>356.008</ele>
        <time>2021-02-21T12:51:50Z</time>
      </trkpt>
      <trkpt lat="43.93816" lon="5.4226">
        <ele>356.435</ele>
        <time>2021-02-21T12:51:55Z</time>
      </trkpt>
      <trkpt lat="43.93821" lon="5.42234">
        <ele>357.085</ele>
        <time>2021-02-21T12:52:01Z</time>
      </trkpt>
      <trkpt lat="43.93825" lon="5.42216">
        <ele>357.492</ele>
        <time>2021-02-21T12:52:06Z</time>
      </trkpt>
      <trkpt lat="43.93822" lon="5.42207">
        <ele>357.651</ele>
        <time>2021-02-21T12:52:09Z</time>
      </trkpt>
      <trkpt lat="43.9382" lon="5.42205">
        <ele>357.882</ele>
        <time>2021-02-21T12:52:10Z</time>
      </trkpt>
      <trkpt lat="43.93818" lon="5.42197">
        <ele>358.023</ele>
        <time>2021-02-21T12:52:12Z</time>
      </trkpt>
      <trkpt lat="43.93819" lon="5.42195">
        <ele>358.067</ele>
        <time>2021-02-21T12:52:13Z</time>
      </trkpt>
      <trkpt lat="43.93821" lon="5.42194">
        <ele>358.048</ele>
        <time>2021-02-21T12:52:14Z</time>
      </trkpt>
      <trkpt lat="43.93824" lon="5.42197">
        <ele>358.256</ele>
        <time>2021-02-21T12:52:16Z</time>
      </trkpt>
      <trkpt lat="43.93826" lon="5.42205">
        <ele>358.459</ele>
        <time>2021-02-21T12:52:21Z</time>
      </trkpt>
      <trkpt lat="43.93825" lon="5.42217">
        <ele>358.814</ele>
        <time>2021-02-21T12:52:24Z</time>
      </trkpt>
      <trkpt lat="43.93826" lon="5.42226">
        <ele>359.208</ele>
        <time>2021-02-21T12:52:27Z</time>
      </trkpt>
      <trkpt lat="43.93827" lon="5.42231">
        <ele>359.411</ele>
        <time>2021-02-21T12:52:29Z</time>
      </trkpt>
      <trkpt lat="43.93827" lon="5.42232">
        <ele>359.691</ele>
        <time>2021-02-21T12:52:33Z</time>
      </trkpt>
      <trkpt lat="43.93827" lon="5.42231">
        <ele>360.428</ele>
        <time>2021-02-21T12:52:42Z</time>
      </trkpt>
      <trkpt lat="43.93826" lon="5.4223">
        <ele>360.487</ele>
        <time>2021-02-21T12:52:43Z</time>
      </trkpt>
      <trkpt lat="43.93825" lon="5.42229">
        <ele>360.868</ele>
        <time>2021-02-21T12:52:47Z</time>
      </trkpt>
      <trkpt lat="43.93825" lon="5.42229">
        <ele>361.019</ele>
        <time>2021-02-21T12:52:50Z</time>
      </trkpt>
      <trkpt lat="43.93825" lon="5.4222">
        <ele>361.013</ele>
        <time>2021-02-21T12:52:53Z</time>
      </trkpt>
      <trkpt lat="43.93822" lon="5.42194">
        <ele>361.234</ele>
        <time>2021-02-21T12:52:59Z</time>
      </trkpt>
      <trkpt lat="43.93824" lon="5.42186">
        <ele>361.284</ele>
        <time>2021-02-21T12:53:01Z</time>
      </trkpt>
      <trkpt lat="43.93825" lon="5.42184">
        <ele>361.207</ele>
        <time>2021-02-21T12:53:02Z</time>
      </trkpt>
      <trkpt lat="43.93831" lon="5.42167">
        <ele>361.417</ele>
        <time>2021-02-21T12:53:07Z</time>
      </trkpt>
      <trkpt lat="43.93839" lon="5.42154">
        <ele>362.008</ele>
        <time>2021-02-21T12:53:12Z</time>
      </trkpt>
      <trkpt lat="43.9385" lon="5.42143">
        <ele>362.624</ele>
        <time>2021-02-21T12:53:18Z</time>
      </trkpt>
      <trkpt lat="43.93852" lon="5.42143">
        <ele>362.664</ele>
        <time>2021-02-21T12:53:19Z</time>
      </trkpt>
      <trkpt lat="43.93854" lon="5.42145">
        <ele>362.861</ele>
        <time>2021-02-21T12:53:21Z</time>
      </trkpt>
      <trkpt lat="43.93854" lon="5.42147">
        <ele>363.03</ele>
        <time>2021-02-21T12:53:22Z</time>
      </trkpt>
      <trkpt lat="43.93855" lon="5.42156">
        <ele>363.461</ele>
        <time>2021-02-21T12:53:26Z</time>
      </trkpt>
      <trkpt lat="43.93856" lon="5.42179">
        <ele>364.272</ele>
        <time>2021-02-21T12:53:33Z</time>
      </trkpt>
      <trkpt lat="43.93861" lon="5.42205">
        <ele>364.876</ele>
        <time>2021-02-21T12:53:40Z</time>
      </trkpt>
      <trkpt lat="43.93865" lon="5.42226">
        <ele>365.487</ele>
        <time>2021-02-21T12:53:45Z</time>
      </trkpt>
      <trkpt lat="43.93873" lon="5.42252">
        <ele>366.241</ele>
        <time>2021-02-21T12:53:52Z</time>
      </trkpt>
      <trkpt lat="43.93883" lon="5.42275">
        <ele>367.281</ele>
        <time>2021-02-21T12:53:59Z</time>
      </trkpt>
      <trkpt lat="43.93887" lon="5.4229">
        <ele>367.609</ele>
        <time>2021-02-21T12:54:03Z</time>
      </trkpt>
      <trkpt lat="43.9389" lon="5.42292">
        <ele>367.608</ele>
        <time>2021-02-21T12:54:04Z</time>
      </trkpt>
      <trkpt lat="43.93905" lon="5.42304">
        <ele>368.63</ele>
        <time>2021-02-21T12:54:10Z</time>
      </trkpt>
      <trkpt lat="43.9391" lon="5.42317">
        <ele>369.42</ele>
        <time>2021-02-21T12:54:15Z</time>
      </trkpt>
      <trkpt lat="43.9391" lon="5.42318">
        <ele>369.617</ele>
        <time>2021-02-21T12:54:16Z</time>
      </trkpt>
      <trkpt lat="43.9391" lon="5.42318">
        <ele>370.416</ele>
        <time>2021-02-21T12:54:24Z</time>
      </trkpt>
      <trkpt lat="43.9391" lon="5.42318">
        <ele>371.617</ele>
        <time>2021-02-21T12:54:36Z</time>
      </trkpt>
      <trkpt lat="43.93911" lon="5.42319">
        <ele>371.828</ele>
        <time>2021-02-21T12:54:37Z</time>
      </trkpt>
      <trkpt lat="43.93916" lon="5.42331">
        <ele>372.252</ele>
        <time>2021-02-21T12:54:42Z</time>
      </trkpt>
      <trkpt lat="43.93926" lon="5.42351">
        <ele>373.093</ele>
        <time>2021-02-21T12:54:49Z</time>
      </trkpt>
      <trkpt lat="43.93928" lon="5.42373">
        <ele>373.831</ele>
        <time>2021-02-21T12:54:54Z</time>
      </trkpt>
      <trkpt lat="43.93939" lon="5.42391">
        <ele>375.261</ele>
        <time>2021-02-21T12:55:00Z</time>
      </trkpt>
      <trkpt lat="43.93958" lon="5.42412">
        <ele>377.207</ele>
        <time>2021-02-21T12:55:08Z</time>
      </trkpt>
      <trkpt lat="43.93966" lon="5.42432">
        <ele>378.608</ele>
        <time>2021-02-21T12:55:14Z</time>
      </trkpt>
      <trkpt lat="43.93971" lon="5.42449">
        <ele>379.899</ele>
        <time>2021-02-21T12:55:19Z</time>
      </trkpt>
      <trkpt lat="43.93979" lon="5.42467">
        <ele>381.019</ele>
        <time>2021-02-21T12:55:25Z</time>
      </trkpt>
      <trkpt lat="43.93987" lon="5.42481">
        <ele>382.256</ele>
        <time>2021-02-21T12:55:30Z</time>
      </trkpt>
      <trkpt lat="43.9399" lon="5.42496">
        <ele>383.695</ele>
        <time>2021-02-21T12:55:35Z</time>
      </trkpt>
      <trkpt lat="43.93992" lon="5.42516">
        <ele>385.216</ele>
        <time>2021-02-21T12:55:41Z</time>
      </trkpt>
      <trkpt lat="43.93993" lon="5.42533">
        <ele>386.647</ele>
        <time>2021-02-21T12:55:46Z</time>
      </trkpt>
      <trkpt lat="43.93994" lon="5.42546">
        <ele>387.641</ele>
        <time>2021-02-21T12:55:50Z</time>
      </trkpt>
      <trkpt lat="43.93995" lon="5.42549">
        <ele>387.832</ele>
        <time>2021-02-21T12:55:51Z</time>
      </trkpt>
      <trkpt lat="43.93999" lon="5.42566">
        <ele>389.221</ele>
        <time>2021-02-21T12:55:57Z</time>
      </trkpt>
      <trkpt lat="43.94007" lon="5.42586">
        <ele>390.841</ele>
        <time>2021-02-21T12:56:04Z</time>
      </trkpt>
      <trkpt lat="43.94017" lon="5.42595">
        <ele>392.205</ele>
        <time>2021-02-21T12:56:09Z</time>
      </trkpt>
      <trkpt lat="43.94031" lon="5.42595">
        <ele>394.008</ele>
        <time>2021-02-21T12:56:15Z</time>
      </trkpt>
      <trkpt lat="43.94044" lon="5.42597">
        <ele>395.828</ele>
        <time>2021-02-21T12:56:21Z</time>
      </trkpt>
      <trkpt lat="43.94061" lon="5.42599">
        <ele>397.858</ele>
        <time>2021-02-21T12:56:28Z</time>
      </trkpt>
      <trkpt lat="43.94074" lon="5.42592">
        <ele>399.475</ele>
        <time>2021-02-21T12:56:34Z</time>
      </trkpt>
      <trkpt lat="43.94082" lon="5.42575">
        <ele>401.224</ele>
        <time>2021-02-21T12:56:40Z</time>
      </trkpt>
      <trkpt lat="43.94083" lon="5.42572">
        <ele>401.415</ele>
        <time>2021-02-21T12:56:41Z</time>
      </trkpt>
      <trkpt lat="43.94089" lon="5.4256">
        <ele>402.436</ele>
        <time>2021-02-21T12:56:45Z</time>
      </trkpt>
      <trkpt lat="43.941" lon="5.42545">
        <ele>403.86</ele>
        <time>2021-02-21T12:56:51Z</time>
      </trkpt>
      <trkpt lat="43.94115" lon="5.42527">
        <ele>405.811</ele>
        <time>2021-02-21T12:56:59Z</time>
      </trkpt>
      <trkpt lat="43.94124" lon="5.42505">
        <ele>407.476</ele>
        <time>2021-02-21T12:57:06Z</time>
      </trkpt>
      <trkpt lat="43.94129" lon="5.42481">
        <ele>409.09</ele>
        <time>2021-02-21T12:57:13Z</time>
      </trkpt>
      <trkpt lat="43.94139" lon="5.42458">
        <ele>410.819</ele>
        <time>2021-02-21T12:57:20Z</time>
      </trkpt>
      <trkpt lat="43.94151" lon="5.42439">
        <ele>412.608</ele>
        <time>2021-02-21T12:57:27Z</time>
      </trkpt>
      <trkpt lat="43.9417" lon="5.42419">
        <ele>414.673</ele>
        <time>2021-02-21T12:57:35Z</time>
      </trkpt>
      <trkpt lat="43.94181" lon="5.42413">
        <ele>415.653</ele>
        <time>2021-02-21T12:57:39Z</time>
      </trkpt>
      <trkpt lat="43.94199" lon="5.42405">
        <ele>417.47</ele>
        <time>2021-02-21T12:57:45Z</time>
      </trkpt>
      <trkpt lat="43.9422" lon="5.42391">
        <ele>419.859</ele>
        <time>2021-02-21T12:57:53Z</time>
      </trkpt>
      <trkpt lat="43.94241" lon="5.42377">
        <ele>422.02</ele>
        <time>2021-02-21T12:58:01Z</time>
      </trkpt>
      <trkpt lat="43.94255" lon="5.42369">
        <ele>424.051</ele>
        <time>2021-02-21T12:58:08Z</time>
      </trkpt>
      <trkpt lat="43.94261" lon="5.4236">
        <ele>425.095</ele>
        <time>2021-02-21T12:58:12Z</time>
      </trkpt>
      <trkpt lat="43.94261" lon="5.42356">
        <ele>425.436</ele>
        <time>2021-02-21T12:58:13Z</time>
      </trkpt>
      <trkpt lat="43.9426" lon="5.42353">
        <ele>425.631</ele>
        <time>2021-02-21T12:58:14Z</time>
      </trkpt>
      <trkpt lat="43.94254" lon="5.42345">
        <ele>426.261</ele>
        <time>2021-02-21T12:58:17Z</time>
      </trkpt>
      <trkpt lat="43.94253" lon="5.42324">
        <ele>427.407</ele>
        <time>2021-02-21T12:58:23Z</time>
      </trkpt>
      <trkpt lat="43.94258" lon="5.42306">
        <ele>429.008</ele>
        <time>2021-02-21T12:58:29Z</time>
      </trkpt>
      <trkpt lat="43.94267" lon="5.42293">
        <ele>430.419</ele>
        <time>2021-02-21T12:58:35Z</time>
      </trkpt>
      <trkpt lat="43.94275" lon="5.42292">
        <ele>431.479</ele>
        <time>2021-02-21T12:58:39Z</time>
      </trkpt>
      <trkpt lat="43.94286" lon="5.42301">
        <ele>433.296</ele>
        <time>2021-02-21T12:58:45Z</time>
      </trkpt>
      <trkpt lat="43.94295" lon="5.42311">
        <ele>434.475</ele>
        <time>2021-02-21T12:58:50Z</time>
      </trkpt>
      <trkpt lat="43.94306" lon="5.42323">
        <ele>436.076</ele>
        <time>2021-02-21T12:58:56Z</time>
      </trkpt>
      <trkpt lat="43.94319" lon="5.42335">
        <ele>438.027</ele>
        <time>2021-02-21T12:59:03Z</time>
      </trkpt>
      <trkpt lat="43.94329" lon="5.42344">
        <ele>439.431</ele>
        <time>2021-02-21T12:59:08Z</time>
      </trkpt>
      <trkpt lat="43.94344" lon="5.4236">
        <ele>441.612</ele>
        <time>2021-02-21T12:59:16Z</time>
      </trkpt>
      <trkpt lat="43.94354" lon="5.42368">
        <ele>443.288</ele>
        <time>2021-02-21T12:59:21Z</time>
      </trkpt>
      <trkpt lat="43.94364" lon="5.42381">
        <ele>445.024</ele>
        <time>2021-02-21T12:59:27Z</time>
      </trkpt>
      <trkpt lat="43.94365" lon="5.42383">
        <ele>445.226</ele>
        <time>2021-02-21T12:59:28Z</time>
      </trkpt>
      <trkpt lat="43.94364" lon="5.42392">
        <ele>446.008</ele>
        <time>2021-02-21T12:59:31Z</time>
      </trkpt>
      <trkpt lat="43.94358" lon="5.42406">
        <ele>447.474</ele>
        <time>2021-02-21T12:59:37Z</time>
      </trkpt>
      <trkpt lat="43.94355" lon="5.42411">
        <ele>448.494</ele>
        <time>2021-02-21T12:59:41Z</time>
      </trkpt>
      <trkpt lat="43.94355" lon="5.42411">
        <ele>450.481</ele>
        <time>2021-02-21T12:59:51Z</time>
      </trkpt>
      <trkpt lat="43.94355" lon="5.42411">
        <ele>453.26</ele>
        <time>2021-02-21T13:00:06Z</time>
      </trkpt>
      <trkpt lat="43.94355" lon="5.42411">
        <ele>454.011</ele>
        <time>2021-02-21T13:00:11Z</time>
      </trkpt>
      <trkpt lat="43.94353" lon="5.42414">
        <ele>454.452</ele>
        <time>2021-02-21T13:00:14Z</time>
      </trkpt>
      <trkpt lat="43.94348" lon="5.42425">
        <ele>455.216</ele>
        <time>2021-02-21T13:00:19Z</time>
      </trkpt>
      <trkpt lat="43.94347" lon="5.42429">
        <ele>455.217</ele>
        <time>2021-02-21T13:00:20Z</time>
      </trkpt>
      <trkpt lat="43.94349" lon="5.42435">
        <ele>455.671</ele>
        <time>2021-02-21T13:00:22Z</time>
      </trkpt>
      <trkpt lat="43.94351" lon="5.42437">
        <ele>455.841</ele>
        <time>2021-02-21T13:00:23Z</time>
      </trkpt>
      <trkpt lat="43.94354" lon="5.42438">
        <ele>456.015</ele>
        <time>2021-02-21T13:00:24Z</time>
      </trkpt>
      <trkpt lat="43.94359" lon="5.42434">
        <ele>456.808</ele>
        <time>2021-02-21T13:00:27Z</time>
      </trkpt>
      <trkpt lat="43.94369" lon="5.42428">
        <ele>457.623</ele>
        <time>2021-02-21T13:00:32Z</time>
      </trkpt>
      <trkpt lat="43.94371" lon="5.42427">
        <ele>457.883</ele>
        <time>2021-02-21T13:00:33Z</time>
      </trkpt>
      <trkpt lat="43.94385" lon="5.42418">
        <ele>459.21</ele>
        <time>2021-02-21T13:00:40Z</time>
      </trkpt>
      <trkpt lat="43.94403" lon="5.42417">
        <ele>460.659</ele>
        <time>2021-02-21T13:00:47Z</time>
      </trkpt>
      <trkpt lat="43.94411" lon="5.42411">
        <ele>461.68</ele>
        <time>2021-02-21T13:00:51Z</time>
      </trkpt>
      <trkpt lat="43.94415" lon="5.42396">
        <ele>462.491</ele>
        <time>2021-02-21T13:00:56Z</time>
      </trkpt>
      <trkpt lat="43.94415" lon="5.42378">
        <ele>463.485</ele>
        <time>2021-02-21T13:01:01Z</time>
      </trkpt>
      <trkpt lat="43.94415" lon="5.42358">
        <ele>464.216</ele>
        <time>2021-02-21T13:01:06Z</time>
      </trkpt>
      <trkpt lat="43.94419" lon="5.42334">
        <ele>465.421</ele>
        <time>2021-02-21T13:01:13Z</time>
      </trkpt>
      <trkpt lat="43.94422" lon="5.42309">
        <ele>466.441</ele>
        <time>2021-02-21T13:01:19Z</time>
      </trkpt>
      <trkpt lat="43.94423" lon="5.42287">
        <ele>467.205</ele>
        <time>2021-02-21T13:01:24Z</time>
      </trkpt>
      <trkpt lat="43.94426" lon="5.42258">
        <ele>468.008</ele>
        <time>2021-02-21T13:01:31Z</time>
      </trkpt>
      <trkpt lat="43.9443" lon="5.4224">
        <ele>468.878</ele>
        <time>2021-02-21T13:01:36Z</time>
      </trkpt>
      <trkpt lat="43.94436" lon="5.42216">
        <ele>469.818</ele>
        <time>2021-02-21T13:01:43Z</time>
      </trkpt>
      <trkpt lat="43.94444" lon="5.42198">
        <ele>470.675</ele>
        <time>2021-02-21T13:01:49Z</time>
      </trkpt>
      <trkpt lat="43.94458" lon="5.42169">
        <ele>471.875</ele>
        <time>2021-02-21T13:01:57Z</time>
      </trkpt>
      <trkpt lat="43.94465" lon="5.42168">
        <ele>481.857</ele>
        <time>2021-02-21T13:03:20Z</time>
      </trkpt>
      <trkpt lat="43.94465" lon="5.42169">
        <ele>482.622</ele>
        <time>2021-02-21T13:03:32Z</time>
      </trkpt>
      <trkpt lat="43.94465" lon="5.42169">
        <ele>483.408</ele>
        <time>2021-02-21T13:03:53Z</time>
      </trkpt>
      <trkpt lat="43.94466" lon="5.42169">
        <ele>484.085</ele>
        <time>2021-02-21T13:04:13Z</time>
      </trkpt>
      <trkpt lat="43.94465" lon="5.42168">
        <ele>484.075</ele>
        <time>2021-02-21T13:04:19Z</time>
      </trkpt>
      <trkpt lat="43.94465" lon="5.42168">
        <ele>484.212</ele>
        <time>2021-02-21T13:04:31Z</time>
      </trkpt>
      <trkpt lat="43.94465" lon="5.42168">
        <ele>484.461</ele>
        <time>2021-02-21T13:04:39Z</time>
      </trkpt>
      <trkpt lat="43.94465" lon="5.42168">
        <ele>484.692</ele>
        <time>2021-02-21T13:04:57Z</time>
      </trkpt>
      <trkpt lat="43.94465" lon="5.42167">
        <ele>484.853</ele>
        <time>2021-02-21T13:05:14Z</time>
      </trkpt>
      <trkpt lat="43.94463" lon="5.42163">
        <ele>484.877</ele>
        <time>2021-02-21T13:05:16Z</time>
      </trkpt>
      <trkpt lat="43.9446" lon="5.42162">
        <ele>484.878</ele>
        <time>2021-02-21T13:05:18Z</time>
      </trkpt>
      <trkpt lat="43.94459" lon="5.42161">
        <ele>484.811</ele>
        <time>2021-02-21T13:05:19Z</time>
      </trkpt>
      <trkpt lat="43.94458" lon="5.42158">
        <ele>484.821</ele>
        <time>2021-02-21T13:05:22Z</time>
      </trkpt>
      <trkpt lat="43.94458" lon="5.42158">
        <ele>484.803</ele>
        <time>2021-02-21T13:05:34Z</time>
      </trkpt>
      <trkpt lat="43.94458" lon="5.42158">
        <ele>484.808</ele>
        <time>2021-02-21T13:05:44Z</time>
      </trkpt>
      <trkpt lat="43.94461" lon="5.42155">
        <ele>484.667</ele>
        <time>2021-02-21T13:05:50Z</time>
      </trkpt>
      <trkpt lat="43.94461" lon="5.42154">
        <ele>484.677</ele>
        <time>2021-02-21T13:05:55Z</time>
      </trkpt>
      <trkpt lat="43.94461" lon="5.42154">
        <ele>484.464</ele>
        <time>2021-02-21T13:06:13Z</time>
      </trkpt>
      <trkpt lat="43.94461" lon="5.42154">
        <ele>484.443</ele>
        <time>2021-02-21T13:06:27Z</time>
      </trkpt>
      <trkpt lat="43.94461" lon="5.42154">
        <ele>484.654</ele>
        <time>2021-02-21T13:06:50Z</time>
      </trkpt>
      <trkpt lat="43.94461" lon="5.42155">
        <ele>484.895</ele>
        <time>2021-02-21T13:07:28Z</time>
      </trkpt>
      <trkpt lat="43.94462" lon="5.42155">
        <ele>485.079</ele>
        <time>2021-02-21T13:07:56Z</time>
      </trkpt>
      <trkpt lat="43.94462" lon="5.42155">
        <ele>485.26</ele>
        <time>2021-02-21T13:08:30Z</time>
      </trkpt>
      <trkpt lat="43.94461" lon="5.42154">
        <ele>485.443</ele>
        <time>2021-02-21T13:09:13Z</time>
      </trkpt>
      <trkpt lat="43.94461" lon="5.42154">
        <ele>485.464</ele>
        <time>2021-02-21T13:09:47Z</time>
      </trkpt>
      <trkpt lat="43.94461" lon="5.42154">
        <ele>485.21</ele>
        <time>2021-02-21T13:10:22Z</time>
      </trkpt>
      <trkpt lat="43.94461" lon="5.42154">
        <ele>485.008</ele>
        <time>2021-02-21T13:10:55Z</time>
      </trkpt>
      <trkpt lat="43.94461" lon="5.42154">
        <ele>485.02</ele>
        <time>2021-02-21T13:11:32Z</time>
      </trkpt>
      <trkpt lat="43.94461" lon="5.42154">
        <ele>484.83</ele>
        <time>2021-02-21T13:12:02Z</time>
      </trkpt>
      <trkpt lat="43.94461" lon="5.42154">
        <ele>484.847</ele>
        <time>2021-02-21T13:12:31Z</time>
      </trkpt>
      <trkpt lat="43.94461" lon="5.42154">
        <ele>484.816</ele>
        <time>2021-02-21T13:13:00Z</time>
      </trkpt>
      <trkpt lat="43.94461" lon="5.42154">
        <ele>484.867</ele>
        <time>2021-02-21T13:13:33Z</time>
      </trkpt>
      <trkpt lat="43.94461" lon="5.42154">
        <ele>484.888</ele>
        <time>2021-02-21T13:14:04Z</time>
      </trkpt>
      <trkpt lat="43.94461" lon="5.42154">
        <ele>484.632</ele>
        <time>2021-02-21T13:14:38Z</time>
      </trkpt>
      <trkpt lat="43.94461" lon="5.42154">
        <ele>484.613</ele>
        <time>2021-02-21T13:15:06Z</time>
      </trkpt>
      <trkpt lat="43.94461" lon="5.42154">
        <ele>484.862</ele>
        <time>2021-02-21T13:15:44Z</time>
      </trkpt>
      <trkpt lat="43.94461" lon="5.42154">
        <ele>484.883</ele>
        <time>2021-02-21T13:16:19Z</time>
      </trkpt>
      <trkpt lat="43.94461" lon="5.42154">
        <ele>484.811</ele>
        <time>2021-02-21T13:16:54Z</time>
      </trkpt>
      <trkpt lat="43.94461" lon="5.42154">
        <ele>485.008</ele>
        <time>2021-02-21T13:17:23Z</time>
      </trkpt>
      <trkpt lat="43.94461" lon="5.42154">
        <ele>485.012</ele>
        <time>2021-02-21T13:17:49Z</time>
      </trkpt>
      <trkpt lat="43.94461" lon="5.42155">
        <ele>485.082</ele>
        <time>2021-02-21T13:18:22Z</time>
      </trkpt>
      <trkpt lat="43.94461" lon="5.42154">
        <ele>485.029</ele>
        <time>2021-02-21T13:19:06Z</time>
      </trkpt>
      <trkpt lat="43.94461" lon="5.42154">
        <ele>485.068</ele>
        <time>2021-02-21T13:19:36Z</time>
      </trkpt>
      <trkpt lat="43.94462" lon="5.42154">
        <ele>485.059</ele>
        <time>2021-02-21T13:20:14Z</time>
      </trkpt>
      <trkpt lat="43.94462" lon="5.42154">
        <ele>485.24</ele>
        <time>2021-02-21T13:20:47Z</time>
      </trkpt>
      <trkpt lat="43.94462" lon="5.42154">
        <ele>485.284</ele>
        <time>2021-02-21T13:21:21Z</time>
      </trkpt>
      <trkpt lat="43.94462" lon="5.42154">
        <ele>485.445</ele>
        <time>2021-02-21T13:22:04Z</time>
      </trkpt>
      <trkpt lat="43.94462" lon="5.42155">
        <ele>485.211</ele>
        <time>2021-02-21T13:22:42Z</time>
      </trkpt>
      <trkpt lat="43.94462" lon="5.42155">
        <ele>485.221</ele>
        <time>2021-02-21T13:23:22Z</time>
      </trkpt>
      <trkpt lat="43.94462" lon="5.42155">
        <ele>485.203</ele>
        <time>2021-02-21T13:24:09Z</time>
      </trkpt>
      <trkpt lat="43.94462" lon="5.42155">
        <ele>485.008</ele>
        <time>2021-02-21T13:24:53Z</time>
      </trkpt>
      <trkpt lat="43.94461" lon="5.42155">
        <ele>485.077</ele>
        <time>2021-02-21T13:25:36Z</time>
      </trkpt>
      <trkpt lat="43.94461" lon="5.42155">
        <ele>485.067</ele>
        <time>2021-02-21T13:26:13Z</time>
      </trkpt>
      <trkpt lat="43.94461" lon="5.42155">
        <ele>485.294</ele>
        <time>2021-02-21T13:27:09Z</time>
      </trkpt>
      <trkpt lat="43.94461" lon="5.42155">
        <ele>485.283</ele>
        <time>2021-02-21T13:27:56Z</time>
      </trkpt>
      <trkpt lat="43.94461" lon="5.42155">
        <ele>485.234</ele>
        <time>2021-02-21T13:28:42Z</time>
      </trkpt>
      <trkpt lat="43.94461" lon="5.42155">
        <ele>485.265</ele>
        <time>2021-02-21T13:29:29Z</time>
      </trkpt>
      <trkpt lat="43.94461" lon="5.42154">
        <ele>485.219</ele>
        <time>2021-02-21T13:30:05Z</time>
      </trkpt>
      <trkpt lat="43.94461" lon="5.42154">
        <ele>485.05</ele>
        <time>2021-02-21T13:30:46Z</time>
      </trkpt>
      <trkpt lat="43.94461" lon="5.42154">
        <ele>484.878</ele>
        <time>2021-02-21T13:31:31Z</time>
      </trkpt>
      <trkpt lat="43.94461" lon="5.42154">
        <ele>484.633</ele>
        <time>2021-02-21T13:32:16Z</time>
      </trkpt>
      <trkpt lat="43.94461" lon="5.42154">
        <ele>484.426</ele>
        <time>2021-02-21T13:33:06Z</time>
      </trkpt>
      <trkpt lat="43.94461" lon="5.42154">
        <ele>484.408</ele>
        <time>2021-02-21T13:33:41Z</time>
      </trkpt>
      <trkpt lat="43.94461" lon="5.42154">
        <ele>484.433</ele>
        <time>2021-02-21T13:34:04Z</time>
      </trkpt>
      <trkpt lat="43.94461" lon="5.42154">
        <ele>484.453</ele>
        <time>2021-02-21T13:34:29Z</time>
      </trkpt>
      <trkpt lat="43.94461" lon="5.42154">
        <ele>484.49</ele>
        <time>2021-02-21T13:34:53Z</time>
      </trkpt>
      <trkpt lat="43.94462" lon="5.42154">
        <ele>484.269</ele>
        <time>2021-02-21T13:35:20Z</time>
      </trkpt>
      <trkpt lat="43.94462" lon="5.42154">
        <ele>484.22</ele>
        <time>2021-02-21T13:35:39Z</time>
      </trkpt>
      <trkpt lat="43.94462" lon="5.42154">
        <ele>484.251</ele>
        <time>2021-02-21T13:35:58Z</time>
      </trkpt>
      <trkpt lat="43.94462" lon="5.42154">
        <ele>484.225</ele>
        <time>2021-02-21T13:36:08Z</time>
      </trkpt>
      <trkpt lat="43.94461" lon="5.42155">
        <ele>484.046</ele>
        <time>2021-02-21T13:36:24Z</time>
      </trkpt>
      <trkpt lat="43.9446" lon="5.42154">
        <ele>483.848</ele>
        <time>2021-02-21T13:36:28Z</time>
      </trkpt>
      <trkpt lat="43.9446" lon="5.42153">
        <ele>483.861</ele>
        <time>2021-02-21T13:36:39Z</time>
      </trkpt>
      <trkpt lat="43.9446" lon="5.42153">
        <ele>483.817</ele>
        <time>2021-02-21T13:36:46Z</time>
      </trkpt>
      <trkpt lat="43.9446" lon="5.42153">
        <ele>483.808</ele>
        <time>2021-02-21T13:37:02Z</time>
      </trkpt>
      <trkpt lat="43.9446" lon="5.42153">
        <ele>483.81</ele>
        <time>2021-02-21T13:37:25Z</time>
      </trkpt>
      <trkpt lat="43.9446" lon="5.42153">
        <ele>483.81</ele>
        <time>2021-02-21T13:37:42Z</time>
      </trkpt>
      <trkpt lat="43.9446" lon="5.42152">
        <ele>483.887</ele>
        <time>2021-02-21T13:38:01Z</time>
      </trkpt>
      <trkpt lat="43.94459" lon="5.42148">
        <ele>483.896</ele>
        <time>2021-02-21T13:38:03Z</time>
      </trkpt>
      <trkpt lat="43.94458" lon="5.42141">
        <ele>483.627</ele>
        <time>2021-02-21T13:38:06Z</time>
      </trkpt>
      <trkpt lat="43.94457" lon="5.42138">
        <ele>483.848</ele>
        <time>2021-02-21T13:38:07Z</time>
      </trkpt>
      <trkpt lat="43.94457" lon="5.42136">
        <ele>483.632</ele>
        <time>2021-02-21T13:38:10Z</time>
      </trkpt>
      <trkpt lat="43.94457" lon="5.42128">
        <ele>483.473</ele>
        <time>2021-02-21T13:38:15Z</time>
      </trkpt>
      <trkpt lat="43.94458" lon="5.42119">
        <ele>483.282</ele>
        <time>2021-02-21T13:38:20Z</time>
      </trkpt>
      <trkpt lat="43.94468" lon="5.4212">
        <ele>483.443</ele>
        <time>2021-02-21T13:38:26Z</time>
      </trkpt>
      <trkpt lat="43.9448" lon="5.42114">
        <ele>483.617</ele>
        <time>2021-02-21T13:38:33Z</time>
      </trkpt>
      <trkpt lat="43.94494" lon="5.42117">
        <ele>483.808</ele>
        <time>2021-02-21T13:38:40Z</time>
      </trkpt>
      <trkpt lat="43.94506" lon="5.42119">
        <ele>484.284</ele>
        <time>2021-02-21T13:38:46Z</time>
      </trkpt>
      <trkpt lat="43.94523" lon="5.42123">
        <ele>485.084</ele>
        <time>2021-02-21T13:38:55Z</time>
      </trkpt>
      <trkpt lat="43.94536" lon="5.42121">
        <ele>485.811</ele>
        <time>2021-02-21T13:39:01Z</time>
      </trkpt>
      <trkpt lat="43.94546" lon="5.42117">
        <ele>486.49</ele>
        <time>2021-02-21T13:39:06Z</time>
      </trkpt>
      <trkpt lat="43.94556" lon="5.4211">
        <ele>487.261</ele>
        <time>2021-02-21T13:39:12Z</time>
      </trkpt>
      <trkpt lat="43.94567" lon="5.42103">
        <ele>488.052</ele>
        <time>2021-02-21T13:39:18Z</time>
      </trkpt>
      <trkpt lat="43.94578" lon="5.42106">
        <ele>488.866</ele>
        <time>2021-02-21T13:39:23Z</time>
      </trkpt>
      <trkpt lat="43.94586" lon="5.42112">
        <ele>489.687</ele>
        <time>2021-02-21T13:39:29Z</time>
      </trkpt>
      <trkpt lat="43.94586" lon="5.42112">
        <ele>490.637</ele>
        <time>2021-02-21T13:39:38Z</time>
      </trkpt>
      <trkpt lat="43.94588" lon="5.4211">
        <ele>491.849</ele>
        <time>2021-02-21T13:39:50Z</time>
      </trkpt>
      <trkpt lat="43.94589" lon="5.42109">
        <ele>492.013</ele>
        <time>2021-02-21T13:39:51Z</time>
      </trkpt>
      <trkpt lat="43.94597" lon="5.42105">
        <ele>492.608</ele>
        <time>2021-02-21T13:39:56Z</time>
      </trkpt>
      <trkpt lat="43.94598" lon="5.42105">
        <ele>493.259</ele>
        <time>2021-02-21T13:40:02Z</time>
      </trkpt>
      <trkpt lat="43.94599" lon="5.42105">
        <ele>493.499</ele>
        <time>2021-02-21T13:40:06Z</time>
      </trkpt>
      <trkpt lat="43.94603" lon="5.42106">
        <ele>493.646</ele>
        <time>2021-02-21T13:40:08Z</time>
      </trkpt>
      <trkpt lat="43.94619" lon="5.42115">
        <ele>494.015</ele>
        <time>2021-02-21T13:40:13Z</time>
      </trkpt>
      <trkpt lat="43.94639" lon="5.42125">
        <ele>494.496</ele>
        <time>2021-02-21T13:40:19Z</time>
      </trkpt>
      <trkpt lat="43.94643" lon="5.42128">
        <ele>494.627</ele>
        <time>2021-02-21T13:40:21Z</time>
      </trkpt>
      <trkpt lat="43.94646" lon="5.42131">
        <ele>494.831</ele>
        <time>2021-02-21T13:40:23Z</time>
      </trkpt>
      <trkpt lat="43.94652" lon="5.42135">
        <ele>495.012</ele>
        <time>2021-02-21T13:40:28Z</time>
      </trkpt>
      <trkpt lat="43.9466" lon="5.42138">
        <ele>495.485</ele>
        <time>2021-02-21T13:40:33Z</time>
      </trkpt>
      <trkpt lat="43.9466" lon="5.42138">
        <ele>496.089</ele>
        <time>2021-02-21T13:40:45Z</time>
      </trkpt>
      <trkpt lat="43.9466" lon="5.42138">
        <ele>496.617</ele>
        <time>2021-02-21T13:40:56Z</time>
      </trkpt>
      <trkpt lat="43.94668" lon="5.42138">
        <ele>496.808</ele>
        <time>2021-02-21T13:41:01Z</time>
      </trkpt>
      <trkpt lat="43.9467" lon="5.42138">
        <ele>497.054</ele>
        <time>2021-02-21T13:41:02Z</time>
      </trkpt>
      <trkpt lat="43.94678" lon="5.42137">
        <ele>497.414</ele>
        <time>2021-02-21T13:41:07Z</time>
      </trkpt>
      <trkpt lat="43.94682" lon="5.42134">
        <ele>498.021</ele>
        <time>2021-02-21T13:41:14Z</time>
      </trkpt>
      <trkpt lat="43.94682" lon="5.42134">
        <ele>498.87</ele>
        <time>2021-02-21T13:41:31Z</time>
      </trkpt>
      <trkpt lat="43.94682" lon="5.42135">
        <ele>499.861</ele>
        <time>2021-02-21T13:41:54Z</time>
      </trkpt>
      <trkpt lat="43.94687" lon="5.42137">
        <ele>500.062</ele>
        <time>2021-02-21T13:42:00Z</time>
      </trkpt>
      <trkpt lat="43.94697" lon="5.42126">
        <ele>493.661</ele>
        <time>2021-02-21T13:46:38Z</time>
      </trkpt>
      <trkpt lat="43.94702" lon="5.42119">
        <ele>493.617</ele>
        <time>2021-02-21T13:46:42Z</time>
      </trkpt>
      <trkpt lat="43.94711" lon="5.42107">
        <ele>493.408</ele>
        <time>2021-02-21T13:46:46Z</time>
      </trkpt>
      <trkpt lat="43.94719" lon="5.42094">
        <ele>493.43</ele>
        <time>2021-02-21T13:46:50Z</time>
      </trkpt>
      <trkpt lat="43.94731" lon="5.4207">
        <ele>493.82</ele>
        <time>2021-02-21T13:46:57Z</time>
      </trkpt>
      <trkpt lat="43.94737" lon="5.42049">
        <ele>494.217</ele>
        <time>2021-02-21T13:47:01Z</time>
      </trkpt>
      <trkpt lat="43.94748" lon="5.42017">
        <ele>494.856</ele>
        <time>2021-02-21T13:47:08Z</time>
      </trkpt>
      <trkpt lat="43.94754" lon="5.41979">
        <ele>495.837</ele>
        <time>2021-02-21T13:47:16Z</time>
      </trkpt>
      <trkpt lat="43.94759" lon="5.41963">
        <ele>496.418</ele>
        <time>2021-02-21T13:47:20Z</time>
      </trkpt>
      <trkpt lat="43.94767" lon="5.41926">
        <ele>497.812</ele>
        <time>2021-02-21T13:47:28Z</time>
      </trkpt>
      <trkpt lat="43.94775" lon="5.41899">
        <ele>498.673</ele>
        <time>2021-02-21T13:47:34Z</time>
      </trkpt>
      <trkpt lat="43.94788" lon="5.41873">
        <ele>499.884</ele>
        <time>2021-02-21T13:47:41Z</time>
      </trkpt>
      <trkpt lat="43.94799" lon="5.41852">
        <ele>500.807</ele>
        <time>2021-02-21T13:47:47Z</time>
      </trkpt>
      <trkpt lat="43.94813" lon="5.41822">
        <ele>502.017</ele>
        <time>2021-02-21T13:47:55Z</time>
      </trkpt>
      <trkpt lat="43.94825" lon="5.41801">
        <ele>503.008</ele>
        <time>2021-02-21T13:48:01Z</time>
      </trkpt>
      <trkpt lat="43.94847" lon="5.41762">
        <ele>503.854</ele>
        <time>2021-02-21T13:48:09Z</time>
      </trkpt>
      <trkpt lat="43.94864" lon="5.41736">
        <ele>504.094</ele>
        <time>2021-02-21T13:48:13Z</time>
      </trkpt>
      <trkpt lat="43.94866" lon="5.41728">
        <ele>504.031</ele>
        <time>2021-02-21T13:48:14Z</time>
      </trkpt>
      <trkpt lat="43.94867" lon="5.41722">
        <ele>504.09</ele>
        <time>2021-02-21T13:48:15Z</time>
      </trkpt>
      <trkpt lat="43.94864" lon="5.4171">
        <ele>504.021</ele>
        <time>2021-02-21T13:48:17Z</time>
      </trkpt>
      <trkpt lat="43.94858" lon="5.41691">
        <ele>504.262</ele>
        <time>2021-02-21T13:48:21Z</time>
      </trkpt>
      <trkpt lat="43.94844" lon="5.4166">
        <ele>504.256</ele>
        <time>2021-02-21T13:48:28Z</time>
      </trkpt>
      <trkpt lat="43.94842" lon="5.41655">
        <ele>504.257</ele>
        <time>2021-02-21T13:48:29Z</time>
      </trkpt>
      <trkpt lat="43.94832" lon="5.41631">
        <ele>504.444</ele>
        <time>2021-02-21T13:48:34Z</time>
      </trkpt>
      <trkpt lat="43.94816" lon="5.41594">
        <ele>504.805</ele>
        <time>2021-02-21T13:48:42Z</time>
      </trkpt>
      <trkpt lat="43.9481" lon="5.4158">
        <ele>505.015</ele>
        <time>2021-02-21T13:48:46Z</time>
      </trkpt>
      <trkpt lat="43.9481" lon="5.41576">
        <ele>505.208</ele>
        <time>2021-02-21T13:48:48Z</time>
      </trkpt>
      <trkpt lat="43.94811" lon="5.41576">
        <ele>505.28</ele>
        <time>2021-02-21T13:48:49Z</time>
      </trkpt>
      <trkpt lat="43.94814" lon="5.4158">
        <ele>505.41</ele>
        <time>2021-02-21T13:48:51Z</time>
      </trkpt>
      <trkpt lat="43.94827" lon="5.41592">
        <ele>506.097</ele>
        <time>2021-02-21T13:48:57Z</time>
      </trkpt>
      <trkpt lat="43.94847" lon="5.41606">
        <ele>506.896</ele>
        <time>2021-02-21T13:49:05Z</time>
      </trkpt>
      <trkpt lat="43.94865" lon="5.41619">
        <ele>507.877</ele>
        <time>2021-02-21T13:49:12Z</time>
      </trkpt>
      <trkpt lat="43.94884" lon="5.41627">
        <ele>508.848</ele>
        <time>2021-02-21T13:49:19Z</time>
      </trkpt>
      <trkpt lat="43.94899" lon="5.41636">
        <ele>510.052</ele>
        <time>2021-02-21T13:49:25Z</time>
      </trkpt>
      <trkpt lat="43.94914" lon="5.41658">
        <ele>511.633</ele>
        <time>2021-02-21T13:49:33Z</time>
      </trkpt>
      <trkpt lat="43.94927" lon="5.4168">
        <ele>512.863</ele>
        <time>2021-02-21T13:49:40Z</time>
      </trkpt>
      <trkpt lat="43.9494" lon="5.417">
        <ele>514.244</ele>
        <time>2021-02-21T13:49:47Z</time>
      </trkpt>
      <trkpt lat="43.94958" lon="5.41726">
        <ele>516.018</ele>
        <time>2021-02-21T13:49:56Z</time>
      </trkpt>
      <trkpt lat="43.94973" lon="5.41754">
        <ele>517.608</ele>
        <time>2021-02-21T13:50:05Z</time>
      </trkpt>
      <trkpt lat="43.94972" lon="5.41774">
        <ele>518.692</ele>
        <time>2021-02-21T13:50:10Z</time>
      </trkpt>
      <trkpt lat="43.94973" lon="5.41789">
        <ele>519.612</ele>
        <time>2021-02-21T13:50:14Z</time>
      </trkpt>
      <trkpt lat="43.94975" lon="5.41791">
        <ele>519.819</ele>
        <time>2021-02-21T13:50:15Z</time>
      </trkpt>
      <trkpt lat="43.94982" lon="5.41794">
        <ele>520.428</ele>
        <time>2021-02-21T13:50:18Z</time>
      </trkpt>
      <trkpt lat="43.94998" lon="5.41792">
        <ele>522.089</ele>
        <time>2021-02-21T13:50:24Z</time>
      </trkpt>
      <trkpt lat="43.95022" lon="5.41787">
        <ele>524.25</ele>
        <time>2021-02-21T13:50:33Z</time>
      </trkpt>
      <trkpt lat="43.95045" lon="5.41782">
        <ele>526.854</ele>
        <time>2021-02-21T13:50:42Z</time>
      </trkpt>
      <trkpt lat="43.95068" lon="5.41774">
        <ele>529.415</ele>
        <time>2021-02-21T13:50:51Z</time>
      </trkpt>
      <trkpt lat="43.95085" lon="5.41765">
        <ele>531.453</ele>
        <time>2021-02-21T13:50:58Z</time>
      </trkpt>
      <trkpt lat="43.95097" lon="5.41764">
        <ele>532.804</ele>
        <time>2021-02-21T13:51:03Z</time>
      </trkpt>
      <trkpt lat="43.95099" lon="5.41766">
        <ele>533.014</ele>
        <time>2021-02-21T13:51:04Z</time>
      </trkpt>
      <trkpt lat="43.95104" lon="5.41787">
        <ele>534.608</ele>
        <time>2021-02-21T13:51:10Z</time>
      </trkpt>
      <trkpt lat="43.95099" lon="5.41807">
        <ele>536.221</ele>
        <time>2021-02-21T13:51:16Z</time>
      </trkpt>
      <trkpt lat="43.95084" lon="5.41834">
        <ele>538.651</ele>
        <time>2021-02-21T13:51:25Z</time>
      </trkpt>
      <trkpt lat="43.95076" lon="5.41852">
        <ele>540.228</ele>
        <time>2021-02-21T13:51:31Z</time>
      </trkpt>
      <trkpt lat="43.95063" lon="5.41876">
        <ele>542.667</ele>
        <time>2021-02-21T13:51:39Z</time>
      </trkpt>
      <trkpt lat="43.9506" lon="5.41886">
        <ele>543.488</ele>
        <time>2021-02-21T13:51:42Z</time>
      </trkpt>
      <trkpt lat="43.95061" lon="5.41889">
        <ele>543.659</ele>
        <time>2021-02-21T13:51:43Z</time>
      </trkpt>
      <trkpt lat="43.95063" lon="5.41891">
        <ele>544.043</ele>
        <time>2021-02-21T13:51:44Z</time>
      </trkpt>
      <trkpt lat="43.95068" lon="5.41892">
        <ele>544.694</ele>
        <time>2021-02-21T13:51:46Z</time>
      </trkpt>
      <trkpt lat="43.95088" lon="5.41883">
        <ele>547.071</ele>
        <time>2021-02-21T13:51:54Z</time>
      </trkpt>
      <trkpt lat="43.95109" lon="5.41886">
        <ele>549.441</ele>
        <time>2021-02-21T13:52:02Z</time>
      </trkpt>
      <trkpt lat="43.95123" lon="5.41889">
        <ele>551.215</ele>
        <time>2021-02-21T13:52:08Z</time>
      </trkpt>
      <trkpt lat="43.95148" lon="5.41899">
        <ele>554.208</ele>
        <time>2021-02-21T13:52:18Z</time>
      </trkpt>
      <trkpt lat="43.95164" lon="5.41904">
        <ele>556.463</ele>
        <time>2021-02-21T13:52:25Z</time>
      </trkpt>
      <trkpt lat="43.95184" lon="5.41908">
        <ele>558.843</ele>
        <time>2021-02-21T13:52:33Z</time>
      </trkpt>
      <trkpt lat="43.95204" lon="5.41913">
        <ele>561.21</ele>
        <time>2021-02-21T13:52:41Z</time>
      </trkpt>
      <trkpt lat="43.95232" lon="5.4192">
        <ele>564.449</ele>
        <time>2021-02-21T13:52:52Z</time>
      </trkpt>
      <trkpt lat="43.9525" lon="5.41925">
        <ele>566.66</ele>
        <time>2021-02-21T13:52:59Z</time>
      </trkpt>
      <trkpt lat="43.95268" lon="5.4193">
        <ele>568.621</ele>
        <time>2021-02-21T13:53:06Z</time>
      </trkpt>
      <trkpt lat="43.95287" lon="5.41936">
        <ele>571.055</ele>
        <time>2021-02-21T13:53:14Z</time>
      </trkpt>
      <trkpt lat="43.95303" lon="5.41941">
        <ele>572.666</ele>
        <time>2021-02-21T13:53:20Z</time>
      </trkpt>
      <trkpt lat="43.95321" lon="5.41947">
        <ele>574.446</ele>
        <time>2021-02-21T13:53:27Z</time>
      </trkpt>
      <trkpt lat="43.9534" lon="5.41953">
        <ele>576.288</ele>
        <time>2021-02-21T13:53:34Z</time>
      </trkpt>
      <trkpt lat="43.95343" lon="5.41952">
        <ele>577.216</ele>
        <time>2021-02-21T13:53:38Z</time>
      </trkpt>
      <trkpt lat="43.95343" lon="5.41952">
        <ele>580.208</ele>
        <time>2021-02-21T13:53:53Z</time>
      </trkpt>
      <trkpt lat="43.95343" lon="5.41952">
        <ele>582.68</ele>
        <time>2021-02-21T13:54:07Z</time>
      </trkpt>
      <trkpt lat="43.95343" lon="5.41951">
        <ele>584.23</ele>
        <time>2021-02-21T13:54:18Z</time>
      </trkpt>
      <trkpt lat="43.95343" lon="5.41951">
        <ele>586.257</ele>
        <time>2021-02-21T13:54:33Z</time>
      </trkpt>
      <trkpt lat="43.95345" lon="5.41951">
        <ele>586.866</ele>
        <time>2021-02-21T13:54:39Z</time>
      </trkpt>
      <trkpt lat="43.95347" lon="5.41951">
        <ele>587.057</ele>
        <time>2021-02-21T13:54:40Z</time>
      </trkpt>
      <trkpt lat="43.95366" lon="5.41951">
        <ele>587.448</ele>
        <time>2021-02-21T13:54:45Z</time>
      </trkpt>
      <trkpt lat="43.95396" lon="5.41949">
        <ele>587.672</ele>
        <time>2021-02-21T13:54:52Z</time>
      </trkpt>
      <trkpt lat="43.95419" lon="5.41947">
        <ele>588.093</ele>
        <time>2021-02-21T13:54:58Z</time>
      </trkpt>
      <trkpt lat="43.95451" lon="5.4194">
        <ele>588.619</ele>
        <time>2021-02-21T13:55:06Z</time>
      </trkpt>
      <trkpt lat="43.95471" lon="5.41932">
        <ele>588.809</ele>
        <time>2021-02-21T13:55:11Z</time>
      </trkpt>
      <trkpt lat="43.95476" lon="5.41931">
        <ele>589.019</ele>
        <time>2021-02-21T13:55:12Z</time>
      </trkpt>
      <trkpt lat="43.95504" lon="5.41926">
        <ele>589.008</ele>
        <time>2021-02-21T13:55:17Z</time>
      </trkpt>
      <trkpt lat="43.95524" lon="5.41923">
        <ele>589.257</ele>
        <time>2021-02-21T13:55:22Z</time>
      </trkpt>
      <trkpt lat="43.95542" lon="5.41924">
        <ele>589.457</ele>
        <time>2021-02-21T13:55:27Z</time>
      </trkpt>
      <trkpt lat="43.95564" lon="5.41928">
        <ele>590.054</ele>
        <time>2021-02-21T13:55:33Z</time>
      </trkpt>
      <trkpt lat="43.9558" lon="5.41928">
        <ele>590.453</ele>
        <time>2021-02-21T13:55:38Z</time>
      </trkpt>
      <trkpt lat="43.95603" lon="5.41931">
        <ele>591.214</ele>
        <time>2021-02-21T13:55:45Z</time>
      </trkpt>
      <trkpt lat="43.9562" lon="5.41933">
        <ele>591.635</ele>
        <time>2021-02-21T13:55:50Z</time>
      </trkpt>
      <trkpt lat="43.95635" lon="5.41933">
        <ele>592.039</ele>
        <time>2021-02-21T13:55:55Z</time>
      </trkpt>
      <trkpt lat="43.95648" lon="5.41935">
        <ele>592.88</ele>
        <time>2021-02-21T13:56:00Z</time>
      </trkpt>
      <trkpt lat="43.95696" lon="5.41955">
        <ele>607</ele>
      </trkpt>
      <trkpt lat="43.95772" lon="5.41966">
        <ele>616.3</ele>
      </trkpt>
      <trkpt lat="43.95846" lon="5.42012">
        <ele>633.7</ele>
      </trkpt>
      <trkpt lat="43.9606" lon="5.42101">
        <ele>667</ele>
      </trkpt>
      <trkpt lat="43.96063" lon="5.42103">
        <ele>643.808</ele>
        <time>2021-02-21T14:21:08Z</time>
      </trkpt>
      <trkpt lat="43.96076" lon="5.42105">
        <ele>645.659</ele>
        <time>2021-02-21T14:21:14Z</time>
      </trkpt>
      <trkpt lat="43.96082" lon="5.42104">
        <ele>646.689</ele>
        <time>2021-02-21T14:21:18Z</time>
      </trkpt>
      <trkpt lat="43.96082" lon="5.42104">
        <ele>650.016</ele>
        <time>2021-02-21T14:21:34Z</time>
      </trkpt>
      <trkpt lat="43.96089" lon="5.42103">
        <ele>651.265</ele>
        <time>2021-02-21T14:21:40Z</time>
      </trkpt>
      <trkpt lat="43.96103" lon="5.42103">
        <ele>652.466</ele>
        <time>2021-02-21T14:21:46Z</time>
      </trkpt>
      <trkpt lat="43.96123" lon="5.42104">
        <ele>653.427</ele>
        <time>2021-02-21T14:21:53Z</time>
      </trkpt>
      <trkpt lat="43.96141" lon="5.42106">
        <ele>654.231</ele>
        <time>2021-02-21T14:21:59Z</time>
      </trkpt>
      <trkpt lat="43.96161" lon="5.4211">
        <ele>655.072</ele>
        <time>2021-02-21T14:22:05Z</time>
      </trkpt>
      <trkpt lat="43.96182" lon="5.42116">
        <ele>655.859</ele>
        <time>2021-02-21T14:22:11Z</time>
      </trkpt>
      <trkpt lat="43.96208" lon="5.42125">
        <ele>656.803</ele>
        <time>2021-02-21T14:22:19Z</time>
      </trkpt>
      <trkpt lat="43.96232" lon="5.42131">
        <ele>658.023</ele>
        <time>2021-02-21T14:22:27Z</time>
      </trkpt>
      <trkpt lat="43.96257" lon="5.42137">
        <ele>659.008</ele>
        <time>2021-02-21T14:22:35Z</time>
      </trkpt>
      <trkpt lat="43.96279" lon="5.4214">
        <ele>659.891</ele>
        <time>2021-02-21T14:22:42Z</time>
      </trkpt>
      <trkpt lat="43.96303" lon="5.42145">
        <ele>660.631</ele>
        <time>2021-02-21T14:22:49Z</time>
      </trkpt>
      <trkpt lat="43.9633" lon="5.42152">
        <ele>661.048</ele>
        <time>2021-02-21T14:22:57Z</time>
      </trkpt>
      <trkpt lat="43.96349" lon="5.42155">
        <ele>661.457</ele>
        <time>2021-02-21T14:23:03Z</time>
      </trkpt>
      <trkpt lat="43.96374" lon="5.42162">
        <ele>662.038</ele>
        <time>2021-02-21T14:23:11Z</time>
      </trkpt>
      <trkpt lat="43.96395" lon="5.42168">
        <ele>662.649</ele>
        <time>2021-02-21T14:23:18Z</time>
      </trkpt>
      <trkpt lat="43.96414" lon="5.4217">
        <ele>663.683</ele>
        <time>2021-02-21T14:23:25Z</time>
      </trkpt>
      <trkpt lat="43.96423" lon="5.42169">
        <ele>665.024</ele>
        <time>2021-02-21T14:23:30Z</time>
      </trkpt>
      <trkpt lat="43.96436" lon="5.42168">
        <ele>666.062</ele>
        <time>2021-02-21T14:23:36Z</time>
      </trkpt>
      <trkpt lat="43.9645" lon="5.42168">
        <ele>666.683</ele>
        <time>2021-02-21T14:23:41Z</time>
      </trkpt>
      <trkpt lat="43.96468" lon="5.4218">
        <ele>668.011</ele>
        <time>2021-02-21T14:23:48Z</time>
      </trkpt>
      <trkpt lat="43.96481" lon="5.42179">
        <ele>669.008</ele>
        <time>2021-02-21T14:23:53Z</time>
      </trkpt>
      <trkpt lat="43.96492" lon="5.42167">
        <ele>670.432</ele>
        <time>2021-02-21T14:23:59Z</time>
      </trkpt>
      <trkpt lat="43.96494" lon="5.42164">
        <ele>671.222</ele>
        <time>2021-02-21T14:24:04Z</time>
      </trkpt>
      <trkpt lat="43.96494" lon="5.42164">
        <ele>672.439</ele>
        <time>2021-02-21T14:24:13Z</time>
      </trkpt>
      <trkpt lat="43.96494" lon="5.42164">
        <ele>674.268</ele>
        <time>2021-02-21T14:24:25Z</time>
      </trkpt>
      <trkpt lat="43.96494" lon="5.42164">
        <ele>676.479</ele>
        <time>2021-02-21T14:24:44Z</time>
      </trkpt>
      <trkpt lat="43.96494" lon="5.42164">
        <ele>677.81</ele>
        <time>2021-02-21T14:24:57Z</time>
      </trkpt>
      <trkpt lat="43.96494" lon="5.42164">
        <ele>678.634</ele>
        <time>2021-02-21T14:25:08Z</time>
      </trkpt>
      <trkpt lat="43.96494" lon="5.42164">
        <ele>679.655</ele>
        <time>2021-02-21T14:25:21Z</time>
      </trkpt>
      <trkpt lat="43.96494" lon="5.42163">
        <ele>680.615</ele>
        <time>2021-02-21T14:25:34Z</time>
      </trkpt>
      <trkpt lat="43.96494" lon="5.42161">
        <ele>680.665</ele>
        <time>2021-02-21T14:25:35Z</time>
      </trkpt>
      <trkpt lat="43.96497" lon="5.42154">
        <ele>681.011</ele>
        <time>2021-02-21T14:25:40Z</time>
      </trkpt>
      <trkpt lat="43.96497" lon="5.42154">
        <ele>681.408</ele>
        <time>2021-02-21T14:25:45Z</time>
      </trkpt>
      <trkpt lat="43.96497" lon="5.42149">
        <ele>681.627</ele>
        <time>2021-02-21T14:25:47Z</time>
      </trkpt>
      <trkpt lat="43.96502" lon="5.42131">
        <ele>682.077</ele>
        <time>2021-02-21T14:25:54Z</time>
      </trkpt>
      <trkpt lat="43.96506" lon="5.42119">
        <ele>682.464</ele>
        <time>2021-02-21T14:25:59Z</time>
      </trkpt>
      <trkpt lat="43.96509" lon="5.42111">
        <ele>682.883</ele>
        <time>2021-02-21T14:26:03Z</time>
      </trkpt>
      <trkpt lat="43.96508" lon="5.42108">
        <ele>682.824</ele>
        <time>2021-02-21T14:26:04Z</time>
      </trkpt>
      <trkpt lat="43.96506" lon="5.4209">
        <ele>683.479</ele>
        <time>2021-02-21T14:26:15Z</time>
      </trkpt>
      <trkpt lat="43.96506" lon="5.4209">
        <ele>684.22</ele>
        <time>2021-02-21T14:26:32Z</time>
      </trkpt>
      <trkpt lat="43.96506" lon="5.4209">
        <ele>684.622</ele>
        <time>2021-02-21T14:26:46Z</time>
      </trkpt>
      <trkpt lat="43.96506" lon="5.4209">
        <ele>685.262</ele>
        <time>2021-02-21T14:27:05Z</time>
      </trkpt>
      <trkpt lat="43.96506" lon="5.4209">
        <ele>685.808</ele>
        <time>2021-02-21T14:27:23Z</time>
      </trkpt>
      <trkpt lat="43.96506" lon="5.42091">
        <ele>686.008</ele>
        <time>2021-02-21T14:27:41Z</time>
      </trkpt>
      <trkpt lat="43.96506" lon="5.42091">
        <ele>686.488</ele>
        <time>2021-02-21T14:27:48Z</time>
      </trkpt>
      <trkpt lat="43.96498" lon="5.42096">
        <ele>687.016</ele>
        <time>2021-02-21T14:28:24Z</time>
      </trkpt>
      <trkpt lat="43.96497" lon="5.42097">
        <ele>687.01</ele>
        <time>2021-02-21T14:28:26Z</time>
      </trkpt>
      <trkpt lat="43.96493" lon="5.42098">
        <ele>687.091</ele>
        <time>2021-02-21T14:28:28Z</time>
      </trkpt>
      <trkpt lat="43.96489" lon="5.42095">
        <ele>686.899</ele>
        <time>2021-02-21T14:28:31Z</time>
      </trkpt>
      <trkpt lat="43.96486" lon="5.42096">
        <ele>686.807</ele>
        <time>2021-02-21T14:28:32Z</time>
      </trkpt>
      <trkpt lat="43.96478" lon="5.42103">
        <ele>686.427</ele>
        <time>2021-02-21T14:28:35Z</time>
      </trkpt>
      <trkpt lat="43.96476" lon="5.42102">
        <ele>686.208</ele>
        <time>2021-02-21T14:28:36Z</time>
      </trkpt>
      <trkpt lat="43.96467" lon="5.42084">
        <ele>685.855</ele>
        <time>2021-02-21T14:28:40Z</time>
      </trkpt>
      <trkpt lat="43.96457" lon="5.42066">
        <ele>685.225</ele>
        <time>2021-02-21T14:28:44Z</time>
      </trkpt>
      <trkpt lat="43.96455" lon="5.42062">
        <ele>685.082</ele>
        <time>2021-02-21T14:28:45Z</time>
      </trkpt>
      <trkpt lat="43.96452" lon="5.42052">
        <ele>684.681</ele>
        <time>2021-02-21T14:28:47Z</time>
      </trkpt>
      <trkpt lat="43.96444" lon="5.42038">
        <ele>683.832</ele>
        <time>2021-02-21T14:28:50Z</time>
      </trkpt>
      <trkpt lat="43.96441" lon="5.42027">
        <ele>683.473</ele>
        <time>2021-02-21T14:28:52Z</time>
      </trkpt>
      <trkpt lat="43.96437" lon="5.42022">
        <ele>683.067</ele>
        <time>2021-02-21T14:28:53Z</time>
      </trkpt>
      <trkpt lat="43.96433" lon="5.42016">
        <ele>682.828</ele>
        <time>2021-02-21T14:28:54Z</time>
      </trkpt>
      <trkpt lat="43.96428" lon="5.42004">
        <ele>682.298</ele>
        <time>2021-02-21T14:28:56Z</time>
      </trkpt>
      <trkpt lat="43.96426" lon="5.41992">
        <ele>681.815</ele>
        <time>2021-02-21T14:28:58Z</time>
      </trkpt>
      <trkpt lat="43.96425" lon="5.41986">
        <ele>681.426</ele>
        <time>2021-02-21T14:28:59Z</time>
      </trkpt>
      <trkpt lat="43.96425" lon="5.41974">
        <ele>681.008</ele>
        <time>2021-02-21T14:29:01Z</time>
      </trkpt>
      <trkpt lat="43.96425" lon="5.41963">
        <ele>680.425</ele>
        <time>2021-02-21T14:29:03Z</time>
      </trkpt>
      <trkpt lat="43.96424" lon="5.41948">
        <ele>679.845</ele>
        <time>2021-02-21T14:29:06Z</time>
      </trkpt>
      <trkpt lat="43.96427" lon="5.41934">
        <ele>679.092</ele>
        <time>2021-02-21T14:29:09Z</time>
      </trkpt>
      <trkpt lat="43.96429" lon="5.41931">
        <ele>678.891</ele>
        <time>2021-02-21T14:29:10Z</time>
      </trkpt>
      <trkpt lat="43.96434" lon="5.41925">
        <ele>678.252</ele>
        <time>2021-02-21T14:29:14Z</time>
      </trkpt>
      <trkpt lat="43.96433" lon="5.4192">
        <ele>677.263</ele>
        <time>2021-02-21T14:29:19Z</time>
      </trkpt>
      <trkpt lat="43.96428" lon="5.41911">
        <ele>676.837</ele>
        <time>2021-02-21T14:29:23Z</time>
      </trkpt>
      <trkpt lat="43.96426" lon="5.41907">
        <ele>676.238</ele>
        <time>2021-02-21T14:29:27Z</time>
      </trkpt>
      <trkpt lat="43.96426" lon="5.41907">
        <ele>674.464</ele>
        <time>2021-02-21T14:29:40Z</time>
      </trkpt>
      <trkpt lat="43.96426" lon="5.41907">
        <ele>672.606</ele>
        <time>2021-02-21T14:29:56Z</time>
      </trkpt>
      <trkpt lat="43.96426" lon="5.41907">
        <ele>670.816</ele>
        <time>2021-02-21T14:30:15Z</time>
      </trkpt>
      <trkpt lat="43.96424" lon="5.41904">
        <ele>670.808</ele>
        <time>2021-02-21T14:30:18Z</time>
      </trkpt>
      <trkpt lat="43.96423" lon="5.41902">
        <ele>670.822</ele>
        <time>2021-02-21T14:30:19Z</time>
      </trkpt>
      <trkpt lat="43.9642" lon="5.41897">
        <ele>670.672</ele>
        <time>2021-02-21T14:30:21Z</time>
      </trkpt>
      <trkpt lat="43.96421" lon="5.41894">
        <ele>670.629</ele>
        <time>2021-02-21T14:30:22Z</time>
      </trkpt>
      <trkpt lat="43.96416" lon="5.41886">
        <ele>670.638</ele>
        <time>2021-02-21T14:30:25Z</time>
      </trkpt>
      <trkpt lat="43.96412" lon="5.41881">
        <ele>670.639</ele>
        <time>2021-02-21T14:30:27Z</time>
      </trkpt>
      <trkpt lat="43.96411" lon="5.41876">
        <ele>670.43</ele>
        <time>2021-02-21T14:30:28Z</time>
      </trkpt>
      <trkpt lat="43.96412" lon="5.41871">
        <ele>670.474</ele>
        <time>2021-02-21T14:30:29Z</time>
      </trkpt>
      <trkpt lat="43.96415" lon="5.41864">
        <ele>670.485</ele>
        <time>2021-02-21T14:30:31Z</time>
      </trkpt>
      <trkpt lat="43.96414" lon="5.41859">
        <ele>670.259</ele>
        <time>2021-02-21T14:30:32Z</time>
      </trkpt>
      <trkpt lat="43.96413" lon="5.41855">
        <ele>670.203</ele>
        <time>2021-02-21T14:30:33Z</time>
      </trkpt>
      <trkpt lat="43.96411" lon="5.41852">
        <ele>670.223</ele>
        <time>2021-02-21T14:30:34Z</time>
      </trkpt>
      <trkpt lat="43.96407" lon="5.41845">
        <ele>670.008</ele>
        <time>2021-02-21T14:30:36Z</time>
      </trkpt>
      <trkpt lat="43.96403" lon="5.41843">
        <ele>670.061</ele>
        <time>2021-02-21T14:30:37Z</time>
      </trkpt>
      <trkpt lat="43.96398" lon="5.41837">
        <ele>669.661</ele>
        <time>2021-02-21T14:30:39Z</time>
      </trkpt>
      <trkpt lat="43.96392" lon="5.4182">
        <ele>669.448</ele>
        <time>2021-02-21T14:30:43Z</time>
      </trkpt>
      <trkpt lat="43.96389" lon="5.41813">
        <ele>669.297</ele>
        <time>2021-02-21T14:30:45Z</time>
      </trkpt>
      <trkpt lat="43.96386" lon="5.41811">
        <ele>669.098</ele>
        <time>2021-02-21T14:30:46Z</time>
      </trkpt>
      <trkpt lat="43.96383" lon="5.41808">
        <ele>669.069</ele>
        <time>2021-02-21T14:30:47Z</time>
      </trkpt>
      <trkpt lat="43.96382" lon="5.41798">
        <ele>668.863</ele>
        <time>2021-02-21T14:30:49Z</time>
      </trkpt>
      <trkpt lat="43.9638" lon="5.4179">
        <ele>668.614</ele>
        <time>2021-02-21T14:30:51Z</time>
      </trkpt>
      <trkpt lat="43.96381" lon="5.41783">
        <ele>668.411</ele>
        <time>2021-02-21T14:30:53Z</time>
      </trkpt>
      <trkpt lat="43.96383" lon="5.41779">
        <ele>668.221</ele>
        <time>2021-02-21T14:30:55Z</time>
      </trkpt>
      <trkpt lat="43.96385" lon="5.41773">
        <ele>667.803</ele>
        <time>2021-02-21T14:30:57Z</time>
      </trkpt>
      <trkpt lat="43.96385" lon="5.41763">
        <ele>667.408</ele>
        <time>2021-02-21T14:30:59Z</time>
      </trkpt>
      <trkpt lat="43.96383" lon="5.41759">
        <ele>667.227</ele>
        <time>2021-02-21T14:31:00Z</time>
      </trkpt>
      <trkpt lat="43.96375" lon="5.41755">
        <ele>667.027</ele>
        <time>2021-02-21T14:31:03Z</time>
      </trkpt>
      <trkpt lat="43.96366" lon="5.41754">
        <ele>666.484</ele>
        <time>2021-02-21T14:31:07Z</time>
      </trkpt>
      <trkpt lat="43.96366" lon="5.41754">
        <ele>665.893</ele>
        <time>2021-02-21T14:31:13Z</time>
      </trkpt>
      <trkpt lat="43.96366" lon="5.41754">
        <ele>664.244</ele>
        <time>2021-02-21T14:31:31Z</time>
      </trkpt>
      <trkpt lat="43.96362" lon="5.41752">
        <ele>663.455</ele>
        <time>2021-02-21T14:31:42Z</time>
      </trkpt>
      <trkpt lat="43.96355" lon="5.41746">
        <ele>663.099</ele>
        <time>2021-02-21T14:31:44Z</time>
      </trkpt>
      <trkpt lat="43.96355" lon="5.41741">
        <ele>663.02</ele>
        <time>2021-02-21T14:31:45Z</time>
      </trkpt>
      <trkpt lat="43.96356" lon="5.41732">
        <ele>662.629</ele>
        <time>2021-02-21T14:31:47Z</time>
      </trkpt>
      <trkpt lat="43.96354" lon="5.41728">
        <ele>662.6</ele>
        <time>2021-02-21T14:31:48Z</time>
      </trkpt>
      <trkpt lat="43.96349" lon="5.41707">
        <ele>661.82</ele>
        <time>2021-02-21T14:31:52Z</time>
      </trkpt>
      <trkpt lat="43.96347" lon="5.41702">
        <ele>661.608</ele>
        <time>2021-02-21T14:31:53Z</time>
      </trkpt>
      <trkpt lat="43.9634" lon="5.41692">
        <ele>661.238</ele>
        <time>2021-02-21T14:31:55Z</time>
      </trkpt>
      <trkpt lat="43.96329" lon="5.41687">
        <ele>660.638</ele>
        <time>2021-02-21T14:31:58Z</time>
      </trkpt>
      <trkpt lat="43.96317" lon="5.41691">
        <ele>659.635</ele>
        <time>2021-02-21T14:32:02Z</time>
      </trkpt>
      <trkpt lat="43.96305" lon="5.41687">
        <ele>658.624</ele>
        <time>2021-02-21T14:32:05Z</time>
      </trkpt>
      <trkpt lat="43.96296" lon="5.41683">
        <ele>657.615</ele>
        <time>2021-02-21T14:32:08Z</time>
      </trkpt>
      <trkpt lat="43.96291" lon="5.41682">
        <ele>656.866</ele>
        <time>2021-02-21T14:32:10Z</time>
      </trkpt>
      <trkpt lat="43.96289" lon="5.41683">
        <ele>656.68</ele>
        <time>2021-02-21T14:32:11Z</time>
      </trkpt>
      <trkpt lat="43.96287" lon="5.41684">
        <ele>656.291</ele>
        <time>2021-02-21T14:32:12Z</time>
      </trkpt>
      <trkpt lat="43.9628" lon="5.41681">
        <ele>655.652</ele>
        <time>2021-02-21T14:32:14Z</time>
      </trkpt>
      <trkpt lat="43.9627" lon="5.41672">
        <ele>654.853</ele>
        <time>2021-02-21T14:32:16Z</time>
      </trkpt>
      <trkpt lat="43.96265" lon="5.41669">
        <ele>654.408</ele>
        <time>2021-02-21T14:32:17Z</time>
      </trkpt>
      <trkpt lat="43.96261" lon="5.41664">
        <ele>654.008</ele>
        <time>2021-02-21T14:32:18Z</time>
      </trkpt>
      <trkpt lat="43.96254" lon="5.41657">
        <ele>653.241</ele>
        <time>2021-02-21T14:32:20Z</time>
      </trkpt>
      <trkpt lat="43.9625" lon="5.41655">
        <ele>652.691</ele>
        <time>2021-02-21T14:32:21Z</time>
      </trkpt>
      <trkpt lat="43.96247" lon="5.41652">
        <ele>652.298</ele>
        <time>2021-02-21T14:32:22Z</time>
      </trkpt>
      <trkpt lat="43.96241" lon="5.41641">
        <ele>651.487</ele>
        <time>2021-02-21T14:32:24Z</time>
      </trkpt>
      <trkpt lat="43.96233" lon="5.41632">
        <ele>650.498</ele>
        <time>2021-02-21T14:32:26Z</time>
      </trkpt>
      <trkpt lat="43.96229" lon="5.4163">
        <ele>650.049</ele>
        <time>2021-02-21T14:32:27Z</time>
      </trkpt>
      <trkpt lat="43.96222" lon="5.4163">
        <ele>649.053</ele>
        <time>2021-02-21T14:32:29Z</time>
      </trkpt>
      <trkpt lat="43.96218" lon="5.41627">
        <ele>648.664</ele>
        <time>2021-02-21T14:32:30Z</time>
      </trkpt>
      <trkpt lat="43.96209" lon="5.41622">
        <ele>647.674</ele>
        <time>2021-02-21T14:32:32Z</time>
      </trkpt>
      <trkpt lat="43.96201" lon="5.41614">
        <ele>646.456</ele>
        <time>2021-02-21T14:32:34Z</time>
      </trkpt>
      <trkpt lat="43.96189" lon="5.41606">
        <ele>645.021</ele>
        <time>2021-02-21T14:32:37Z</time>
      </trkpt>
      <trkpt lat="43.96182" lon="5.41589">
        <ele>642.808</ele>
        <time>2021-02-21T14:32:41Z</time>
      </trkpt>
      <trkpt lat="43.96171" lon="5.41574">
        <ele>641.483</ele>
        <time>2021-02-21T14:32:44Z</time>
      </trkpt>
      <trkpt lat="43.96168" lon="5.41567">
        <ele>640.823</ele>
        <time>2021-02-21T14:32:45Z</time>
      </trkpt>
      <trkpt lat="43.96164" lon="5.41559">
        <ele>640.43</ele>
        <time>2021-02-21T14:32:46Z</time>
      </trkpt>
      <trkpt lat="43.96155" lon="5.41546">
        <ele>639.489</ele>
        <time>2021-02-21T14:32:48Z</time>
      </trkpt>
      <trkpt lat="43.96148" lon="5.41534">
        <ele>638.46</ele>
        <time>2021-02-21T14:32:50Z</time>
      </trkpt>
      <trkpt lat="43.96147" lon="5.41534">
        <ele>634.045</ele>
        <time>2021-02-21T14:33:00Z</time>
      </trkpt>
      <trkpt lat="43.96148" lon="5.41536">
        <ele>633.646</ele>
        <time>2021-02-21T14:33:01Z</time>
      </trkpt>
      <trkpt lat="43.96147" lon="5.41538">
        <ele>632.443</ele>
        <time>2021-02-21T14:33:05Z</time>
      </trkpt>
      <trkpt lat="43.96147" lon="5.4154">
        <ele>630.264</ele>
        <time>2021-02-21T14:33:12Z</time>
      </trkpt>
      <trkpt lat="43.96146" lon="5.41541">
        <ele>627.81</ele>
        <time>2021-02-21T14:33:20Z</time>
      </trkpt>
      <trkpt lat="43.96146" lon="5.41543">
        <ele>627.408</ele>
        <time>2021-02-21T14:33:21Z</time>
      </trkpt>
      <trkpt lat="43.96145" lon="5.41544">
        <ele>626.49</ele>
        <time>2021-02-21T14:33:25Z</time>
      </trkpt>
      <trkpt lat="43.96145" lon="5.41543">
        <ele>625.68</ele>
        <time>2021-02-21T14:33:28Z</time>
      </trkpt>
      <trkpt lat="43.96147" lon="5.41539">
        <ele>625.057</ele>
        <time>2021-02-21T14:33:31Z</time>
      </trkpt>
      <trkpt lat="43.96147" lon="5.41536">
        <ele>624.616</ele>
        <time>2021-02-21T14:33:33Z</time>
      </trkpt>
      <trkpt lat="43.96147" lon="5.41537">
        <ele>623.272</ele>
        <time>2021-02-21T14:33:43Z</time>
      </trkpt>
      <trkpt lat="43.96147" lon="5.41537">
        <ele>622.473</ele>
        <time>2021-02-21T14:33:48Z</time>
      </trkpt>
      <trkpt lat="43.96147" lon="5.41537">
        <ele>620.645</ele>
        <time>2021-02-21T14:34:01Z</time>
      </trkpt>
      <trkpt lat="43.96147" lon="5.41537">
        <ele>619.647</ele>
        <time>2021-02-21T14:34:11Z</time>
      </trkpt>
      <trkpt lat="43.96147" lon="5.41537">
        <ele>618.811</ele>
        <time>2021-02-21T14:34:21Z</time>
      </trkpt>
      <trkpt lat="43.96147" lon="5.41537">
        <ele>617.408</ele>
        <time>2021-02-21T14:34:40Z</time>
      </trkpt>
      <trkpt lat="43.96147" lon="5.41537">
        <ele>616.88</ele>
        <time>2021-02-21T14:34:52Z</time>
      </trkpt>
      <trkpt lat="43.96147" lon="5.41537">
        <ele>616.03</ele>
        <time>2021-02-21T14:35:09Z</time>
      </trkpt>
      <trkpt lat="43.96147" lon="5.41537">
        <ele>615.457</ele>
        <time>2021-02-21T14:35:23Z</time>
      </trkpt>
      <trkpt lat="43.96147" lon="5.41537">
        <ele>615.076</ele>
        <time>2021-02-21T14:35:47Z</time>
      </trkpt>
      <trkpt lat="43.96147" lon="5.41537">
        <ele>614.857</ele>
        <time>2021-02-21T14:36:03Z</time>
      </trkpt>
      <trkpt lat="43.96147" lon="5.41541">
        <ele>614.898</ele>
        <time>2021-02-21T14:36:05Z</time>
      </trkpt>
      <trkpt lat="43.96147" lon="5.41541">
        <ele>614.842</ele>
        <time>2021-02-21T14:36:12Z</time>
      </trkpt>
      <trkpt lat="43.96147" lon="5.41541">
        <ele>614.613</ele>
        <time>2021-02-21T14:36:27Z</time>
      </trkpt>
      <trkpt lat="43.96139" lon="5.41545">
        <ele>614.623</ele>
        <time>2021-02-21T14:36:32Z</time>
      </trkpt>
      <trkpt lat="43.96121" lon="5.41549">
        <ele>614.415</ele>
        <time>2021-02-21T14:36:36Z</time>
      </trkpt>
      <trkpt lat="43.96105" lon="5.41549">
        <ele>613.808</ele>
        <time>2021-02-21T14:36:40Z</time>
      </trkpt>
      <trkpt lat="43.96103" lon="5.41551">
        <ele>613.649</ele>
        <time>2021-02-21T14:36:41Z</time>
      </trkpt>
      <trkpt lat="43.96098" lon="5.41557">
        <ele>613.089</ele>
        <time>2021-02-21T14:36:44Z</time>
      </trkpt>
      <trkpt lat="43.96098" lon="5.41557">
        <ele>612.846</ele>
        <time>2021-02-21T14:36:49Z</time>
      </trkpt>
      <trkpt lat="43.96098" lon="5.41557">
        <ele>612.435</ele>
        <time>2021-02-21T14:36:58Z</time>
      </trkpt>
      <trkpt lat="43.96098" lon="5.41557">
        <ele>611.496</ele>
        <time>2021-02-21T14:37:17Z</time>
      </trkpt>
      <trkpt lat="43.96098" lon="5.41558">
        <ele>610.497</ele>
        <time>2021-02-21T14:37:42Z</time>
      </trkpt>
      <trkpt lat="43.96098" lon="5.41558">
        <ele>609.851</ele>
        <time>2021-02-21T14:38:02Z</time>
      </trkpt>
      <trkpt lat="43.96098" lon="5.41558">
        <ele>609.472</ele>
        <time>2021-02-21T14:38:09Z</time>
      </trkpt>
      <trkpt lat="43.96096" lon="5.41556">
        <ele>609.449</ele>
        <time>2021-02-21T14:38:10Z</time>
      </trkpt>
      <trkpt lat="43.96094" lon="5.41554">
        <ele>609.202</ele>
        <time>2021-02-21T14:38:11Z</time>
      </trkpt>
      <trkpt lat="43.96086" lon="5.4155">
        <ele>609.222</ele>
        <time>2021-02-21T14:38:13Z</time>
      </trkpt>
      <trkpt lat="43.96075" lon="5.41545">
        <ele>609.008</ele>
        <time>2021-02-21T14:38:15Z</time>
      </trkpt>
      <trkpt lat="43.9607" lon="5.41541">
        <ele>608.63</ele>
        <time>2021-02-21T14:38:17Z</time>
      </trkpt>
      <trkpt lat="43.96063" lon="5.41546">
        <ele>608.05</ele>
        <time>2021-02-21T14:38:20Z</time>
      </trkpt>
      <trkpt lat="43.96057" lon="5.41548">
        <ele>607.697</ele>
        <time>2021-02-21T14:38:22Z</time>
      </trkpt>
      <trkpt lat="43.96051" lon="5.4155">
        <ele>607.246</ele>
        <time>2021-02-21T14:38:24Z</time>
      </trkpt>
      <trkpt lat="43.96042" lon="5.41546">
        <ele>606.877</ele>
        <time>2021-02-21T14:38:26Z</time>
      </trkpt>
      <trkpt lat="43.96033" lon="5.41545">
        <ele>606.428</ele>
        <time>2021-02-21T14:38:28Z</time>
      </trkpt>
      <trkpt lat="43.9603" lon="5.41543">
        <ele>606.052</ele>
        <time>2021-02-21T14:38:29Z</time>
      </trkpt>
      <trkpt lat="43.9603" lon="5.41539">
        <ele>605.863</ele>
        <time>2021-02-21T14:38:30Z</time>
      </trkpt>
      <trkpt lat="43.96028" lon="5.41534">
        <ele>605.221</ele>
        <time>2021-02-21T14:38:32Z</time>
      </trkpt>
      <trkpt lat="43.96026" lon="5.41533">
        <ele>605.041</ele>
        <time>2021-02-21T14:38:33Z</time>
      </trkpt>
      <trkpt lat="43.96013" lon="5.41529">
        <ele>603.805</ele>
        <time>2021-02-21T14:38:37Z</time>
      </trkpt>
      <trkpt lat="43.95999" lon="5.41531">
        <ele>602.408</ele>
        <time>2021-02-21T14:38:41Z</time>
      </trkpt>
      <trkpt lat="43.95995" lon="5.41531">
        <ele>600.858</ele>
        <time>2021-02-21T14:38:44Z</time>
      </trkpt>
      <trkpt lat="43.95995" lon="5.41531">
        <ele>598.288</ele>
        <time>2021-02-21T14:38:54Z</time>
      </trkpt>
      <trkpt lat="43.95995" lon="5.41531">
        <ele>595.235</ele>
        <time>2021-02-21T14:39:09Z</time>
      </trkpt>
      <trkpt lat="43.95995" lon="5.41532">
        <ele>592.834</ele>
        <time>2021-02-21T14:39:19Z</time>
      </trkpt>
      <trkpt lat="43.95993" lon="5.41535">
        <ele>592.265</ele>
        <time>2021-02-21T14:39:20Z</time>
      </trkpt>
      <trkpt lat="43.9599" lon="5.41539">
        <ele>591.876</ele>
        <time>2021-02-21T14:39:21Z</time>
      </trkpt>
      <trkpt lat="43.95987" lon="5.41549">
        <ele>591.22</ele>
        <time>2021-02-21T14:39:23Z</time>
      </trkpt>
      <trkpt lat="43.95985" lon="5.41552">
        <ele>590.811</ele>
        <time>2021-02-21T14:39:24Z</time>
      </trkpt>
      <trkpt lat="43.95983" lon="5.41558">
        <ele>590.037</ele>
        <time>2021-02-21T14:39:26Z</time>
      </trkpt>
      <trkpt lat="43.9598" lon="5.41559">
        <ele>589.849</ele>
        <time>2021-02-21T14:39:27Z</time>
      </trkpt>
      <trkpt lat="43.9597" lon="5.41555">
        <ele>588.613</ele>
        <time>2021-02-21T14:39:30Z</time>
      </trkpt>
      <trkpt lat="43.95955" lon="5.41557">
        <ele>587.249</ele>
        <time>2021-02-21T14:39:34Z</time>
      </trkpt>
      <trkpt lat="43.95951" lon="5.41559">
        <ele>586.856</ele>
        <time>2021-02-21T14:39:35Z</time>
      </trkpt>
      <trkpt lat="43.95948" lon="5.4156">
        <ele>586.095</ele>
        <time>2021-02-21T14:39:36Z</time>
      </trkpt>
      <trkpt lat="43.95947" lon="5.41559">
        <ele>585.686</ele>
        <time>2021-02-21T14:39:37Z</time>
      </trkpt>
      <trkpt lat="43.95948" lon="5.41559">
        <ele>583.227</ele>
        <time>2021-02-21T14:39:46Z</time>
      </trkpt>
      <trkpt lat="43.95948" lon="5.41559">
        <ele>576.891</ele>
        <time>2021-02-21T14:40:14Z</time>
      </trkpt>
      <trkpt lat="43.95948" lon="5.41561">
        <ele>572.212</ele>
        <time>2021-02-21T14:40:45Z</time>
      </trkpt>
      <trkpt lat="43.95947" lon="5.41561">
        <ele>569.627</ele>
        <time>2021-02-21T14:41:10Z</time>
      </trkpt>
      <trkpt lat="43.95947" lon="5.41561">
        <ele>568.268</ele>
        <time>2021-02-21T14:41:30Z</time>
      </trkpt>
      <trkpt lat="43.95948" lon="5.4156">
        <ele>567.814</ele>
        <time>2021-02-21T14:41:36Z</time>
      </trkpt>
      <trkpt lat="43.95948" lon="5.4156">
        <ele>567.208</ele>
        <time>2021-02-21T14:41:48Z</time>
      </trkpt>
      <trkpt lat="43.95943" lon="5.41552">
        <ele>566.688</ele>
        <time>2021-02-21T14:41:51Z</time>
      </trkpt>
      <trkpt lat="43.95941" lon="5.41549">
        <ele>566.228</ele>
        <time>2021-02-21T14:41:54Z</time>
      </trkpt>
      <trkpt lat="43.95941" lon="5.41549">
        <ele>565.845</ele>
        <time>2021-02-21T14:42:04Z</time>
      </trkpt>
      <trkpt lat="43.95941" lon="5.41549">
        <ele>564.654</ele>
        <time>2021-02-21T14:42:25Z</time>
      </trkpt>
      <trkpt lat="43.95941" lon="5.41549">
        <ele>563.855</ele>
        <time>2021-02-21T14:42:45Z</time>
      </trkpt>
      <trkpt lat="43.9594" lon="5.41545">
        <ele>563.286</ele>
        <time>2021-02-21T14:42:51Z</time>
      </trkpt>
      <trkpt lat="43.95935" lon="5.41536">
        <ele>562.81</ele>
        <time>2021-02-21T14:42:53Z</time>
      </trkpt>
      <trkpt lat="43.95933" lon="5.41531">
        <ele>562.641</ele>
        <time>2021-02-21T14:42:54Z</time>
      </trkpt>
      <trkpt lat="43.95925" lon="5.41512">
        <ele>561.854</ele>
        <time>2021-02-21T14:42:57Z</time>
      </trkpt>
      <trkpt lat="43.95904" lon="5.41482">
        <ele>560.656</ele>
        <time>2021-02-21T14:43:01Z</time>
      </trkpt>
      <trkpt lat="43.95899" lon="5.41473">
        <ele>560.211</ele>
        <time>2021-02-21T14:43:02Z</time>
      </trkpt>
      <trkpt lat="43.95885" lon="5.41454">
        <ele>559.608</ele>
        <time>2021-02-21T14:43:04Z</time>
      </trkpt>
      <trkpt lat="43.95878" lon="5.41445">
        <ele>559.261</ele>
        <time>2021-02-21T14:43:05Z</time>
      </trkpt>
      <trkpt lat="43.95866" lon="5.41429">
        <ele>558.691</ele>
        <time>2021-02-21T14:43:07Z</time>
      </trkpt>
      <trkpt lat="43.95859" lon="5.41424">
        <ele>558.298</ele>
        <time>2021-02-21T14:43:08Z</time>
      </trkpt>
      <trkpt lat="43.95835" lon="5.41405">
        <ele>557.027</ele>
        <time>2021-02-21T14:43:12Z</time>
      </trkpt>
      <trkpt lat="43.95821" lon="5.41394">
        <ele>556.458</ele>
        <time>2021-02-21T14:43:15Z</time>
      </trkpt>
      <trkpt lat="43.95812" lon="5.41386">
        <ele>555.859</ele>
        <time>2021-02-21T14:43:17Z</time>
      </trkpt>
      <trkpt lat="43.95799" lon="5.41375">
        <ele>555.093</ele>
        <time>2021-02-21T14:43:20Z</time>
      </trkpt>
      <trkpt lat="43.95791" lon="5.41367">
        <ele>554.484</ele>
        <time>2021-02-21T14:43:22Z</time>
      </trkpt>
      <trkpt lat="43.95769" lon="5.41345">
        <ele>553.278</ele>
        <time>2021-02-21T14:43:28Z</time>
      </trkpt>
      <trkpt lat="43.95749" lon="5.41331">
        <ele>552.233</ele>
        <time>2021-02-21T14:43:34Z</time>
      </trkpt>
      <trkpt lat="43.95749" lon="5.41332">
        <ele>551.026</ele>
        <time>2021-02-21T14:43:41Z</time>
      </trkpt>
      <trkpt lat="43.95749" lon="5.41332">
        <ele>549.408</ele>
        <time>2021-02-21T14:43:52Z</time>
      </trkpt>
      <trkpt lat="43.95747" lon="5.4133">
        <ele>548.223</ele>
        <time>2021-02-21T14:44:02Z</time>
      </trkpt>
      <trkpt lat="43.95736" lon="5.41321">
        <ele>547.643</ele>
        <time>2021-02-21T14:44:07Z</time>
      </trkpt>
      <trkpt lat="43.95719" lon="5.41312">
        <ele>547.01</ele>
        <time>2021-02-21T14:44:13Z</time>
      </trkpt>
      <trkpt lat="43.95701" lon="5.41309">
        <ele>546.459</ele>
        <time>2021-02-21T14:44:19Z</time>
      </trkpt>
      <trkpt lat="43.95678" lon="5.41309">
        <ele>546.06</ele>
        <time>2021-02-21T14:44:26Z</time>
      </trkpt>
      <trkpt lat="43.95658" lon="5.4131">
        <ele>545.891</ele>
        <time>2021-02-21T14:44:33Z</time>
      </trkpt>
      <trkpt lat="43.95658" lon="5.4131">
        <ele>545.295</ele>
        <time>2021-02-21T14:44:44Z</time>
      </trkpt>
      <trkpt lat="43.95658" lon="5.4131">
        <ele>544.616</ele>
        <time>2021-02-21T14:44:55Z</time>
      </trkpt>
      <trkpt lat="43.95656" lon="5.41309">
        <ele>544.294</ele>
        <time>2021-02-21T14:45:12Z</time>
      </trkpt>
      <trkpt lat="43.95647" lon="5.41301">
        <ele>544.057</ele>
        <time>2021-02-21T14:45:16Z</time>
      </trkpt>
      <trkpt lat="43.95626" lon="5.41287">
        <ele>543.265</ele>
        <time>2021-02-21T14:45:23Z</time>
      </trkpt>
      <trkpt lat="43.95607" lon="5.41277">
        <ele>536.015</ele>
        <time>2021-02-21T14:46:56Z</time>
      </trkpt>
      <trkpt lat="43.95597" lon="5.41269">
        <ele>535.408</ele>
        <time>2021-02-21T14:47:00Z</time>
      </trkpt>
      <trkpt lat="43.95591" lon="5.41266">
        <ele>534.883</ele>
        <time>2021-02-21T14:47:04Z</time>
      </trkpt>
      <trkpt lat="43.95591" lon="5.41266">
        <ele>533.833</ele>
        <time>2021-02-21T14:47:20Z</time>
      </trkpt>
      <trkpt lat="43.95591" lon="5.41266">
        <ele>533.02</ele>
        <time>2021-02-21T14:47:25Z</time>
      </trkpt>
      <trkpt lat="43.95591" lon="5.41266">
        <ele>532.229</ele>
        <time>2021-02-21T14:47:35Z</time>
      </trkpt>
      <trkpt lat="43.95587" lon="5.41263">
        <ele>531.62</ele>
        <time>2021-02-21T14:47:42Z</time>
      </trkpt>
      <trkpt lat="43.95571" lon="5.41255">
        <ele>531.071</ele>
        <time>2021-02-21T14:47:47Z</time>
      </trkpt>
      <trkpt lat="43.95556" lon="5.41241">
        <ele>530.495</ele>
        <time>2021-02-21T14:47:52Z</time>
      </trkpt>
      <trkpt lat="43.95546" lon="5.41229">
        <ele>530.056</ele>
        <time>2021-02-21T14:47:56Z</time>
      </trkpt>
      <trkpt lat="43.95538" lon="5.41228">
        <ele>529.662</ele>
        <time>2021-02-21T14:48:00Z</time>
      </trkpt>
      <trkpt lat="43.95538" lon="5.41228">
        <ele>529.083</ele>
        <time>2021-02-21T14:48:06Z</time>
      </trkpt>
      <trkpt lat="43.9553" lon="5.41225">
        <ele>528.011</ele>
        <time>2021-02-21T14:48:10Z</time>
      </trkpt>
      <trkpt lat="43.95516" lon="5.4122">
        <ele>527.208</ele>
        <time>2021-02-21T14:48:15Z</time>
      </trkpt>
      <trkpt lat="43.95509" lon="5.41216">
        <ele>526.492</ele>
        <time>2021-02-21T14:48:18Z</time>
      </trkpt>
      <trkpt lat="43.95508" lon="5.41217">
        <ele>526.292</ele>
        <time>2021-02-21T14:48:19Z</time>
      </trkpt>
      <trkpt lat="43.95504" lon="5.41218">
        <ele>525.649</ele>
        <time>2021-02-21T14:48:21Z</time>
      </trkpt>
      <trkpt lat="43.95499" lon="5.41217">
        <ele>525.288</ele>
        <time>2021-02-21T14:48:23Z</time>
      </trkpt>
      <trkpt lat="43.95486" lon="5.41213">
        <ele>524.019</ele>
        <time>2021-02-21T14:48:28Z</time>
      </trkpt>
      <trkpt lat="43.95477" lon="5.41214">
        <ele>523.28</ele>
        <time>2021-02-21T14:48:31Z</time>
      </trkpt>
      <trkpt lat="43.95472" lon="5.41214">
        <ele>522.844</ele>
        <time>2021-02-21T14:48:33Z</time>
      </trkpt>
      <trkpt lat="43.95464" lon="5.41217">
        <ele>522.065</ele>
        <time>2021-02-21T14:48:36Z</time>
      </trkpt>
      <trkpt lat="43.95456" lon="5.4122">
        <ele>521.438</ele>
        <time>2021-02-21T14:48:38Z</time>
      </trkpt>
      <trkpt lat="43.9545" lon="5.41225">
        <ele>520.87</ele>
        <time>2021-02-21T14:48:40Z</time>
      </trkpt>
      <trkpt lat="43.95446" lon="5.41232">
        <ele>519.417</ele>
        <time>2021-02-21T14:48:44Z</time>
      </trkpt>
      <trkpt lat="43.95445" lon="5.41233">
        <ele>518.408</ele>
        <time>2021-02-21T14:48:49Z</time>
      </trkpt>
      <trkpt lat="43.95444" lon="5.41233">
        <ele>517.619</ele>
        <time>2021-02-21T14:48:51Z</time>
      </trkpt>
      <trkpt lat="43.95441" lon="5.41236">
        <ele>517.049</ele>
        <time>2021-02-21T14:48:53Z</time>
      </trkpt>
      <trkpt lat="43.95428" lon="5.41245">
        <ele>515.846</ele>
        <time>2021-02-21T14:48:58Z</time>
      </trkpt>
      <trkpt lat="43.95415" lon="5.41249">
        <ele>514.615</ele>
        <time>2021-02-21T14:49:03Z</time>
      </trkpt>
      <trkpt lat="43.954" lon="5.41248">
        <ele>513.696</ele>
        <time>2021-02-21T14:49:07Z</time>
      </trkpt>
      <trkpt lat="43.95397" lon="5.41247">
        <ele>513.437</ele>
        <time>2021-02-21T14:49:08Z</time>
      </trkpt>
      <trkpt lat="43.95381" lon="5.41245">
        <ele>511.871</ele>
        <time>2021-02-21T14:49:13Z</time>
      </trkpt>
      <trkpt lat="43.95379" lon="5.41244">
        <ele>511.642</ele>
        <time>2021-02-21T14:49:14Z</time>
      </trkpt>
      <trkpt lat="43.95373" lon="5.41238">
        <ele>510.629</ele>
        <time>2021-02-21T14:49:17Z</time>
      </trkpt>
      <trkpt lat="43.95369" lon="5.41235">
        <ele>510.4</ele>
        <time>2021-02-21T14:49:18Z</time>
      </trkpt>
      <trkpt lat="43.95363" lon="5.41232">
        <ele>509.82</ele>
        <time>2021-02-21T14:49:20Z</time>
      </trkpt>
      <trkpt lat="43.95356" lon="5.41232">
        <ele>509.008</ele>
        <time>2021-02-21T14:49:23Z</time>
      </trkpt>
      <trkpt lat="43.95355" lon="5.41232">
        <ele>508.818</ele>
        <time>2021-02-21T14:49:24Z</time>
      </trkpt>
      <trkpt lat="43.9535" lon="5.41232">
        <ele>508.498</ele>
        <time>2021-02-21T14:49:26Z</time>
      </trkpt>
      <trkpt lat="43.95345" lon="5.4123">
        <ele>508.065</ele>
        <time>2021-02-21T14:49:27Z</time>
      </trkpt>
      <trkpt lat="43.95331" lon="5.41228">
        <ele>506.894</ele>
        <time>2021-02-21T14:49:31Z</time>
      </trkpt>
      <trkpt lat="43.95319" lon="5.4122">
        <ele>505.435</ele>
        <time>2021-02-21T14:49:35Z</time>
      </trkpt>
      <trkpt lat="43.95313" lon="5.41215">
        <ele>504.816</ele>
        <time>2021-02-21T14:49:37Z</time>
      </trkpt>
      <trkpt lat="43.95307" lon="5.41214">
        <ele>504.05</ele>
        <time>2021-02-21T14:49:39Z</time>
      </trkpt>
      <trkpt lat="43.953" lon="5.41215">
        <ele>502.841</ele>
        <time>2021-02-21T14:49:43Z</time>
      </trkpt>
      <trkpt lat="43.95298" lon="5.41213">
        <ele>500.433</ele>
        <time>2021-02-21T14:49:53Z</time>
      </trkpt>
      <trkpt lat="43.95297" lon="5.41201">
        <ele>498.823</ele>
        <time>2021-02-21T14:49:57Z</time>
      </trkpt>
      <trkpt lat="43.95296" lon="5.41198">
        <ele>498.415</ele>
        <time>2021-02-21T14:49:58Z</time>
      </trkpt>
      <trkpt lat="43.95295" lon="5.41196">
        <ele>497.808</ele>
        <time>2021-02-21T14:49:59Z</time>
      </trkpt>
      <trkpt lat="43.95296" lon="5.41192">
        <ele>496.639</ele>
        <time>2021-02-21T14:50:01Z</time>
      </trkpt>
      <trkpt lat="43.95295" lon="5.41187">
        <ele>495.669</ele>
        <time>2021-02-21T14:50:03Z</time>
      </trkpt>
      <trkpt lat="43.95293" lon="5.41177">
        <ele>494.236</ele>
        <time>2021-02-21T14:50:06Z</time>
      </trkpt>
      <trkpt lat="43.95291" lon="5.41175">
        <ele>492.635</ele>
        <time>2021-02-21T14:50:10Z</time>
      </trkpt>
      <trkpt lat="43.9529" lon="5.41173">
        <ele>490.496</ele>
        <time>2021-02-21T14:50:17Z</time>
      </trkpt>
      <trkpt lat="43.9529" lon="5.41173">
        <ele>486.467</ele>
        <time>2021-02-21T14:50:31Z</time>
      </trkpt>
      <trkpt lat="43.9529" lon="5.41173">
        <ele>482.641</ele>
        <time>2021-02-21T14:50:47Z</time>
      </trkpt>
      <trkpt lat="43.95291" lon="5.41173">
        <ele>478.462</ele>
        <time>2021-02-21T14:51:10Z</time>
      </trkpt>
      <trkpt lat="43.95291" lon="5.41173">
        <ele>475.228</ele>
        <time>2021-02-21T14:51:35Z</time>
      </trkpt>
      <trkpt lat="43.95292" lon="5.41172">
        <ele>471.889</ele>
        <time>2021-02-21T14:52:07Z</time>
      </trkpt>
      <trkpt lat="43.95293" lon="5.41171">
        <ele>469.817</ele>
        <time>2021-02-21T14:52:31Z</time>
      </trkpt>
      <trkpt lat="43.95293" lon="5.41171">
        <ele>468.208</ele>
        <time>2021-02-21T14:52:57Z</time>
      </trkpt>
      <trkpt lat="43.95292" lon="5.41171">
        <ele>467.098</ele>
        <time>2021-02-21T14:53:19Z</time>
      </trkpt>
      <trkpt lat="43.95292" lon="5.41171">
        <ele>466.288</ele>
        <time>2021-02-21T14:53:41Z</time>
      </trkpt>
      <trkpt lat="43.95292" lon="5.41171">
        <ele>465.855</ele>
        <time>2021-02-21T14:53:58Z</time>
      </trkpt>
      <trkpt lat="43.95292" lon="5.41171">
        <ele>465.434</ele>
        <time>2021-02-21T14:54:18Z</time>
      </trkpt>
      <trkpt lat="43.95293" lon="5.41171">
        <ele>465.085</ele>
        <time>2021-02-21T14:54:35Z</time>
      </trkpt>
      <trkpt lat="43.95293" lon="5.41171">
        <ele>464.626</ele>
        <time>2021-02-21T14:54:57Z</time>
      </trkpt>
      <trkpt lat="43.95293" lon="5.41171">
        <ele>464.67</ele>
        <time>2021-02-21T14:55:07Z</time>
      </trkpt>
      <trkpt lat="43.95292" lon="5.41171">
        <ele>464.221</ele>
        <time>2021-02-21T14:55:12Z</time>
      </trkpt>
      <trkpt lat="43.95292" lon="5.41171">
        <ele>464.217</ele>
        <time>2021-02-21T14:55:20Z</time>
      </trkpt>
      <trkpt lat="43.95285" lon="5.41165">
        <ele>463.887</ele>
        <time>2021-02-21T14:55:23Z</time>
      </trkpt>
      <trkpt lat="43.95272" lon="5.41164">
        <ele>463.215</ele>
        <time>2021-02-21T14:55:27Z</time>
      </trkpt>
      <trkpt lat="43.95255" lon="5.41169">
        <ele>462.208</ele>
        <time>2021-02-21T14:55:36Z</time>
      </trkpt>
      <trkpt lat="43.95244" lon="5.41163">
        <ele>461.897</ele>
        <time>2021-02-21T14:55:40Z</time>
      </trkpt>
      <trkpt lat="43.95235" lon="5.41154">
        <ele>461.487</ele>
        <time>2021-02-21T14:55:45Z</time>
      </trkpt>
      <trkpt lat="43.95234" lon="5.41149">
        <ele>461.074</ele>
        <time>2021-02-21T14:55:47Z</time>
      </trkpt>
      <trkpt lat="43.9523" lon="5.41147">
        <ele>460.863</ele>
        <time>2021-02-21T14:55:49Z</time>
      </trkpt>
      <trkpt lat="43.95221" lon="5.41144">
        <ele>460.244</ele>
        <time>2021-02-21T14:55:54Z</time>
      </trkpt>
      <trkpt lat="43.95221" lon="5.41144">
        <ele>459.035</ele>
        <time>2021-02-21T14:56:10Z</time>
      </trkpt>
      <trkpt lat="43.95222" lon="5.41142">
        <ele>457.239</ele>
        <time>2021-02-21T14:56:35Z</time>
      </trkpt>
      <trkpt lat="43.95222" lon="5.41142">
        <ele>456.61</ele>
        <time>2021-02-21T14:56:51Z</time>
      </trkpt>
      <trkpt lat="43.95222" lon="5.41142">
        <ele>455.495</ele>
        <time>2021-02-21T14:57:19Z</time>
      </trkpt>
      <trkpt lat="43.95222" lon="5.41142">
        <ele>454.649</ele>
        <time>2021-02-21T14:57:48Z</time>
      </trkpt>
      <trkpt lat="43.95222" lon="5.41143">
        <ele>454.023</ele>
        <time>2021-02-21T14:58:09Z</time>
      </trkpt>
      <trkpt lat="43.95222" lon="5.41142">
        <ele>453.408</ele>
        <time>2021-02-21T14:58:34Z</time>
      </trkpt>
      <trkpt lat="43.95222" lon="5.41142">
        <ele>453.485</ele>
        <time>2021-02-21T14:58:42Z</time>
      </trkpt>
      <trkpt lat="43.95222" lon="5.41142">
        <ele>453.255</ele>
        <time>2021-02-21T14:58:50Z</time>
      </trkpt>
      <trkpt lat="43.95211" lon="5.41146">
        <ele>453.042</ele>
        <time>2021-02-21T14:58:55Z</time>
      </trkpt>
      <trkpt lat="43.95214" lon="5.41144">
        <ele>452.881</ele>
        <time>2021-02-21T14:58:58Z</time>
      </trkpt>
      <trkpt lat="43.95216" lon="5.41144">
        <ele>452.652</ele>
        <time>2021-02-21T14:59:04Z</time>
      </trkpt>
      <trkpt lat="43.95216" lon="5.41144">
        <ele>452.693</ele>
        <time>2021-02-21T14:59:08Z</time>
      </trkpt>
      <trkpt lat="43.95214" lon="5.41143">
        <ele>452.667</ele>
        <time>2021-02-21T14:59:09Z</time>
      </trkpt>
      <trkpt lat="43.95205" lon="5.41138">
        <ele>452.028</ele>
        <time>2021-02-21T14:59:14Z</time>
      </trkpt>
      <trkpt lat="43.95194" lon="5.41136">
        <ele>451.455</ele>
        <time>2021-02-21T14:59:20Z</time>
      </trkpt>
      <trkpt lat="43.9519" lon="5.41135">
        <ele>451.007</ele>
        <time>2021-02-21T14:59:26Z</time>
      </trkpt>
      <trkpt lat="43.95189" lon="5.41135">
        <ele>450.817</ele>
        <time>2021-02-21T14:59:31Z</time>
      </trkpt>
      <trkpt lat="43.95186" lon="5.41133">
        <ele>450.808</ele>
        <time>2021-02-21T14:59:33Z</time>
      </trkpt>
      <trkpt lat="43.95184" lon="5.41132">
        <ele>450.491</ele>
        <time>2021-02-21T14:59:39Z</time>
      </trkpt>
      <trkpt lat="43.9518" lon="5.41129">
        <ele>450.251</ele>
        <time>2021-02-21T14:59:44Z</time>
      </trkpt>
      <trkpt lat="43.9518" lon="5.41129">
        <ele>449.648</ele>
        <time>2021-02-21T14:59:58Z</time>
      </trkpt>
      <trkpt lat="43.95175" lon="5.41126">
        <ele>449.247</ele>
        <time>2021-02-21T15:00:06Z</time>
      </trkpt>
      <trkpt lat="43.95165" lon="5.41119">
        <ele>448.858</ele>
        <time>2021-02-21T15:00:10Z</time>
      </trkpt>
      <trkpt lat="43.95164" lon="5.4112">
        <ele>448.639</ele>
        <time>2021-02-21T15:00:16Z</time>
      </trkpt>
      <trkpt lat="43.95163" lon="5.41118">
        <ele>448.083</ele>
        <time>2021-02-21T15:00:20Z</time>
      </trkpt>
      <trkpt lat="43.95162" lon="5.41115">
        <ele>447.644</ele>
        <time>2021-02-21T15:00:22Z</time>
      </trkpt>
      <trkpt lat="43.95162" lon="5.41113">
        <ele>447.033</ele>
        <time>2021-02-21T15:00:31Z</time>
      </trkpt>
      <trkpt lat="43.95162" lon="5.41113">
        <ele>446.023</ele>
        <time>2021-02-21T15:00:47Z</time>
      </trkpt>
      <trkpt lat="43.95162" lon="5.41113">
        <ele>445.415</ele>
        <time>2021-02-21T15:00:57Z</time>
      </trkpt>
      <trkpt lat="43.95162" lon="5.41113">
        <ele>444.608</ele>
        <time>2021-02-21T15:01:21Z</time>
      </trkpt>
      <trkpt lat="43.95162" lon="5.41111">
        <ele>444.039</ele>
        <time>2021-02-21T15:01:38Z</time>
      </trkpt>
      <trkpt lat="43.95155" lon="5.41101">
        <ele>443.469</ele>
        <time>2021-02-21T15:01:42Z</time>
      </trkpt>
      <trkpt lat="43.95136" lon="5.41088">
        <ele>442.446</ele>
        <time>2021-02-21T15:01:47Z</time>
      </trkpt>
      <trkpt lat="43.95122" lon="5.41077">
        <ele>441.665</ele>
        <time>2021-02-21T15:01:52Z</time>
      </trkpt>
      <trkpt lat="43.95113" lon="5.41065">
        <ele>440.646</ele>
        <time>2021-02-21T15:01:56Z</time>
      </trkpt>
      <trkpt lat="43.95098" lon="5.41058">
        <ele>439.857</ele>
        <time>2021-02-21T15:02:02Z</time>
      </trkpt>
      <trkpt lat="43.95086" lon="5.41059">
        <ele>439.261</ele>
        <time>2021-02-21T15:02:08Z</time>
      </trkpt>
      <trkpt lat="43.95085" lon="5.41059">
        <ele>438.872</ele>
        <time>2021-02-21T15:02:12Z</time>
      </trkpt>
      <trkpt lat="43.95085" lon="5.41059">
        <ele>437.644</ele>
        <time>2021-02-21T15:02:23Z</time>
      </trkpt>
      <trkpt lat="43.95084" lon="5.41059">
        <ele>436.405</ele>
        <time>2021-02-21T15:02:36Z</time>
      </trkpt>
      <trkpt lat="43.95084" lon="5.41058">
        <ele>435.815</ele>
        <time>2021-02-21T15:02:41Z</time>
      </trkpt>
      <trkpt lat="43.95071" lon="5.41053">
        <ele>435.208</ele>
        <time>2021-02-21T15:02:45Z</time>
      </trkpt>
      <trkpt lat="43.95044" lon="5.41047">
        <ele>434.42</ele>
        <time>2021-02-21T15:02:51Z</time>
      </trkpt>
      <trkpt lat="43.9504" lon="5.41044">
        <ele>434.25</ele>
        <time>2021-02-21T15:02:52Z</time>
      </trkpt>
      <trkpt lat="43.95035" lon="5.41041">
        <ele>434.067</ele>
        <time>2021-02-21T15:02:53Z</time>
      </trkpt>
      <trkpt lat="43.95018" lon="5.41034">
        <ele>433.416</ele>
        <time>2021-02-21T15:02:56Z</time>
      </trkpt>
      <trkpt lat="43.94992" lon="5.41024">
        <ele>432.897</ele>
        <time>2021-02-21T15:03:00Z</time>
      </trkpt>
      <trkpt lat="43.94985" lon="5.41021">
        <ele>432.418</ele>
        <time>2021-02-21T15:03:01Z</time>
      </trkpt>
      <trkpt lat="43.94972" lon="5.41015">
        <ele>432.042</ele>
        <time>2021-02-21T15:03:03Z</time>
      </trkpt>
      <trkpt lat="43.94967" lon="5.41009">
        <ele>431.623</ele>
        <time>2021-02-21T15:03:04Z</time>
      </trkpt>
      <trkpt lat="43.94957" lon="5.41002">
        <ele>431.086</ele>
        <time>2021-02-21T15:03:06Z</time>
      </trkpt>
      <trkpt lat="43.94953" lon="5.40997">
        <ele>430.66</ele>
        <time>2021-02-21T15:03:07Z</time>
      </trkpt>
      <trkpt lat="43.94948" lon="5.40993">
        <ele>430.226</ele>
        <time>2021-02-21T15:03:08Z</time>
      </trkpt>
      <trkpt lat="43.9493" lon="5.40978">
        <ele>429.208</ele>
        <time>2021-02-21T15:03:11Z</time>
      </trkpt>
      <trkpt lat="43.94917" lon="5.40967">
        <ele>428.424</ele>
        <time>2021-02-21T15:03:13Z</time>
      </trkpt>
      <trkpt lat="43.94909" lon="5.40963">
        <ele>428.014</ele>
        <time>2021-02-21T15:03:14Z</time>
      </trkpt>
      <trkpt lat="43.94901" lon="5.40961">
        <ele>427.831</ele>
        <time>2021-02-21T15:03:15Z</time>
      </trkpt>
      <trkpt lat="43.9489" lon="5.40953">
        <ele>427.02</ele>
        <time>2021-02-21T15:03:17Z</time>
      </trkpt>
      <trkpt lat="43.94884" lon="5.40937">
        <ele>426.261</ele>
        <time>2021-02-21T15:03:19Z</time>
      </trkpt>
      <trkpt lat="43.9488" lon="5.4093">
        <ele>425.872</ele>
        <time>2021-02-21T15:03:20Z</time>
      </trkpt>
      <trkpt lat="43.94875" lon="5.40925">
        <ele>425.446</ele>
        <time>2021-02-21T15:03:21Z</time>
      </trkpt>
      <trkpt lat="43.9486" lon="5.40914">
        <ele>424.487</ele>
        <time>2021-02-21T15:03:23Z</time>
      </trkpt>
      <trkpt lat="43.94834" lon="5.40896">
        <ele>422.832</ele>
        <time>2021-02-21T15:03:26Z</time>
      </trkpt>
      <trkpt lat="43.94827" lon="5.40892">
        <ele>422.292</ele>
        <time>2021-02-21T15:03:27Z</time>
      </trkpt>
      <trkpt lat="43.94823" lon="5.40887">
        <ele>421.611</ele>
        <time>2021-02-21T15:03:28Z</time>
      </trkpt>
      <trkpt lat="43.9482" lon="5.40882">
        <ele>420.808</ele>
        <time>2021-02-21T15:03:29Z</time>
      </trkpt>
      <trkpt lat="43.94826" lon="5.4087">
        <ele>419.039</ele>
        <time>2021-02-21T15:03:32Z</time>
      </trkpt>
      <trkpt lat="43.94828" lon="5.40859">
        <ele>417.689</ele>
        <time>2021-02-21T15:03:35Z</time>
      </trkpt>
      <trkpt lat="43.94828" lon="5.40857">
        <ele>414.856</ele>
        <time>2021-02-21T15:03:42Z</time>
      </trkpt>
      <trkpt lat="43.94828" lon="5.40857">
        <ele>410.655</ele>
        <time>2021-02-21T15:03:55Z</time>
      </trkpt>
      <trkpt lat="43.94828" lon="5.40857">
        <ele>406.046</ele>
        <time>2021-02-21T15:04:11Z</time>
      </trkpt>
      <trkpt lat="43.94827" lon="5.40856">
        <ele>402.897</ele>
        <time>2021-02-21T15:04:25Z</time>
      </trkpt>
      <trkpt lat="43.94826" lon="5.40855">
        <ele>402.231</ele>
        <time>2021-02-21T15:04:28Z</time>
      </trkpt>
      <trkpt lat="43.94821" lon="5.40853">
        <ele>401.892</ele>
        <time>2021-02-21T15:04:30Z</time>
      </trkpt>
      <trkpt lat="43.94807" lon="5.40842">
        <ele>400.672</ele>
        <time>2021-02-21T15:04:35Z</time>
      </trkpt>
      <trkpt lat="43.94793" lon="5.40828">
        <ele>399.813</ele>
        <time>2021-02-21T15:04:39Z</time>
      </trkpt>
      <trkpt lat="43.9479" lon="5.40824">
        <ele>399.414</ele>
        <time>2021-02-21T15:04:40Z</time>
      </trkpt>
      <trkpt lat="43.94788" lon="5.4082">
        <ele>399.208</ele>
        <time>2021-02-21T15:04:41Z</time>
      </trkpt>
      <trkpt lat="43.94776" lon="5.40799">
        <ele>398.253</ele>
        <time>2021-02-21T15:04:45Z</time>
      </trkpt>
      <trkpt lat="43.9477" lon="5.40789">
        <ele>397.873</ele>
        <time>2021-02-21T15:04:47Z</time>
      </trkpt>
      <trkpt lat="43.9476" lon="5.40775">
        <ele>397.05</ele>
        <time>2021-02-21T15:04:50Z</time>
      </trkpt>
      <trkpt lat="43.94744" lon="5.40758">
        <ele>396.069</ele>
        <time>2021-02-21T15:04:54Z</time>
      </trkpt>
      <trkpt lat="43.94733" lon="5.40755">
        <ele>395.49</ele>
        <time>2021-02-21T15:04:56Z</time>
      </trkpt>
      <trkpt lat="43.94703" lon="5.40755">
        <ele>394.251</ele>
        <time>2021-02-21T15:05:01Z</time>
      </trkpt>
      <trkpt lat="43.9467" lon="5.40744">
        <ele>392.815</ele>
        <time>2021-02-21T15:05:06Z</time>
      </trkpt>
      <trkpt lat="43.94657" lon="5.40739">
        <ele>392.236</ele>
        <time>2021-02-21T15:05:08Z</time>
      </trkpt>
      <trkpt lat="43.94631" lon="5.4073">
        <ele>391.272</ele>
        <time>2021-02-21T15:05:12Z</time>
      </trkpt>
      <trkpt lat="43.946" lon="5.40716">
        <ele>389.813</ele>
        <time>2021-02-21T15:05:17Z</time>
      </trkpt>
      <trkpt lat="43.94593" lon="5.40715">
        <ele>389.614</ele>
        <time>2021-02-21T15:05:18Z</time>
      </trkpt>
      <trkpt lat="43.94566" lon="5.40712">
        <ele>388.408</ele>
        <time>2021-02-21T15:05:22Z</time>
      </trkpt>
      <trkpt lat="43.94545" lon="5.40712">
        <ele>387.823</ele>
        <time>2021-02-21T15:05:25Z</time>
      </trkpt>
      <trkpt lat="43.94524" lon="5.40704">
        <ele>387.023</ele>
        <time>2021-02-21T15:05:28Z</time>
      </trkpt>
      <trkpt lat="43.94495" lon="5.4069">
        <ele>386.07</ele>
        <time>2021-02-21T15:05:32Z</time>
      </trkpt>
      <trkpt lat="43.94489" lon="5.40684">
        <ele>385.619</ele>
        <time>2021-02-21T15:05:33Z</time>
      </trkpt>
      <trkpt lat="43.94482" lon="5.40678">
        <ele>385.42</ele>
        <time>2021-02-21T15:05:34Z</time>
      </trkpt>
      <trkpt lat="43.94467" lon="5.40674">
        <ele>384.831</ele>
        <time>2021-02-21T15:05:36Z</time>
      </trkpt>
      <trkpt lat="43.94425" lon="5.40667">
        <ele>383.065</ele>
        <time>2021-02-21T15:05:42Z</time>
      </trkpt>
      <trkpt lat="43.94388" lon="5.40662">
        <ele>381.446</ele>
        <time>2021-02-21T15:05:47Z</time>
      </trkpt>
      <trkpt lat="43.94381" lon="5.40662">
        <ele>381.064</ele>
        <time>2021-02-21T15:05:48Z</time>
      </trkpt>
      <trkpt lat="43.94366" lon="5.40663">
        <ele>380.406</ele>
        <time>2021-02-21T15:05:50Z</time>
      </trkpt>
      <trkpt lat="43.94345" lon="5.40662">
        <ele>379.616</ele>
        <time>2021-02-21T15:05:53Z</time>
      </trkpt>
      <trkpt lat="43.94331" lon="5.40662">
        <ele>379.008</ele>
        <time>2021-02-21T15:05:55Z</time>
      </trkpt>
      <trkpt lat="43.94316" lon="5.40658">
        <ele>378.432</ele>
        <time>2021-02-21T15:05:57Z</time>
      </trkpt>
      <trkpt lat="43.94302" lon="5.40648">
        <ele>377.882</ele>
        <time>2021-02-21T15:05:59Z</time>
      </trkpt>
      <trkpt lat="43.94295" lon="5.40641">
        <ele>377.659</ele>
        <time>2021-02-21T15:06:00Z</time>
      </trkpt>
      <trkpt lat="43.94265" lon="5.40609">
        <ele>376.028</ele>
        <time>2021-02-21T15:06:05Z</time>
      </trkpt>
      <trkpt lat="43.94258" lon="5.40604">
        <ele>375.699</ele>
        <time>2021-02-21T15:06:06Z</time>
      </trkpt>
      <trkpt lat="43.94224" lon="5.40584">
        <ele>373.85</ele>
        <time>2021-02-21T15:06:11Z</time>
      </trkpt>
      <trkpt lat="43.9419" lon="5.40562">
        <ele>371.634</ele>
        <time>2021-02-21T15:06:16Z</time>
      </trkpt>
      <trkpt lat="43.94183" lon="5.40557">
        <ele>371.275</ele>
        <time>2021-02-21T15:06:17Z</time>
      </trkpt>
      <trkpt lat="43.94172" lon="5.40545">
        <ele>370.686</ele>
        <time>2021-02-21T15:06:19Z</time>
      </trkpt>
      <trkpt lat="43.94167" lon="5.40538">
        <ele>370.26</ele>
        <time>2021-02-21T15:06:20Z</time>
      </trkpt>
      <trkpt lat="43.94155" lon="5.40515">
        <ele>369.426</ele>
        <time>2021-02-21T15:06:23Z</time>
      </trkpt>
      <trkpt lat="43.94146" lon="5.40503">
        <ele>369.008</ele>
        <time>2021-02-21T15:06:25Z</time>
      </trkpt>
      <trkpt lat="43.94121" lon="5.40483">
        <ele>367.854</ele>
        <time>2021-02-21T15:06:30Z</time>
      </trkpt>
      <trkpt lat="43.94073" lon="5.40451">
        <ele>365.624</ele>
        <time>2021-02-21T15:06:38Z</time>
      </trkpt>
      <trkpt lat="43.9404" lon="5.4043">
        <ele>363.621</ele>
        <time>2021-02-21T15:06:44Z</time>
      </trkpt>
      <trkpt lat="43.94017" lon="5.40416">
        <ele>362.42</ele>
        <time>2021-02-21T15:06:48Z</time>
      </trkpt>
      <trkpt lat="43.94012" lon="5.40411">
        <ele>362.471</ele>
        <time>2021-02-21T15:06:49Z</time>
      </trkpt>
      <trkpt lat="43.9398" lon="5.40377">
        <ele>360.632</ele>
        <time>2021-02-21T15:06:55Z</time>
      </trkpt>
      <trkpt lat="43.93957" lon="5.40356">
        <ele>359.466</ele>
        <time>2021-02-21T15:06:59Z</time>
      </trkpt>
      <trkpt lat="43.93923" lon="5.40325">
        <ele>358.047</ele>
        <time>2021-02-21T15:07:05Z</time>
      </trkpt>
      <trkpt lat="43.93898" lon="5.40302">
        <ele>356.856</ele>
        <time>2021-02-21T15:07:10Z</time>
      </trkpt>
      <trkpt lat="43.93869" lon="5.40271">
        <ele>355.459</ele>
        <time>2021-02-21T15:07:16Z</time>
      </trkpt>
      <trkpt lat="43.93839" lon="5.40239">
        <ele>354.214</ele>
        <time>2021-02-21T15:07:22Z</time>
      </trkpt>
      <trkpt lat="43.93816" lon="5.40217">
        <ele>353.408</ele>
        <time>2021-02-21T15:07:26Z</time>
      </trkpt>
      <trkpt lat="43.93811" lon="5.40214">
        <ele>353.281</ele>
        <time>2021-02-21T15:07:27Z</time>
      </trkpt>
      <trkpt lat="43.93797" lon="5.40202">
        <ele>352.631</ele>
        <time>2021-02-21T15:07:30Z</time>
      </trkpt>
      <trkpt lat="43.93787" lon="5.40192">
        <ele>352.298</ele>
        <time>2021-02-21T15:07:32Z</time>
      </trkpt>
      <trkpt lat="43.93782" lon="5.40185">
        <ele>352.037</ele>
        <time>2021-02-21T15:07:33Z</time>
      </trkpt>
      <trkpt lat="43.93769" lon="5.40162">
        <ele>351.468</ele>
        <time>2021-02-21T15:07:36Z</time>
      </trkpt>
      <trkpt lat="43.93753" lon="5.40126">
        <ele>350.649</ele>
        <time>2021-02-21T15:07:40Z</time>
      </trkpt>
      <trkpt lat="43.9375" lon="5.40115">
        <ele>350.463</ele>
        <time>2021-02-21T15:07:41Z</time>
      </trkpt>
      <trkpt lat="43.93746" lon="5.40088">
        <ele>349.894</ele>
        <time>2021-02-21T15:07:44Z</time>
      </trkpt>
      <trkpt lat="43.93743" lon="5.40076">
        <ele>349.285</ele>
        <time>2021-02-21T15:07:47Z</time>
      </trkpt>
      <trkpt lat="43.93743" lon="5.40076">
        <ele>348.689</ele>
        <time>2021-02-21T15:07:51Z</time>
      </trkpt>
      <trkpt lat="43.93743" lon="5.40076">
        <ele>346.217</ele>
        <time>2021-02-21T15:08:08Z</time>
      </trkpt>
      <trkpt lat="43.93743" lon="5.40076">
        <ele>345.008</ele>
        <time>2021-02-21T15:08:17Z</time>
      </trkpt>
      <trkpt lat="43.93743" lon="5.40076">
        <ele>343.844</ele>
        <time>2021-02-21T15:08:29Z</time>
      </trkpt>
      <trkpt lat="43.93743" lon="5.40076">
        <ele>342.644</ele>
        <time>2021-02-21T15:08:45Z</time>
      </trkpt>
      <trkpt lat="43.93743" lon="5.40076">
        <ele>341.661</ele>
        <time>2021-02-21T15:09:02Z</time>
      </trkpt>
      <trkpt lat="43.93743" lon="5.40076">
        <ele>340.83</ele>
        <time>2021-02-21T15:09:17Z</time>
      </trkpt>
      <trkpt lat="43.93742" lon="5.40077">
        <ele>340.411</ele>
        <time>2021-02-21T15:09:34Z</time>
      </trkpt>
      <trkpt lat="43.93742" lon="5.40077">
        <ele>339.822</ele>
        <time>2021-02-21T15:09:54Z</time>
      </trkpt>
      <trkpt lat="43.93742" lon="5.40076">
        <ele>339.696</ele>
        <time>2021-02-21T15:10:15Z</time>
      </trkpt>
      <trkpt lat="43.93742" lon="5.40076">
        <ele>339.497</ele>
        <time>2021-02-21T15:10:29Z</time>
      </trkpt>
      <trkpt lat="43.93742" lon="5.40076">
        <ele>339.476</ele>
        <time>2021-02-21T15:10:46Z</time>
      </trkpt>
      <trkpt lat="43.93741" lon="5.40077">
        <ele>339.49</ele>
        <time>2021-02-21T15:11:03Z</time>
      </trkpt>
      <trkpt lat="43.93741" lon="5.40077">
        <ele>339.419</ele>
        <time>2021-02-21T15:11:17Z</time>
      </trkpt>
      <trkpt lat="43.93742" lon="5.40077">
        <ele>339.408</ele>
        <time>2021-02-21T15:11:34Z</time>
      </trkpt>
      <trkpt lat="43.93742" lon="5.40077">
        <ele>339.663</ele>
        <time>2021-02-21T15:11:52Z</time>
      </trkpt>
      <trkpt lat="43.93742" lon="5.40077">
        <ele>339.643</ele>
        <time>2021-02-21T15:12:11Z</time>
      </trkpt>
      <trkpt lat="43.93741" lon="5.40076">
        <ele>340.09</ele>
        <time>2021-02-21T15:12:26Z</time>
      </trkpt>
      <trkpt lat="43.93741" lon="5.40076">
        <ele>340.289</ele>
        <time>2021-02-21T15:12:40Z</time>
      </trkpt>
      <trkpt lat="43.93741" lon="5.40076">
        <ele>340.42</ele>
        <time>2021-02-21T15:12:53Z</time>
      </trkpt>
      <trkpt lat="43.93741" lon="5.40076">
        <ele>340.451</ele>
        <time>2021-02-21T15:13:04Z</time>
      </trkpt>
      <trkpt lat="43.93741" lon="5.40076">
        <ele>340.675</ele>
        <time>2021-02-21T15:13:13Z</time>
      </trkpt>
      <trkpt lat="43.9374" lon="5.40076">
        <ele>340.646</ele>
        <time>2021-02-21T15:13:18Z</time>
      </trkpt>
      <trkpt lat="43.93738" lon="5.40076">
        <ele>340.857</ele>
        <time>2021-02-21T15:13:20Z</time>
      </trkpt>
      <trkpt lat="43.93736" lon="5.40078">
        <ele>340.8</ele>
        <time>2021-02-21T15:13:21Z</time>
      </trkpt>
      <trkpt lat="43.93734" lon="5.40084">
        <ele>341.02</ele>
        <time>2021-02-21T15:13:23Z</time>
      </trkpt>
      <trkpt lat="43.9373" lon="5.40106">
        <ele>341.208</ele>
        <time>2021-02-21T15:13:29Z</time>
      </trkpt>
      <trkpt lat="43.93726" lon="5.40125">
        <ele>341.291</ele>
        <time>2021-02-21T15:13:35Z</time>
      </trkpt>
      <trkpt lat="43.9372" lon="5.40154">
        <ele>341.871</ele>
        <time>2021-02-21T15:13:43Z</time>
      </trkpt>
      <trkpt lat="43.93715" lon="5.40176">
        <ele>342.018</ele>
        <time>2021-02-21T15:13:48Z</time>
      </trkpt>
      <trkpt lat="43.93707" lon="5.40214">
        <ele>342.467</ele>
        <time>2021-02-21T15:13:55Z</time>
      </trkpt>
      <trkpt lat="43.937" lon="5.40243">
        <ele>342.688</ele>
        <time>2021-02-21T15:14:00Z</time>
      </trkpt>
      <trkpt lat="43.93697" lon="5.40255">
        <ele>342.879</ele>
        <time>2021-02-21T15:14:02Z</time>
      </trkpt>
      <trkpt lat="43.93682" lon="5.4031">
        <ele>343.463</ele>
        <time>2021-02-21T15:14:11Z</time>
      </trkpt>
      <trkpt lat="43.93665" lon="5.40349">
        <ele>343.624</ele>
        <time>2021-02-21T15:14:17Z</time>
      </trkpt>
      <trkpt lat="43.93652" lon="5.40375">
        <ele>343.894</ele>
        <time>2021-02-21T15:14:21Z</time>
      </trkpt>
      <trkpt lat="43.93643" lon="5.40381">
        <ele>343.657</ele>
        <time>2021-02-21T15:14:23Z</time>
      </trkpt>
      <trkpt lat="43.93634" lon="5.40382">
        <ele>343.622</ele>
        <time>2021-02-21T15:14:25Z</time>
      </trkpt>
      <trkpt lat="43.93625" lon="5.40381">
        <ele>343.608</ele>
        <time>2021-02-21T15:14:27Z</time>
      </trkpt>
      <trkpt lat="43.93615" lon="5.4038">
        <ele>343.645</ele>
        <time>2021-02-21T15:14:29Z</time>
      </trkpt>
      <trkpt lat="43.93602" lon="5.40376">
        <ele>343.835</ele>
        <time>2021-02-21T15:14:32Z</time>
      </trkpt>
      <trkpt lat="43.93595" lon="5.40373">
        <ele>343.052</ele>
        <time>2021-02-21T15:14:34Z</time>
      </trkpt>
      <trkpt lat="43.93577" lon="5.40369">
        <ele>343.091</ele>
        <time>2021-02-21T15:14:38Z</time>
      </trkpt>
      <trkpt lat="43.93543" lon="5.40361">
        <ele>342.652</ele>
        <time>2021-02-21T15:14:44Z</time>
      </trkpt>
      <trkpt lat="43.93505" lon="5.40352">
        <ele>342.033</ele>
        <time>2021-02-21T15:14:51Z</time>
      </trkpt>
      <trkpt lat="43.9345" lon="5.40341">
        <ele>340.817</ele>
        <time>2021-02-21T15:15:00Z</time>
      </trkpt>
      <trkpt lat="43.93391" lon="5.40326">
        <ele>339.698</ele>
        <time>2021-02-21T15:15:09Z</time>
      </trkpt>
      <trkpt lat="43.93333" lon="5.40313">
        <ele>338.262</ele>
        <time>2021-02-21T15:15:18Z</time>
      </trkpt>
      <trkpt lat="43.93283" lon="5.40301">
        <ele>336.883</ele>
        <time>2021-02-21T15:15:26Z</time>
      </trkpt>
      <trkpt lat="43.93235" lon="5.40289">
        <ele>335.411</ele>
        <time>2021-02-21T15:15:34Z</time>
      </trkpt>
      <trkpt lat="43.93193" lon="5.40279">
        <ele>334.208</ele>
        <time>2021-02-21T15:15:41Z</time>
      </trkpt>
      <trkpt lat="43.93157" lon="5.40271">
        <ele>333.482</ele>
        <time>2021-02-21T15:15:47Z</time>
      </trkpt>
      <trkpt lat="43.93134" lon="5.4027">
        <ele>332.822</ele>
        <time>2021-02-21T15:15:51Z</time>
      </trkpt>
      <trkpt lat="43.93129" lon="5.40274">
        <ele>332.679</ele>
        <time>2021-02-21T15:15:52Z</time>
      </trkpt>
      <trkpt lat="43.93126" lon="5.40281">
        <ele>332.468</ele>
        <time>2021-02-21T15:15:53Z</time>
      </trkpt>
      <trkpt lat="43.9312" lon="5.40296">
        <ele>332.019</ele>
        <time>2021-02-21T15:15:55Z</time>
      </trkpt>
      <trkpt lat="43.93098" lon="5.40335">
        <ele>330.85</ele>
        <time>2021-02-21T15:16:01Z</time>
      </trkpt>
      <trkpt lat="43.93061" lon="5.40386">
        <ele>329.454</ele>
        <time>2021-02-21T15:16:09Z</time>
      </trkpt>
      <trkpt lat="43.93028" lon="5.40418">
        <ele>328.065</ele>
        <time>2021-02-21T15:16:15Z</time>
      </trkpt>
      <trkpt lat="43.92993" lon="5.40444">
        <ele>326.826</ele>
        <time>2021-02-21T15:16:21Z</time>
      </trkpt>
      <trkpt lat="43.92962" lon="5.40462">
        <ele>325.647</ele>
        <time>2021-02-21T15:16:26Z</time>
      </trkpt>
      <trkpt lat="43.92916" lon="5.40475">
        <ele>323.811</ele>
        <time>2021-02-21T15:16:33Z</time>
      </trkpt>
      <trkpt lat="43.92864" lon="5.40489">
        <ele>322.208</ele>
        <time>2021-02-21T15:16:40Z</time>
      </trkpt>
      <trkpt lat="43.92822" lon="5.405">
        <ele>320.618</ele>
        <time>2021-02-21T15:16:46Z</time>
      </trkpt>
      <trkpt lat="43.92803" lon="5.40508">
        <ele>319.818</ele>
        <time>2021-02-21T15:16:49Z</time>
      </trkpt>
      <trkpt lat="43.92791" lon="5.40517">
        <ele>319.265</ele>
        <time>2021-02-21T15:16:51Z</time>
      </trkpt>
      <trkpt lat="43.92749" lon="5.40549">
        <ele>317.464</ele>
        <time>2021-02-21T15:16:58Z</time>
      </trkpt>
      <trkpt lat="43.92723" lon="5.40576">
        <ele>316.085</ele>
        <time>2021-02-21T15:17:03Z</time>
      </trkpt>
      <trkpt lat="43.92706" lon="5.406">
        <ele>314.866</ele>
        <time>2021-02-21T15:17:08Z</time>
      </trkpt>
      <trkpt lat="43.92691" lon="5.40616">
        <ele>313.22</ele>
        <time>2021-02-21T15:17:14Z</time>
      </trkpt>
      <trkpt lat="43.92677" lon="5.40627">
        <ele>312.011</ele>
        <time>2021-02-21T15:17:20Z</time>
      </trkpt>
      <trkpt lat="43.92662" lon="5.40639">
        <ele>310.692</ele>
        <time>2021-02-21T15:17:26Z</time>
      </trkpt>
      <trkpt lat="43.92634" lon="5.40663">
        <ele>309.073</ele>
        <time>2021-02-21T15:17:34Z</time>
      </trkpt>
      <trkpt lat="43.9261" lon="5.40685">
        <ele>308.02</ele>
        <time>2021-02-21T15:17:40Z</time>
      </trkpt>
      <trkpt lat="43.92589" lon="5.40714">
        <ele>306.608</ele>
        <time>2021-02-21T15:17:46Z</time>
      </trkpt>
      <trkpt lat="43.92585" lon="5.4072">
        <ele>306.445</ele>
        <time>2021-02-21T15:17:47Z</time>
      </trkpt>
      <trkpt lat="43.92578" lon="5.4074">
        <ele>305.845</ele>
        <time>2021-02-21T15:17:50Z</time>
      </trkpt>
      <trkpt lat="43.92562" lon="5.4078">
        <ele>304.492</ele>
        <time>2021-02-21T15:17:56Z</time>
      </trkpt>
      <trkpt lat="43.92551" lon="5.40809">
        <ele>303.431</ele>
        <time>2021-02-21T15:18:01Z</time>
      </trkpt>
      <trkpt lat="43.92547" lon="5.40816">
        <ele>302.622</ele>
        <time>2021-02-21T15:18:04Z</time>
      </trkpt>
      <trkpt lat="43.92543" lon="5.40824">
        <ele>302.283</ele>
        <time>2021-02-21T15:18:06Z</time>
      </trkpt>
      <trkpt lat="43.92535" lon="5.40833">
        <ele>301.887</ele>
        <time>2021-02-21T15:18:08Z</time>
      </trkpt>
      <trkpt lat="43.92509" lon="5.40861">
        <ele>300.658</ele>
        <time>2021-02-21T15:18:14Z</time>
      </trkpt>
      <trkpt lat="43.92499" lon="5.40868">
        <ele>300.231</ele>
        <time>2021-02-21T15:18:16Z</time>
      </trkpt>
      <trkpt lat="43.92488" lon="5.40873">
        <ele>299.661</ele>
        <time>2021-02-21T15:18:18Z</time>
      </trkpt>
      <trkpt lat="43.92482" lon="5.40875">
        <ele>299.407</ele>
        <time>2021-02-21T15:18:19Z</time>
      </trkpt>
      <trkpt lat="43.92445" lon="5.4088">
        <ele>298.008</ele>
        <time>2021-02-21T15:18:25Z</time>
      </trkpt>
      <trkpt lat="43.9243" lon="5.4088">
        <ele>297.449</ele>
        <time>2021-02-21T15:18:28Z</time>
      </trkpt>
      <trkpt lat="43.92427" lon="5.4088">
        <ele>296.669</ele>
        <time>2021-02-21T15:18:31Z</time>
      </trkpt>
      <trkpt lat="43.92427" lon="5.4088">
        <ele>295.016</ele>
        <time>2021-02-21T15:18:42Z</time>
      </trkpt>
      <trkpt lat="43.92428" lon="5.4088">
        <ele>293.015</ele>
        <time>2021-02-21T15:18:53Z</time>
      </trkpt>
      <trkpt lat="43.92422" lon="5.40879">
        <ele>292.226</ele>
        <time>2021-02-21T15:18:57Z</time>
      </trkpt>
      <trkpt lat="43.92408" lon="5.40875">
        <ele>291.427</ele>
        <time>2021-02-21T15:19:02Z</time>
      </trkpt>
      <trkpt lat="43.92395" lon="5.4087">
        <ele>290.811</ele>
        <time>2021-02-21T15:19:05Z</time>
      </trkpt>
      <trkpt lat="43.9239" lon="5.40869">
        <ele>290.622</ele>
        <time>2021-02-21T15:19:06Z</time>
      </trkpt>
      <trkpt lat="43.92369" lon="5.40862">
        <ele>289.856</ele>
        <time>2021-02-21T15:19:10Z</time>
      </trkpt>
      <trkpt lat="43.92357" lon="5.40859">
        <ele>289.459</ele>
        <time>2021-02-21T15:19:12Z</time>
      </trkpt>
      <trkpt lat="43.92313" lon="5.40845">
        <ele>288.414</ele>
        <time>2021-02-21T15:19:19Z</time>
      </trkpt>
      <trkpt lat="43.92266" lon="5.40829">
        <ele>287.008</ele>
        <time>2021-02-21T15:19:27Z</time>
      </trkpt>
      <trkpt lat="43.92256" lon="5.40824">
        <ele>286.861</ele>
        <time>2021-02-21T15:19:29Z</time>
      </trkpt>
      <trkpt lat="43.92248" lon="5.40823">
        <ele>286.491</ele>
        <time>2021-02-21T15:19:31Z</time>
      </trkpt>
      <trkpt lat="43.92245" lon="5.40823">
        <ele>285.858</ele>
        <time>2021-02-21T15:19:34Z</time>
      </trkpt>
      <trkpt lat="43.92241" lon="5.40821">
        <ele>284.867</ele>
        <time>2021-02-21T15:19:42Z</time>
      </trkpt>
      <trkpt lat="43.92238" lon="5.40821">
        <ele>284.218</ele>
        <time>2021-02-21T15:19:46Z</time>
      </trkpt>
      <trkpt lat="43.92238" lon="5.40821">
        <ele>283.069</ele>
        <time>2021-02-21T15:19:57Z</time>
      </trkpt>
      <trkpt lat="43.92238" lon="5.40821">
        <ele>282.283</ele>
        <time>2021-02-21T15:20:06Z</time>
      </trkpt>
      <trkpt lat="43.92238" lon="5.40821">
        <ele>281.024</ele>
        <time>2021-02-21T15:20:21Z</time>
      </trkpt>
      <trkpt lat="43.92238" lon="5.4082">
        <ele>280.285</ele>
        <time>2021-02-21T15:20:34Z</time>
      </trkpt>
      <trkpt lat="43.92238" lon="5.4082">
        <ele>279.689</ele>
        <time>2021-02-21T15:20:46Z</time>
      </trkpt>
      <trkpt lat="43.92238" lon="5.4082">
        <ele>279.017</ele>
        <time>2021-02-21T15:21:02Z</time>
      </trkpt>
      <trkpt lat="43.92239" lon="5.40821">
        <ele>278.608</ele>
        <time>2021-02-21T15:21:11Z</time>
      </trkpt>
      <trkpt lat="43.92239" lon="5.40821">
        <ele>278.224</ele>
        <time>2021-02-21T15:21:25Z</time>
      </trkpt>
      <trkpt lat="43.92239" lon="5.40821">
        <ele>278.034</ele>
        <time>2021-02-21T15:21:37Z</time>
      </trkpt>
      <trkpt lat="43.92238" lon="5.40821">
        <ele>277.881</ele>
        <time>2021-02-21T15:21:52Z</time>
      </trkpt>
      <trkpt lat="43.92238" lon="5.40821">
        <ele>277.45</ele>
        <time>2021-02-21T15:22:10Z</time>
      </trkpt>
      <trkpt lat="43.92238" lon="5.40821">
        <ele>277.271</ele>
        <time>2021-02-21T15:22:24Z</time>
      </trkpt>
      <trkpt lat="43.92239" lon="5.40822">
        <ele>277.252</ele>
        <time>2021-02-21T15:22:39Z</time>
      </trkpt>
      <trkpt lat="43.92239" lon="5.40822">
        <ele>277.296</ele>
        <time>2021-02-21T15:22:56Z</time>
      </trkpt>
      <trkpt lat="43.92239" lon="5.40821">
        <ele>277.437</ele>
        <time>2021-02-21T15:23:17Z</time>
      </trkpt>
      <trkpt lat="43.92239" lon="5.40821">
        <ele>277.693</ele>
        <time>2021-02-21T15:23:33Z</time>
      </trkpt>
      <trkpt lat="43.92239" lon="5.40821">
        <ele>277.665</ele>
        <time>2021-02-21T15:23:51Z</time>
      </trkpt>
      <trkpt lat="43.92239" lon="5.40821">
        <ele>277.621</ele>
        <time>2021-02-21T15:24:07Z</time>
      </trkpt>
      <trkpt lat="43.92239" lon="5.4082">
        <ele>277.608</ele>
        <time>2021-02-21T15:24:32Z</time>
      </trkpt>
      <trkpt lat="43.92239" lon="5.4082">
        <ele>277.655</ele>
        <time>2021-02-21T15:24:53Z</time>
      </trkpt>
      <trkpt lat="43.92239" lon="5.4082">
        <ele>277.635</ele>
        <time>2021-02-21T15:25:08Z</time>
      </trkpt>
      <trkpt lat="43.92239" lon="5.40821">
        <ele>277.672</ele>
        <time>2021-02-21T15:25:19Z</time>
      </trkpt>
      <trkpt lat="43.92238" lon="5.40824">
        <ele>277.821</ele>
        <time>2021-02-21T15:25:33Z</time>
      </trkpt>
      <trkpt lat="43.92234" lon="5.40826">
        <ele>277.862</ele>
        <time>2021-02-21T15:25:36Z</time>
      </trkpt>
      <trkpt lat="43.92232" lon="5.40825">
        <ele>277.873</ele>
        <time>2021-02-21T15:25:37Z</time>
      </trkpt>
      <trkpt lat="43.92229" lon="5.40823">
        <ele>277.837</ele>
        <time>2021-02-21T15:25:39Z</time>
      </trkpt>
      <trkpt lat="43.92222" lon="5.40824">
        <ele>277.828</ele>
        <time>2021-02-21T15:25:42Z</time>
      </trkpt>
      <trkpt lat="43.92215" lon="5.40828">
        <ele>277.828</ele>
        <time>2021-02-21T15:25:44Z</time>
      </trkpt>
      <trkpt lat="43.92209" lon="5.40835">
        <ele>277.889</ele>
        <time>2021-02-21T15:25:46Z</time>
      </trkpt>
      <trkpt lat="43.92207" lon="5.40848">
        <ele>278.017</ele>
        <time>2021-02-21T15:25:48Z</time>
      </trkpt>
      <trkpt lat="43.92206" lon="5.40862">
        <ele>278.008</ele>
        <time>2021-02-21T15:25:50Z</time>
      </trkpt>
      <trkpt lat="43.922" lon="5.4089">
        <ele>277.828</ele>
        <time>2021-02-21T15:25:54Z</time>
      </trkpt>
      <trkpt lat="43.92198" lon="5.40896">
        <ele>277.868</ele>
        <time>2021-02-21T15:25:55Z</time>
      </trkpt>
      <trkpt lat="43.92195" lon="5.40902">
        <ele>277.675</ele>
        <time>2021-02-21T15:25:56Z</time>
      </trkpt>
      <trkpt lat="43.92182" lon="5.40924">
        <ele>277.664</ele>
        <time>2021-02-21T15:26:00Z</time>
      </trkpt>
      <trkpt lat="43.9216" lon="5.40956">
        <ele>277.465</ele>
        <time>2021-02-21T15:26:06Z</time>
      </trkpt>
      <trkpt lat="43.92135" lon="5.40982">
        <ele>277.256</ele>
        <time>2021-02-21T15:26:12Z</time>
      </trkpt>
      <trkpt lat="43.92109" lon="5.40992">
        <ele>277.24</ele>
        <time>2021-02-21T15:26:17Z</time>
      </trkpt>
      <trkpt lat="43.92083" lon="5.41003">
        <ele>277.011</ele>
        <time>2021-02-21T15:26:23Z</time>
      </trkpt>
      <trkpt lat="43.9206" lon="5.41014">
        <ele>277.034</ele>
        <time>2021-02-21T15:26:29Z</time>
      </trkpt>
      <trkpt lat="43.92034" lon="5.41026">
        <ele>277.655</ele>
        <time>2021-02-21T15:26:35Z</time>
      </trkpt>
      <trkpt lat="43.91995" lon="5.41047">
        <ele>277.81</ele>
        <time>2021-02-21T15:26:44Z</time>
      </trkpt>
      <trkpt lat="43.91983" lon="5.41055">
        <ele>278.208</ele>
        <time>2021-02-21T15:26:47Z</time>
      </trkpt>
      <trkpt lat="43.91972" lon="5.41064">
        <ele>278.229</ele>
        <time>2021-02-21T15:26:50Z</time>
      </trkpt>
      <trkpt lat="43.91955" lon="5.41085">
        <ele>278.429</ele>
        <time>2021-02-21T15:26:55Z</time>
      </trkpt>
      <trkpt lat="43.91952" lon="5.4109">
        <ele>278.696</ele>
        <time>2021-02-21T15:26:56Z</time>
      </trkpt>
      <trkpt lat="43.91939" lon="5.41108">
        <ele>278.645</ele>
        <time>2021-02-21T15:27:00Z</time>
      </trkpt>
      <trkpt lat="43.91932" lon="5.41117">
        <ele>278.896</ele>
        <time>2021-02-21T15:27:02Z</time>
      </trkpt>
      <trkpt lat="43.91913" lon="5.41144">
        <ele>279.087</ele>
        <time>2021-02-21T15:27:08Z</time>
      </trkpt>
      <trkpt lat="43.91907" lon="5.41153">
        <ele>279.081</ele>
        <time>2021-02-21T15:27:10Z</time>
      </trkpt>
      <trkpt lat="43.91894" lon="5.41171">
        <ele>279.242</ele>
        <time>2021-02-21T15:27:14Z</time>
      </trkpt>
      <trkpt lat="43.91863" lon="5.41212">
        <ele>279.654</ele>
        <time>2021-02-21T15:27:23Z</time>
      </trkpt>
      <trkpt lat="43.91856" lon="5.41221">
        <ele>279.856</ele>
        <time>2021-02-21T15:27:25Z</time>
      </trkpt>
      <trkpt lat="43.91846" lon="5.41235">
        <ele>280.011</ele>
        <time>2021-02-21T15:27:28Z</time>
      </trkpt>
      <trkpt lat="43.91819" lon="5.41272">
        <ele>280.408</ele>
        <time>2021-02-21T15:27:36Z</time>
      </trkpt>
      <trkpt lat="43.91801" lon="5.41298">
        <ele>280.691</ele>
        <time>2021-02-21T15:27:42Z</time>
      </trkpt>
      <trkpt lat="43.91781" lon="5.41333">
        <ele>281.271</ele>
        <time>2021-02-21T15:27:50Z</time>
      </trkpt>
      <trkpt lat="43.91766" lon="5.41357">
        <ele>281.898</ele>
        <time>2021-02-21T15:27:56Z</time>
      </trkpt>
      <trkpt lat="43.91702" lon="5.41438">
        <ele>307.9</ele>
      </trkpt>
      <trkpt lat="43.91672" lon="5.41478">
        <ele>292.227</ele>
        <time>2021-02-21T15:29:22Z</time>
      </trkpt>
      <trkpt lat="43.91661" lon="5.41491">
        <ele>292.608</ele>
        <time>2021-02-21T15:29:27Z</time>
      </trkpt>
      <trkpt lat="43.91648" lon="5.41509">
        <ele>293.215</ele>
        <time>2021-02-21T15:29:33Z</time>
      </trkpt>
      <trkpt lat="43.91632" lon="5.41534">
        <ele>294.645</ele>
        <time>2021-02-21T15:29:40Z</time>
      </trkpt>
      <trkpt lat="43.91621" lon="5.41552">
        <ele>295.472</ele>
        <time>2021-02-21T15:29:45Z</time>
      </trkpt>
      <trkpt lat="43.91603" lon="5.41582">
        <ele>297.041</ele>
        <time>2021-02-21T15:29:53Z</time>
      </trkpt>
      <trkpt lat="43.91588" lon="5.41603">
        <ele>298.252</ele>
        <time>2021-02-21T15:29:59Z</time>
      </trkpt>
      <trkpt lat="43.91572" lon="5.41625">
        <ele>299.833</ele>
        <time>2021-02-21T15:30:06Z</time>
      </trkpt>
      <trkpt lat="43.9156" lon="5.41641">
        <ele>300.697</ele>
        <time>2021-02-21T15:30:10Z</time>
      </trkpt>
      <trkpt lat="43.91557" lon="5.41645">
        <ele>300.848</ele>
        <time>2021-02-21T15:30:11Z</time>
      </trkpt>
      <trkpt lat="43.91539" lon="5.41673">
        <ele>301.849</ele>
        <time>2021-02-21T15:30:17Z</time>
      </trkpt>
      <trkpt lat="43.91533" lon="5.41683">
        <ele>302.202</ele>
        <time>2021-02-21T15:30:19Z</time>
      </trkpt>
      <trkpt lat="43.91526" lon="5.41693">
        <ele>302.422</ele>
        <time>2021-02-21T15:30:21Z</time>
      </trkpt>
      <trkpt lat="43.91523" lon="5.417">
        <ele>302.608</ele>
        <time>2021-02-21T15:30:22Z</time>
      </trkpt>
      <trkpt lat="43.91519" lon="5.41714">
        <ele>302.84</ele>
        <time>2021-02-21T15:30:24Z</time>
      </trkpt>
      <trkpt lat="43.91516" lon="5.41732">
        <ele>303.24</ele>
        <time>2021-02-21T15:30:26Z</time>
      </trkpt>
      <trkpt lat="43.91501" lon="5.41791">
        <ele>303.487</ele>
        <time>2021-02-21T15:30:32Z</time>
      </trkpt>
      <trkpt lat="43.91489" lon="5.41835">
        <ele>303.846</ele>
        <time>2021-02-21T15:30:37Z</time>
      </trkpt>
      <trkpt lat="43.91485" lon="5.41848">
        <ele>304.287</ele>
        <time>2021-02-21T15:30:39Z</time>
      </trkpt>
      <trkpt lat="43.91479" lon="5.41865">
        <ele>304.438</ele>
        <time>2021-02-21T15:30:42Z</time>
      </trkpt>
      <trkpt lat="43.91478" lon="5.41871">
        <ele>304.612</ele>
        <time>2021-02-21T15:30:43Z</time>
      </trkpt>
      <trkpt lat="43.9147" lon="5.41893">
        <ele>304.893</ele>
        <time>2021-02-21T15:30:47Z</time>
      </trkpt>
      <trkpt lat="43.9146" lon="5.41926">
        <ele>305.467</ele>
        <time>2021-02-21T15:30:53Z</time>
      </trkpt>
      <trkpt lat="43.91452" lon="5.41958">
        <ele>305.881</ele>
        <time>2021-02-21T15:30:59Z</time>
      </trkpt>
      <trkpt lat="43.91445" lon="5.4198">
        <ele>306.219</ele>
        <time>2021-02-21T15:31:04Z</time>
      </trkpt>
      <trkpt lat="43.91431" lon="5.41999">
        <ele>306.608</ele>
        <time>2021-02-21T15:31:10Z</time>
      </trkpt>
      <trkpt lat="43.91408" lon="5.42011">
        <ele>307.832</ele>
        <time>2021-02-21T15:31:17Z</time>
      </trkpt>
      <trkpt lat="43.91389" lon="5.42021">
        <ele>308.492</ele>
        <time>2021-02-21T15:31:23Z</time>
      </trkpt>
      <trkpt lat="43.91367" lon="5.42037">
        <ele>309.099</ele>
        <time>2021-02-21T15:31:30Z</time>
      </trkpt>
      <trkpt lat="43.91356" lon="5.42054">
        <ele>309.428</ele>
        <time>2021-02-21T15:31:35Z</time>
      </trkpt>
      <trkpt lat="43.91352" lon="5.42078">
        <ele>310.229</ele>
        <time>2021-02-21T15:31:40Z</time>
      </trkpt>
      <trkpt lat="43.91354" lon="5.42108">
        <ele>311.89</ele>
        <time>2021-02-21T15:31:46Z</time>
      </trkpt>
      <trkpt lat="43.91356" lon="5.42138">
        <ele>313.494</ele>
        <time>2021-02-21T15:31:53Z</time>
      </trkpt>
      <trkpt lat="43.91352" lon="5.42172">
        <ele>314.855</ele>
        <time>2021-02-21T15:32:01Z</time>
      </trkpt>
      <trkpt lat="43.91349" lon="5.42177">
        <ele>315.646</ele>
        <time>2021-02-21T15:32:05Z</time>
      </trkpt>
      <trkpt lat="43.91349" lon="5.42177">
        <ele>317.488</ele>
        <time>2021-02-21T15:32:17Z</time>
      </trkpt>
      <trkpt lat="43.91349" lon="5.42177">
        <ele>319.416</ele>
        <time>2021-02-21T15:32:31Z</time>
      </trkpt>
      <trkpt lat="43.91348" lon="5.42182">
        <ele>320.208</ele>
        <time>2021-02-21T15:32:39Z</time>
      </trkpt>
      <trkpt lat="43.91344" lon="5.42194">
        <ele>320.86</ele>
        <time>2021-02-21T15:32:43Z</time>
      </trkpt>
      <trkpt lat="43.91337" lon="5.42214">
        <ele>321.49</ele>
        <time>2021-02-21T15:32:47Z</time>
      </trkpt>
      <trkpt lat="43.91331" lon="5.42236">
        <ele>321.897</ele>
        <time>2021-02-21T15:32:51Z</time>
      </trkpt>
      <trkpt lat="43.9133" lon="5.42242">
        <ele>322.036</ele>
        <time>2021-02-21T15:32:52Z</time>
      </trkpt>
      <trkpt lat="43.91322" lon="5.42282">
        <ele>322.467</ele>
        <time>2021-02-21T15:32:58Z</time>
      </trkpt>
      <trkpt lat="43.91317" lon="5.42304">
        <ele>322.698</ele>
        <time>2021-02-21T15:33:01Z</time>
      </trkpt>
      <trkpt lat="43.91311" lon="5.42317">
        <ele>322.642</ele>
        <time>2021-02-21T15:33:03Z</time>
      </trkpt>
      <trkpt lat="43.91296" lon="5.42356">
        <ele>322.823</ele>
        <time>2021-02-21T15:33:08Z</time>
      </trkpt>
      <trkpt lat="43.91293" lon="5.42364">
        <ele>322.841</ele>
        <time>2021-02-21T15:33:09Z</time>
      </trkpt>
      <trkpt lat="43.91292" lon="5.42372">
        <ele>322.881</ele>
        <time>2021-02-21T15:33:10Z</time>
      </trkpt>
      <trkpt lat="43.9129" lon="5.42389">
        <ele>322.609</ele>
        <time>2021-02-21T15:33:12Z</time>
      </trkpt>
      <trkpt lat="43.91291" lon="5.42398">
        <ele>322.608</ele>
        <time>2021-02-21T15:33:13Z</time>
      </trkpt>
      <trkpt lat="43.91292" lon="5.42417">
        <ele>322.64</ele>
        <time>2021-02-21T15:33:15Z</time>
      </trkpt>
      <trkpt lat="43.91296" lon="5.42443">
        <ele>322.67</ele>
        <time>2021-02-21T15:33:18Z</time>
      </trkpt>
      <trkpt lat="43.91298" lon="5.42459">
        <ele>322.867</ele>
        <time>2021-02-21T15:33:20Z</time>
      </trkpt>
      <trkpt lat="43.91303" lon="5.42484">
        <ele>322.236</ele>
        <time>2021-02-21T15:33:23Z</time>
      </trkpt>
      <trkpt lat="43.9131" lon="5.42526">
        <ele>321.827</ele>
        <time>2021-02-21T15:33:28Z</time>
      </trkpt>
      <trkpt lat="43.91311" lon="5.42535">
        <ele>321.628</ele>
        <time>2021-02-21T15:33:29Z</time>
      </trkpt>
      <trkpt lat="43.9132" lon="5.42556">
        <ele>321.432</ele>
        <time>2021-02-21T15:33:32Z</time>
      </trkpt>
      <trkpt lat="43.91328" lon="5.42576">
        <ele>321.253</ele>
        <time>2021-02-21T15:33:36Z</time>
      </trkpt>
      <trkpt lat="43.91334" lon="5.42591">
        <ele>320.847</ele>
        <time>2021-02-21T15:33:41Z</time>
      </trkpt>
      <trkpt lat="43.91334" lon="5.42596">
        <ele>320.829</ele>
        <time>2021-02-21T15:33:42Z</time>
      </trkpt>
      <trkpt lat="43.91336" lon="5.426">
        <ele>320.821</ele>
        <time>2021-02-21T15:33:43Z</time>
      </trkpt>
      <trkpt lat="43.9134" lon="5.42606">
        <ele>320.808</ele>
        <time>2021-02-21T15:33:45Z</time>
      </trkpt>
      <trkpt lat="43.91338" lon="5.42619">
        <ele>320.67</ele>
        <time>2021-02-21T15:33:48Z</time>
      </trkpt>
      <trkpt lat="43.91336" lon="5.42633">
        <ele>320.61</ele>
        <time>2021-02-21T15:33:50Z</time>
      </trkpt>
      <trkpt lat="43.91337" lon="5.4264">
        <ele>320.657</ele>
        <time>2021-02-21T15:33:51Z</time>
      </trkpt>
      <trkpt lat="43.91341" lon="5.42652">
        <ele>320.486</ele>
        <time>2021-02-21T15:33:53Z</time>
      </trkpt>
      <trkpt lat="43.91347" lon="5.42666">
        <ele>320.217</ele>
        <time>2021-02-21T15:33:56Z</time>
      </trkpt>
      <trkpt lat="43.91353" lon="5.42692">
        <ele>319.818</ele>
        <time>2021-02-21T15:34:01Z</time>
      </trkpt>
      <trkpt lat="43.91359" lon="5.42716">
        <ele>319.862</ele>
        <time>2021-02-21T15:34:06Z</time>
      </trkpt>
      <trkpt lat="43.9137" lon="5.42734">
        <ele>319.823</ele>
        <time>2021-02-21T15:34:11Z</time>
      </trkpt>
      <trkpt lat="43.91388" lon="5.42747">
        <ele>319.822</ele>
        <time>2021-02-21T15:34:17Z</time>
      </trkpt>
      <trkpt lat="43.91399" lon="5.42756">
        <ele>320.662</ele>
        <time>2021-02-21T15:34:21Z</time>
      </trkpt>
      <trkpt lat="43.91418" lon="5.42768">
        <ele>320.408</ele>
        <time>2021-02-21T15:34:27Z</time>
      </trkpt>
      <trkpt lat="43.91432" lon="5.42781">
        <ele>320.808</ele>
        <time>2021-02-21T15:34:32Z</time>
      </trkpt>
      <trkpt lat="43.91445" lon="5.42795">
        <ele>321.248</ele>
        <time>2021-02-21T15:34:37Z</time>
      </trkpt>
      <trkpt lat="43.91453" lon="5.42812">
        <ele>321.488</ele>
        <time>2021-02-21T15:34:42Z</time>
      </trkpt>
      <trkpt lat="43.91455" lon="5.42814">
        <ele>321.495</ele>
        <time>2021-02-21T15:34:43Z</time>
      </trkpt>
      <trkpt lat="43.91457" lon="5.42814">
        <ele>321.694</ele>
        <time>2021-02-21T15:34:45Z</time>
      </trkpt>
      <trkpt lat="43.91457" lon="5.42814">
        <ele>322.085</ele>
        <time>2021-02-21T15:34:54Z</time>
      </trkpt>
      <trkpt lat="43.91458" lon="5.42815">
        <ele>322.426</ele>
        <time>2021-02-21T15:35:04Z</time>
      </trkpt>
      <trkpt lat="43.9146" lon="5.42816">
        <ele>322.41</ele>
        <time>2021-02-21T15:35:05Z</time>
      </trkpt>
      <trkpt lat="43.9147" lon="5.42826">
        <ele>322.641</ele>
        <time>2021-02-21T15:35:09Z</time>
      </trkpt>
      <trkpt lat="43.91487" lon="5.42844">
        <ele>322.612</ele>
        <time>2021-02-21T15:35:13Z</time>
      </trkpt>
      <trkpt lat="43.9149" lon="5.42856">
        <ele>322.632</ele>
        <time>2021-02-21T15:35:15Z</time>
      </trkpt>
      <trkpt lat="43.9149" lon="5.42861">
        <ele>322.405</ele>
        <time>2021-02-21T15:35:16Z</time>
      </trkpt>
      <trkpt lat="43.91487" lon="5.42864">
        <ele>322.408</ele>
        <time>2021-02-21T15:35:17Z</time>
      </trkpt>
      <trkpt lat="43.91483" lon="5.42865">
        <ele>322.467</ele>
        <time>2021-02-21T15:35:18Z</time>
      </trkpt>
      <trkpt lat="43.91468" lon="5.42863">
        <ele>322.497</ele>
        <time>2021-02-21T15:35:22Z</time>
      </trkpt>
      <trkpt lat="43.91459" lon="5.42869">
        <ele>322.254</ele>
        <time>2021-02-21T15:35:25Z</time>
      </trkpt>
      <trkpt lat="43.91453" lon="5.42879">
        <ele>322.063</ele>
        <time>2021-02-21T15:35:28Z</time>
      </trkpt>
      <trkpt lat="43.91459" lon="5.42887">
        <ele>321.844</ele>
        <time>2021-02-21T15:35:31Z</time>
      </trkpt>
      <trkpt lat="43.91462" lon="5.42887">
        <ele>321.865</ele>
        <time>2021-02-21T15:35:32Z</time>
      </trkpt>
      <trkpt lat="43.91469" lon="5.42885">
        <ele>321.819</ele>
        <time>2021-02-21T15:35:34Z</time>
      </trkpt>
      <trkpt lat="43.91482" lon="5.42884">
        <ele>321.86</ele>
        <time>2021-02-21T15:35:38Z</time>
      </trkpt>
      <trkpt lat="43.91491" lon="5.42886">
        <ele>321.842</ele>
        <time>2021-02-21T15:35:41Z</time>
      </trkpt>
      <trkpt lat="43.91493" lon="5.42888">
        <ele>321.822</ele>
        <time>2021-02-21T15:35:42Z</time>
      </trkpt>
      <trkpt lat="43.91494" lon="5.4289">
        <ele>321.814</ele>
        <time>2021-02-21T15:35:43Z</time>
      </trkpt>
      <trkpt lat="43.91497" lon="5.42896">
        <ele>321.808</ele>
        <time>2021-02-21T15:35:46Z</time>
      </trkpt>
      <trkpt lat="43.91499" lon="5.42902">
        <ele>321.65</ele>
        <time>2021-02-21T15:35:49Z</time>
      </trkpt>
      <trkpt lat="43.91502" lon="5.42904">
        <ele>321.82</ele>
        <time>2021-02-21T15:35:51Z</time>
      </trkpt>
      <trkpt lat="43.91511" lon="5.42915">
        <ele>321.867</ele>
        <time>2021-02-21T15:35:55Z</time>
      </trkpt>
      <trkpt lat="43.91527" lon="5.42933">
        <ele>322.056</ele>
        <time>2021-02-21T15:36:00Z</time>
      </trkpt>
      <trkpt lat="43.91531" lon="5.42937">
        <ele>322.097</ele>
        <time>2021-02-21T15:36:01Z</time>
      </trkpt>
      <trkpt lat="43.91539" lon="5.42954">
        <ele>322.058</ele>
        <time>2021-02-21T15:36:04Z</time>
      </trkpt>
      <trkpt lat="43.91544" lon="5.42972">
        <ele>322.222</ele>
        <time>2021-02-21T15:36:07Z</time>
      </trkpt>
      <trkpt lat="43.91547" lon="5.42976">
        <ele>322.233</ele>
        <time>2021-02-21T15:36:08Z</time>
      </trkpt>
      <trkpt lat="43.91557" lon="5.42992">
        <ele>322.491</ele>
        <time>2021-02-21T15:36:12Z</time>
      </trkpt>
      <trkpt lat="43.91563" lon="5.43012">
        <ele>322.681</ele>
        <time>2021-02-21T15:36:17Z</time>
      </trkpt>
      <trkpt lat="43.91568" lon="5.43031">
        <ele>322.819</ele>
        <time>2021-02-21T15:36:22Z</time>
      </trkpt>
      <trkpt lat="43.91566" lon="5.43033">
        <ele>322.808</ele>
        <time>2021-02-21T15:36:26Z</time>
      </trkpt>
      <trkpt lat="43.91566" lon="5.43033">
        <ele>323.225</ele>
        <time>2021-02-21T15:36:37Z</time>
      </trkpt>
      <trkpt lat="43.91566" lon="5.43033">
        <ele>323.465</ele>
        <time>2021-02-21T15:36:49Z</time>
      </trkpt>
      <trkpt lat="43.91566" lon="5.43033">
        <ele>323.692</ele>
        <time>2021-02-21T15:37:01Z</time>
      </trkpt>
      <trkpt lat="43.91563" lon="5.43039">
        <ele>324.031</ele>
        <time>2021-02-21T15:37:11Z</time>
      </trkpt>
      <trkpt lat="43.91558" lon="5.43054">
        <ele>324.232</ele>
        <time>2021-02-21T15:37:15Z</time>
      </trkpt>
      <trkpt lat="43.91557" lon="5.4306">
        <ele>324.273</ele>
        <time>2021-02-21T15:37:16Z</time>
      </trkpt>
      <trkpt lat="43.91557" lon="5.43067">
        <ele>324.287</ele>
        <time>2021-02-21T15:37:17Z</time>
      </trkpt>
      <trkpt lat="43.91555" lon="5.43084">
        <ele>324.238</ele>
        <time>2021-02-21T15:37:20Z</time>
      </trkpt>
      <trkpt lat="43.91548" lon="5.43102">
        <ele>324.479</ele>
        <time>2021-02-21T15:37:23Z</time>
      </trkpt>
      <trkpt lat="43.91547" lon="5.43109">
        <ele>324.405</ele>
        <time>2021-02-21T15:37:24Z</time>
      </trkpt>
      <trkpt lat="43.91548" lon="5.43115">
        <ele>324.425</ele>
        <time>2021-02-21T15:37:25Z</time>
      </trkpt>
      <trkpt lat="43.91554" lon="5.43129">
        <ele>324.608</ele>
        <time>2021-02-21T15:37:27Z</time>
      </trkpt>
      <trkpt lat="43.91556" lon="5.43136">
        <ele>324.693</ele>
        <time>2021-02-21T15:37:28Z</time>
      </trkpt>
      <trkpt lat="43.91553" lon="5.43141">
        <ele>324.493</ele>
        <time>2021-02-21T15:37:29Z</time>
      </trkpt>
      <trkpt lat="43.91548" lon="5.43143">
        <ele>324.42</ele>
        <time>2021-02-21T15:37:30Z</time>
      </trkpt>
      <trkpt lat="43.91543" lon="5.43142">
        <ele>324.499</ele>
        <time>2021-02-21T15:37:31Z</time>
      </trkpt>
      <trkpt lat="43.91539" lon="5.4314">
        <ele>324.45</ele>
        <time>2021-02-21T15:37:32Z</time>
      </trkpt>
      <trkpt lat="43.91535" lon="5.43142">
        <ele>324.221</ele>
        <time>2021-02-21T15:37:33Z</time>
      </trkpt>
      <trkpt lat="43.91532" lon="5.43146">
        <ele>324.435</ele>
        <time>2021-02-21T15:37:34Z</time>
      </trkpt>
      <trkpt lat="43.91522" lon="5.43153">
        <ele>324.026</ele>
        <time>2021-02-21T15:37:36Z</time>
      </trkpt>
      <trkpt lat="43.9151" lon="5.43162">
        <ele>323.822</ele>
        <time>2021-02-21T15:37:38Z</time>
      </trkpt>
      <trkpt lat="43.91505" lon="5.43168">
        <ele>323.662</ele>
        <time>2021-02-21T15:37:39Z</time>
      </trkpt>
      <trkpt lat="43.91501" lon="5.43174">
        <ele>323.608</ele>
        <time>2021-02-21T15:37:40Z</time>
      </trkpt>
      <trkpt lat="43.91496" lon="5.4319">
        <ele>323.408</ele>
        <time>2021-02-21T15:37:42Z</time>
      </trkpt>
      <trkpt lat="43.91491" lon="5.43206">
        <ele>323.258</ele>
        <time>2021-02-21T15:37:44Z</time>
      </trkpt>
      <trkpt lat="43.91488" lon="5.43221">
        <ele>323.238</ele>
        <time>2021-02-21T15:37:46Z</time>
      </trkpt>
      <trkpt lat="43.91486" lon="5.43228">
        <ele>323.245</ele>
        <time>2021-02-21T15:37:47Z</time>
      </trkpt>
      <trkpt lat="43.91484" lon="5.43235">
        <ele>323.244</ele>
        <time>2021-02-21T15:37:48Z</time>
      </trkpt>
      <trkpt lat="43.91481" lon="5.43248">
        <ele>323.245</ele>
        <time>2021-02-21T15:37:50Z</time>
      </trkpt>
      <trkpt lat="43.9148" lon="5.43261">
        <ele>323.036</ele>
        <time>2021-02-21T15:37:52Z</time>
      </trkpt>
      <trkpt lat="43.9148" lon="5.43275">
        <ele>323.01</ele>
        <time>2021-02-21T15:37:54Z</time>
      </trkpt>
      <trkpt lat="43.91488" lon="5.43285">
        <ele>322.851</ele>
        <time>2021-02-21T15:37:56Z</time>
      </trkpt>
      <trkpt lat="43.91499" lon="5.43292">
        <ele>322.692</ele>
        <time>2021-02-21T15:37:58Z</time>
      </trkpt>
      <trkpt lat="43.91511" lon="5.43297">
        <ele>322.473</ele>
        <time>2021-02-21T15:38:00Z</time>
      </trkpt>
      <trkpt lat="43.91517" lon="5.43301">
        <ele>322.42</ele>
        <time>2021-02-21T15:38:01Z</time>
      </trkpt>
      <trkpt lat="43.91523" lon="5.43305">
        <ele>322.408</ele>
        <time>2021-02-21T15:38:02Z</time>
      </trkpt>
      <trkpt lat="43.91528" lon="5.43318">
        <ele>322.035</ele>
        <time>2021-02-21T15:38:04Z</time>
      </trkpt>
      <trkpt lat="43.91525" lon="5.43332">
        <ele>321.875</ele>
        <time>2021-02-21T15:38:06Z</time>
      </trkpt>
      <trkpt lat="43.91523" lon="5.43337">
        <ele>321.682</ele>
        <time>2021-02-21T15:38:07Z</time>
      </trkpt>
      <trkpt lat="43.91521" lon="5.4334">
        <ele>321.441</ele>
        <time>2021-02-21T15:38:08Z</time>
      </trkpt>
      <trkpt lat="43.91516" lon="5.43342">
        <ele>321.452</ele>
        <time>2021-02-21T15:38:10Z</time>
      </trkpt>
      <trkpt lat="43.91505" lon="5.43345">
        <ele>321.283</ele>
        <time>2021-02-21T15:38:15Z</time>
      </trkpt>
      <trkpt lat="43.91487" lon="5.43348">
        <ele>320.647</ele>
        <time>2021-02-21T15:38:22Z</time>
      </trkpt>
      <trkpt lat="43.91475" lon="5.4335">
        <ele>320.438</ele>
        <time>2021-02-21T15:38:27Z</time>
      </trkpt>
      <trkpt lat="43.91472" lon="5.4335">
        <ele>320.212</ele>
        <time>2021-02-21T15:38:31Z</time>
      </trkpt>
      <trkpt lat="43.91472" lon="5.4335">
        <ele>319.432</ele>
        <time>2021-02-21T15:38:45Z</time>
      </trkpt>
      <trkpt lat="43.91472" lon="5.4335">
        <ele>318.805</ele>
        <time>2021-02-21T15:38:59Z</time>
      </trkpt>
      <trkpt lat="43.91471" lon="5.43349">
        <ele>317.808</ele>
        <time>2021-02-21T15:39:20Z</time>
      </trkpt>
      <trkpt lat="43.91471" lon="5.43349">
        <ele>317.257</ele>
        <time>2021-02-21T15:39:42Z</time>
      </trkpt>
      <trkpt lat="43.9147" lon="5.4335">
        <ele>316.827</ele>
        <time>2021-02-21T15:40:01Z</time>
      </trkpt>
      <trkpt lat="43.9147" lon="5.4335">
        <ele>316.674</ele>
        <time>2021-02-21T15:40:16Z</time>
      </trkpt>
      <trkpt lat="43.9147" lon="5.4335">
        <ele>316.473</ele>
        <time>2021-02-21T15:40:31Z</time>
      </trkpt>
      <trkpt lat="43.9147" lon="5.4335">
        <ele>316.424</ele>
        <time>2021-02-21T15:40:49Z</time>
      </trkpt>
      <trkpt lat="43.9147" lon="5.4335">
        <ele>316.415</ele>
        <time>2021-02-21T15:41:07Z</time>
      </trkpt>
      <trkpt lat="43.9147" lon="5.4335">
        <ele>316.479</ele>
        <time>2021-02-21T15:41:17Z</time>
      </trkpt>
      <trkpt lat="43.9147" lon="5.4335">
        <ele>316.47</ele>
        <time>2021-02-21T15:41:29Z</time>
      </trkpt>
      <trkpt lat="43.91467" lon="5.43351">
        <ele>316.652</ele>
        <time>2021-02-21T15:41:39Z</time>
      </trkpt>
      <trkpt lat="43.91458" lon="5.43356">
        <ele>316.853</ele>
        <time>2021-02-21T15:41:43Z</time>
      </trkpt>
      <trkpt lat="43.91442" lon="5.43365">
        <ele>316.808</ele>
        <time>2021-02-21T15:41:47Z</time>
      </trkpt>
      <trkpt lat="43.91438" lon="5.43368">
        <ele>316.808</ele>
        <time>2021-02-21T15:41:48Z</time>
      </trkpt>
      <trkpt lat="43.91434" lon="5.43372">
        <ele>316.831</ele>
        <time>2021-02-21T15:41:49Z</time>
      </trkpt>
      <trkpt lat="43.91428" lon="5.4338">
        <ele>316.681</ele>
        <time>2021-02-21T15:41:51Z</time>
      </trkpt>
      <trkpt lat="43.91423" lon="5.4339">
        <ele>316.488</ele>
        <time>2021-02-21T15:41:53Z</time>
      </trkpt>
      <trkpt lat="43.91416" lon="5.4341">
        <ele>316.277</ele>
        <time>2021-02-21T15:41:56Z</time>
      </trkpt>
      <trkpt lat="43.91413" lon="5.43425">
        <ele>316.238</ele>
        <time>2021-02-21T15:41:58Z</time>
      </trkpt>
      <trkpt lat="43.9141" lon="5.43436">
        <ele>316.259</ele>
        <time>2021-02-21T15:42:00Z</time>
      </trkpt>
      <trkpt lat="43.91405" lon="5.43461">
        <ele>316.233</ele>
        <time>2021-02-21T15:42:05Z</time>
      </trkpt>
      <trkpt lat="43.91405" lon="5.43465">
        <ele>316.284</ele>
        <time>2021-02-21T15:42:06Z</time>
      </trkpt>
      <trkpt lat="43.91405" lon="5.43472">
        <ele>316.217</ele>
        <time>2021-02-21T15:42:08Z</time>
      </trkpt>
      <trkpt lat="43.91401" lon="5.43485">
        <ele>316.087</ele>
        <time>2021-02-21T15:42:12Z</time>
      </trkpt>
      <trkpt lat="43.91398" lon="5.43488">
        <ele>316.015</ele>
        <time>2021-02-21T15:42:13Z</time>
      </trkpt>
      <trkpt lat="43.91389" lon="5.43495">
        <ele>315.808</ele>
        <time>2021-02-21T15:42:15Z</time>
      </trkpt>
      <trkpt lat="43.91382" lon="5.43506">
        <ele>315.497</ele>
        <time>2021-02-21T15:42:17Z</time>
      </trkpt>
      <trkpt lat="43.91379" lon="5.43521">
        <ele>315.257</ele>
        <time>2021-02-21T15:42:19Z</time>
      </trkpt>
      <trkpt lat="43.91378" lon="5.43528">
        <ele>315.024</ele>
        <time>2021-02-21T15:42:20Z</time>
      </trkpt>
      <trkpt lat="43.91372" lon="5.4354">
        <ele>314.813</ele>
        <time>2021-02-21T15:42:22Z</time>
      </trkpt>
      <trkpt lat="43.91365" lon="5.43548">
        <ele>314.434</ele>
        <time>2021-02-21T15:42:24Z</time>
      </trkpt>
      <trkpt lat="43.91363" lon="5.43552">
        <ele>314.285</ele>
        <time>2021-02-21T15:42:25Z</time>
      </trkpt>
      <trkpt lat="43.91357" lon="5.43558">
        <ele>314.049</ele>
        <time>2021-02-21T15:42:27Z</time>
      </trkpt>
      <trkpt lat="43.91352" lon="5.43559">
        <ele>314.04</ele>
        <time>2021-02-21T15:42:28Z</time>
      </trkpt>
      <trkpt lat="43.91348" lon="5.4356">
        <ele>314.061</ele>
        <time>2021-02-21T15:42:29Z</time>
      </trkpt>
      <trkpt lat="43.91341" lon="5.43563">
        <ele>313.821</ele>
        <time>2021-02-21T15:42:31Z</time>
      </trkpt>
      <trkpt lat="43.91338" lon="5.43566">
        <ele>313.613</ele>
        <time>2021-02-21T15:42:32Z</time>
      </trkpt>
      <trkpt lat="43.91328" lon="5.43578">
        <ele>313.208</ele>
        <time>2021-02-21T15:42:35Z</time>
      </trkpt>
      <trkpt lat="43.91323" lon="5.43586">
        <ele>313.072</ele>
        <time>2021-02-21T15:42:37Z</time>
      </trkpt>
      <trkpt lat="43.91313" lon="5.43596">
        <ele>312.682</ele>
        <time>2021-02-21T15:42:40Z</time>
      </trkpt>
      <trkpt lat="43.9131" lon="5.436">
        <ele>312.619</ele>
        <time>2021-02-21T15:42:41Z</time>
      </trkpt>
      <trkpt lat="43.91303" lon="5.43605">
        <ele>312.428</ele>
        <time>2021-02-21T15:42:43Z</time>
      </trkpt>
      <trkpt lat="43.91289" lon="5.43601">
        <ele>311.849</ele>
        <time>2021-02-21T15:42:46Z</time>
      </trkpt>
      <trkpt lat="43.91263" lon="5.43598">
        <ele>310.86</ele>
        <time>2021-02-21T15:42:51Z</time>
      </trkpt>
      <trkpt lat="43.91245" lon="5.43604">
        <ele>310.024</ele>
        <time>2021-02-21T15:42:55Z</time>
      </trkpt>
      <trkpt lat="43.91236" lon="5.43607">
        <ele>309.825</ele>
        <time>2021-02-21T15:42:57Z</time>
      </trkpt>
      <trkpt lat="43.91227" lon="5.43611">
        <ele>309.445</ele>
        <time>2021-02-21T15:42:59Z</time>
      </trkpt>
      <trkpt lat="43.91223" lon="5.43612">
        <ele>309.247</ele>
        <time>2021-02-21T15:43:00Z</time>
      </trkpt>
      <trkpt lat="43.91211" lon="5.43613">
        <ele>308.811</ele>
        <time>2021-02-21T15:43:03Z</time>
      </trkpt>
      <trkpt lat="43.91203" lon="5.43618">
        <ele>308.608</ele>
        <time>2021-02-21T15:43:05Z</time>
      </trkpt>
      <trkpt lat="43.91196" lon="5.43627">
        <ele>308.48</ele>
        <time>2021-02-21T15:43:07Z</time>
      </trkpt>
      <trkpt lat="43.91171" lon="5.43656">
        <ele>307.46</ele>
        <time>2021-02-21T15:43:12Z</time>
      </trkpt>
      <trkpt lat="43.91159" lon="5.43658">
        <ele>307.047</ele>
        <time>2021-02-21T15:43:14Z</time>
      </trkpt>
      <trkpt lat="43.91151" lon="5.43647">
        <ele>306.886</ele>
        <time>2021-02-21T15:43:16Z</time>
      </trkpt>
      <trkpt lat="43.91149" lon="5.43639">
        <ele>306.667</ele>
        <time>2021-02-21T15:43:17Z</time>
      </trkpt>
      <trkpt lat="43.91146" lon="5.43632">
        <ele>306.498</ele>
        <time>2021-02-21T15:43:18Z</time>
      </trkpt>
      <trkpt lat="43.91137" lon="5.4361">
        <ele>305.842</ele>
        <time>2021-02-21T15:43:21Z</time>
      </trkpt>
      <trkpt lat="43.91131" lon="5.43597">
        <ele>305.613</ele>
        <time>2021-02-21T15:43:23Z</time>
      </trkpt>
      <trkpt lat="43.91122" lon="5.43588">
        <ele>305.464</ele>
        <time>2021-02-21T15:43:25Z</time>
      </trkpt>
      <trkpt lat="43.91109" lon="5.43582">
        <ele>305.006</ele>
        <time>2021-02-21T15:43:27Z</time>
      </trkpt>
      <trkpt lat="43.91103" lon="5.43581">
        <ele>305.016</ele>
        <time>2021-02-21T15:43:28Z</time>
      </trkpt>
      <trkpt lat="43.91098" lon="5.43581">
        <ele>304.808</ele>
        <time>2021-02-21T15:43:29Z</time>
      </trkpt>
      <trkpt lat="43.91084" lon="5.43585">
        <ele>304.432</ele>
        <time>2021-02-21T15:43:31Z</time>
      </trkpt>
      <trkpt lat="43.91055" lon="5.43591">
        <ele>303.682</ele>
        <time>2021-02-21T15:43:35Z</time>
      </trkpt>
      <trkpt lat="43.91042" lon="5.43592">
        <ele>303.039</ele>
        <time>2021-02-21T15:43:37Z</time>
      </trkpt>
      <trkpt lat="43.9101" lon="5.43601">
        <ele>301.858</ele>
        <time>2021-02-21T15:43:42Z</time>
      </trkpt>
      <trkpt lat="43.90988" lon="5.43597">
        <ele>301.229</ele>
        <time>2021-02-21T15:43:45Z</time>
      </trkpt>
      <trkpt lat="43.90968" lon="5.43604">
        <ele>300.66</ele>
        <time>2021-02-21T15:43:48Z</time>
      </trkpt>
      <trkpt lat="43.90961" lon="5.43607">
        <ele>300.474</ele>
        <time>2021-02-21T15:43:49Z</time>
      </trkpt>
      <trkpt lat="43.90938" lon="5.43611">
        <ele>299.895</ele>
        <time>2021-02-21T15:43:52Z</time>
      </trkpt>
      <trkpt lat="43.90902" lon="5.43612">
        <ele>298.465</ele>
        <time>2021-02-21T15:43:57Z</time>
      </trkpt>
      <trkpt lat="43.90877" lon="5.43614">
        <ele>297.468</ele>
        <time>2021-02-21T15:44:01Z</time>
      </trkpt>
      <trkpt lat="43.90871" lon="5.43617">
        <ele>297.014</ele>
        <time>2021-02-21T15:44:02Z</time>
      </trkpt>
      <trkpt lat="43.90859" lon="5.4362">
        <ele>296.408</ele>
        <time>2021-02-21T15:44:04Z</time>
      </trkpt>
      <trkpt lat="43.90847" lon="5.4362">
        <ele>295.862</ele>
        <time>2021-02-21T15:44:06Z</time>
      </trkpt>
      <trkpt lat="43.9084" lon="5.43619">
        <ele>295.622</ele>
        <time>2021-02-21T15:44:07Z</time>
      </trkpt>
      <trkpt lat="43.90823" lon="5.4362">
        <ele>294.659</ele>
        <time>2021-02-21T15:44:10Z</time>
      </trkpt>
      <trkpt lat="43.90819" lon="5.43622">
        <ele>294.418</ele>
        <time>2021-02-21T15:44:11Z</time>
      </trkpt>
      <trkpt lat="43.90816" lon="5.43626">
        <ele>294.289</ele>
        <time>2021-02-21T15:44:12Z</time>
      </trkpt>
      <trkpt lat="43.90814" lon="5.43636">
        <ele>293.85</ele>
        <time>2021-02-21T15:44:14Z</time>
      </trkpt>
      <trkpt lat="43.90817" lon="5.43669">
        <ele>292.874</ele>
        <time>2021-02-21T15:44:19Z</time>
      </trkpt>
      <trkpt lat="43.90819" lon="5.43709">
        <ele>291.415</ele>
        <time>2021-02-21T15:44:25Z</time>
      </trkpt>
      <trkpt lat="43.90821" lon="5.43716">
        <ele>291.279</ele>
        <time>2021-02-21T15:44:26Z</time>
      </trkpt>
      <trkpt lat="43.90823" lon="5.43729">
        <ele>290.805</ele>
        <time>2021-02-21T15:44:28Z</time>
      </trkpt>
      <trkpt lat="43.90825" lon="5.43742">
        <ele>290.425</ele>
        <time>2021-02-21T15:44:30Z</time>
      </trkpt>
      <trkpt lat="43.90828" lon="5.43763">
        <ele>289.808</ele>
        <time>2021-02-21T15:44:33Z</time>
      </trkpt>
      <trkpt lat="43.90833" lon="5.43779">
        <ele>289.033</ele>
        <time>2021-02-21T15:44:36Z</time>
      </trkpt>
      <trkpt lat="43.90837" lon="5.4379">
        <ele>288.653</ele>
        <time>2021-02-21T15:44:38Z</time>
      </trkpt>
      <trkpt lat="43.90849" lon="5.43802">
        <ele>288.06</ele>
        <time>2021-02-21T15:44:42Z</time>
      </trkpt>
      <trkpt lat="43.90863" lon="5.43809">
        <ele>287.639</ele>
        <time>2021-02-21T15:44:47Z</time>
      </trkpt>
      <trkpt lat="43.90867" lon="5.43807">
        <ele>287.24</ele>
        <time>2021-02-21T15:44:51Z</time>
      </trkpt>
      <trkpt lat="43.90868" lon="5.43807">
        <ele>286.251</ele>
        <time>2021-02-21T15:45:01Z</time>
      </trkpt>
      <trkpt lat="43.90868" lon="5.43807">
        <ele>285.665</ele>
        <time>2021-02-21T15:45:06Z</time>
      </trkpt>
      <trkpt lat="43.90865" lon="5.43814">
        <ele>294.876</ele>
        <time>2021-02-21T10:42:11Z</time>
      </trkpt>
      <trkpt lat="43.90865" lon="5.43814">
        <ele>294.876</ele>
        <time>2021-02-21T10:42:11Z</time>
      </trkpt>
      <trkpt lat="43.90865" lon="5.43814">
        <ele>294.89</ele>
        <time>2021-02-21T10:42:28Z</time>
      </trkpt>
      <trkpt lat="43.90864" lon="5.43813">
        <ele>294.819</ele>
        <time>2021-02-21T10:42:46Z</time>
      </trkpt>
      <trkpt lat="43.90864" lon="5.43813">
        <ele>294.808</ele>
        <time>2021-02-21T10:43:07Z</time>
      </trkpt>
      <trkpt lat="43.90864" lon="5.43813">
        <ele>294.863</ele>
        <time>2021-02-21T10:43:27Z</time>
      </trkpt>
      <trkpt lat="43.90864" lon="5.43813">
        <ele>294.843</ele>
        <time>2021-02-21T10:43:50Z</time>
      </trkpt>
      <trkpt lat="43.90864" lon="5.43813">
        <ele>294.83</ele>
        <time>2021-02-21T10:44:13Z</time>
      </trkpt>
      <trkpt lat="43.90864" lon="5.43813">
        <ele>294.899</ele>
        <time>2021-02-21T10:44:32Z</time>
      </trkpt>
      <trkpt lat="43.90864" lon="5.43812">
        <ele>294.88</ele>
        <time>2021-02-21T10:44:57Z</time>
      </trkpt>
      <trkpt lat="43.90864" lon="5.43812">
        <ele>294.831</ele>
        <time>2021-02-21T10:45:26Z</time>
      </trkpt>
      <trkpt lat="43.90864" lon="5.43812">
        <ele>294.855</ele>
        <time>2021-02-21T10:45:52Z</time>
      </trkpt>
      <trkpt lat="43.90864" lon="5.43812">
        <ele>295.066</ele>
        <time>2021-02-21T10:46:17Z</time>
      </trkpt>
      <trkpt lat="43.90864" lon="5.43812">
        <ele>295.022</ele>
        <time>2021-02-21T10:46:32Z</time>
      </trkpt>
      <trkpt lat="43.90863" lon="5.43812">
        <ele>295.062</ele>
        <time>2021-02-21T10:46:55Z</time>
      </trkpt>
      <trkpt lat="43.90863" lon="5.43812">
        <ele>295.008</ele>
        <time>2021-02-21T10:47:13Z</time>
      </trkpt>
      <trkpt lat="43.90863" lon="5.43812">
        <ele>295.008</ele>
        <time>2021-02-21T10:47:36Z</time>
      </trkpt>
      <trkpt lat="43.90863" lon="5.43812">
        <ele>295.048</ele>
        <time>2021-02-21T10:47:52Z</time>
      </trkpt>
      <trkpt lat="43.90863" lon="5.43812">
        <ele>295.028</ele>
        <time>2021-02-21T10:48:17Z</time>
      </trkpt>
      <trkpt lat="43.90863" lon="5.43812">
        <ele>295.095</ele>
        <time>2021-02-21T10:48:43Z</time>
      </trkpt>
      <trkpt lat="43.90863" lon="5.43812">
        <ele>295.074</ele>
        <time>2021-02-21T10:49:10Z</time>
      </trkpt>
      <trkpt lat="43.90863" lon="5.43812">
        <ele>294.825</ele>
        <time>2021-02-21T10:49:33Z</time>
      </trkpt>
      <trkpt lat="43.90863" lon="5.43812">
        <ele>294.876</ele>
        <time>2021-02-21T10:49:54Z</time>
      </trkpt>
      <trkpt lat="43.90862" lon="5.43812">
        <ele>294.82</ele>
        <time>2021-02-21T10:50:15Z</time>
      </trkpt>
      <trkpt lat="43.90862" lon="5.43812">
        <ele>294.861</ele>
        <time>2021-02-21T10:50:37Z</time>
      </trkpt>
      <trkpt lat="43.90862" lon="5.43811">
        <ele>294.657</ele>
        <time>2021-02-21T10:51:06Z</time>
      </trkpt>
      <trkpt lat="43.90862" lon="5.43811">
        <ele>294.6</ele>
        <time>2021-02-21T10:51:25Z</time>
      </trkpt>
      <trkpt lat="43.90862" lon="5.43812">
        <ele>294.62</ele>
        <time>2021-02-21T10:51:45Z</time>
      </trkpt>
      <trkpt lat="43.90862" lon="5.43812">
        <ele>294.608</ele>
        <time>2021-02-21T10:52:07Z</time>
      </trkpt>
      <trkpt lat="43.90862" lon="5.43812">
        <ele>294.611</ele>
        <time>2021-02-21T10:52:33Z</time>
      </trkpt>
      <trkpt lat="43.90862" lon="5.43811">
        <ele>294.681</ele>
        <time>2021-02-21T10:53:01Z</time>
      </trkpt>
      <trkpt lat="43.90862" lon="5.4381">
        <ele>294.638</ele>
        <time>2021-02-21T10:53:26Z</time>
      </trkpt>
      <trkpt lat="43.90862" lon="5.4381">
        <ele>294.667</ele>
        <time>2021-02-21T10:53:53Z</time>
      </trkpt>
      <trkpt lat="43.90863" lon="5.43811">
        <ele>294.638</ele>
        <time>2021-02-21T10:54:16Z</time>
      </trkpt>
      <trkpt lat="43.90863" lon="5.43811">
        <ele>294.689</ele>
        <time>2021-02-21T10:54:34Z</time>
      </trkpt>
      <trkpt lat="43.90863" lon="5.43811">
        <ele>294.693</ele>
        <time>2021-02-21T10:54:53Z</time>
      </trkpt>
      <trkpt lat="43.90863" lon="5.43811">
        <ele>294.484</ele>
        <time>2021-02-21T10:54:58Z</time>
      </trkpt>
      <trkpt lat="43.90863" lon="5.43811">
        <ele>294.447</ele>
        <time>2021-02-21T10:55:07Z</time>
      </trkpt>
      <trkpt lat="43.90863" lon="5.43812">
        <ele>294.429</ele>
        <time>2021-02-21T10:55:21Z</time>
      </trkpt>
      <trkpt lat="43.90863" lon="5.43812">
        <ele>294.421</ele>
        <time>2021-02-21T10:55:32Z</time>
      </trkpt>
      <trkpt lat="43.90863" lon="5.43812">
        <ele>294.208</ele>
        <time>2021-02-21T10:55:42Z</time>
      </trkpt>
      <trkpt lat="43.90863" lon="5.43812">
        <ele>294.22</ele>
        <time>2021-02-21T10:55:54Z</time>
      </trkpt>
      <trkpt lat="43.90864" lon="5.43811">
        <ele>294.24</ele>
        <time>2021-02-21T10:56:07Z</time>
      </trkpt>
      <trkpt lat="43.90864" lon="5.43811">
        <ele>294.257</ele>
        <time>2021-02-21T10:56:20Z</time>
      </trkpt>
      <trkpt lat="43.90864" lon="5.43811">
        <ele>294.086</ele>
        <time>2021-02-21T10:56:34Z</time>
      </trkpt>
      <trkpt lat="43.90864" lon="5.43811">
        <ele>294.067</ele>
        <time>2021-02-21T10:56:48Z</time>
      </trkpt>
      <trkpt lat="43.90864" lon="5.43811">
        <ele>294.058</ele>
        <time>2021-02-21T10:57:00Z</time>
      </trkpt>
      <trkpt lat="43.90864" lon="5.43811">
        <ele>293.842</ele>
        <time>2021-02-21T10:57:15Z</time>
      </trkpt>
      <trkpt lat="43.90864" lon="5.43811">
        <ele>293.823</ele>
        <time>2021-02-21T10:57:30Z</time>
      </trkpt>
      <trkpt lat="43.90864" lon="5.43811">
        <ele>293.881</ele>
        <time>2021-02-21T10:57:44Z</time>
      </trkpt>
      <trkpt lat="43.90864" lon="5.43811">
        <ele>293.461</ele>
        <time>2021-02-21T10:57:58Z</time>
      </trkpt>
      <trkpt lat="43.90864" lon="5.43811">
        <ele>293.417</ele>
        <time>2021-02-21T10:58:11Z</time>
      </trkpt>
      <trkpt lat="43.90864" lon="5.43811">
        <ele>293.208</ele>
        <time>2021-02-21T10:58:21Z</time>
      </trkpt>
      <trkpt lat="43.90864" lon="5.43811">
        <ele>293.044</ele>
        <time>2021-02-21T10:58:34Z</time>
      </trkpt>
      <trkpt lat="43.90865" lon="5.43812">
        <ele>292.824</ele>
        <time>2021-02-21T10:58:54Z</time>
      </trkpt>
      <trkpt lat="43.90865" lon="5.43812">
        <ele>292.871</ele>
        <time>2021-02-21T10:59:06Z</time>
      </trkpt>
      <trkpt lat="43.90865" lon="5.43812">
        <ele>292.62</ele>
        <time>2021-02-21T10:59:17Z</time>
      </trkpt>
      <trkpt lat="43.90865" lon="5.43812">
        <ele>292.011</ele>
        <time>2021-02-21T10:59:30Z</time>
      </trkpt>
      <trkpt lat="43.90865" lon="5.43812">
        <ele>291.882</ele>
        <time>2021-02-21T10:59:42Z</time>
      </trkpt>
      <trkpt lat="43.90866" lon="5.43811">
        <ele>291.226</ele>
        <time>2021-02-21T10:59:58Z</time>
      </trkpt>
      <trkpt lat="43.90866" lon="5.43811">
        <ele>291.017</ele>
        <time>2021-02-21T11:00:08Z</time>
      </trkpt>
      <trkpt lat="43.90866" lon="5.43811">
        <ele>290.857</ele>
        <time>2021-02-21T11:00:18Z</time>
      </trkpt>
      <trkpt lat="43.90866" lon="5.43811">
        <ele>290.4</ele>
        <time>2021-02-21T11:00:34Z</time>
      </trkpt>
      <trkpt lat="43.90866" lon="5.43811">
        <ele>290.22</ele>
        <time>2021-02-21T11:00:50Z</time>
      </trkpt>
      <trkpt lat="43.90866" lon="5.43811">
        <ele>290.208</ele>
        <time>2021-02-21T11:01:02Z</time>
      </trkpt>
      <trkpt lat="43.90864" lon="5.43809">
        <ele>289.871</ele>
        <time>2021-02-21T11:01:10Z</time>
      </trkpt>
      <trkpt lat="43.90864" lon="5.43808">
        <ele>289.421</ele>
        <time>2021-02-21T11:01:16Z</time>
      </trkpt>
      <trkpt lat="43.90863" lon="5.43807">
        <ele>289.278</ele>
        <time>2021-02-21T11:01:18Z</time>
      </trkpt>
      <trkpt lat="43.9086" lon="5.43806">
        <ele>288.827</ele>
        <time>2021-02-21T11:01:20Z</time>
      </trkpt>
      <trkpt lat="43.90858" lon="5.43806">
        <ele>288.858</ele>
        <time>2021-02-21T11:01:21Z</time>
      </trkpt>
      <trkpt lat="43.90849" lon="5.4381">
        <ele>288.479</ele>
        <time>2021-02-21T11:01:26Z</time>
      </trkpt>
      <trkpt lat="43.90847" lon="5.43808">
        <ele>288.453</ele>
        <time>2021-02-21T11:01:27Z</time>
      </trkpt>
      <trkpt lat="43.90841" lon="5.43805">
        <ele>288.024</ele>
        <time>2021-02-21T11:01:30Z</time>
      </trkpt>
      <trkpt lat="43.90837" lon="5.43802">
        <ele>288.041</ele>
        <time>2021-02-21T11:01:32Z</time>
      </trkpt>
      <trkpt lat="43.90835" lon="5.43799">
        <ele>288.081</ele>
        <time>2021-02-21T11:01:33Z</time>
      </trkpt>
      <trkpt lat="43.9083" lon="5.43777">
        <ele>287.809</ele>
        <time>2021-02-21T11:01:38Z</time>
      </trkpt>
      <trkpt lat="43.90824" lon="5.43748">
        <ele>287.208</ele>
        <time>2021-02-21T11:01:44Z</time>
      </trkpt>
      <trkpt lat="43.90819" lon="5.43721">
        <ele>286.82</ele>
        <time>2021-02-21T11:01:51Z</time>
      </trkpt>
      <trkpt lat="43.90816" lon="5.43699">
        <ele>286.42</ele>
        <time>2021-02-21T11:01:56Z</time>
      </trkpt>
      <trkpt lat="43.90816" lon="5.4366">
        <ele>286.247</ele>
        <time>2021-02-21T11:02:04Z</time>
      </trkpt>
      <trkpt lat="43.90814" lon="5.43629">
        <ele>286.076</ele>
        <time>2021-02-21T11:02:10Z</time>
      </trkpt>
      <trkpt lat="43.90816" lon="5.43625">
        <ele>286.087</ele>
        <time>2021-02-21T11:02:11Z</time>
      </trkpt>
      <trkpt lat="43.90821" lon="5.4362">
        <ele>285.818</ele>
        <time>2021-02-21T11:02:13Z</time>
      </trkpt>
      <trkpt lat="43.90838" lon="5.43619">
        <ele>285.872</ele>
        <time>2021-02-21T11:02:18Z</time>
      </trkpt>
      <trkpt lat="43.90863" lon="5.43619">
        <ele>285.613</ele>
        <time>2021-02-21T11:02:26Z</time>
      </trkpt>
      <trkpt lat="43.90882" lon="5.43613">
        <ele>285.699</ele>
        <time>2021-02-21T11:02:32Z</time>
      </trkpt>
      <trkpt lat="43.90905" lon="5.43612">
        <ele>286.007</ele>
        <time>2021-02-21T11:02:39Z</time>
      </trkpt>
      <trkpt lat="43.90925" lon="5.43611">
        <ele>286.227</ele>
        <time>2021-02-21T11:02:45Z</time>
      </trkpt>
      <trkpt lat="43.90945" lon="5.4361">
        <ele>286.408</ele>
        <time>2021-02-21T11:02:51Z</time>
      </trkpt>
      <trkpt lat="43.90968" lon="5.43606">
        <ele>286.625</ele>
        <time>2021-02-21T11:02:58Z</time>
      </trkpt>
      <trkpt lat="43.9098" lon="5.43602">
        <ele>286.885</ele>
        <time>2021-02-21T11:03:02Z</time>
      </trkpt>
      <trkpt lat="43.91" lon="5.43602">
        <ele>287.232</ele>
        <time>2021-02-21T11:03:08Z</time>
      </trkpt>
      <trkpt lat="43.91012" lon="5.43604">
        <ele>287.671</ele>
        <time>2021-02-21T11:03:12Z</time>
      </trkpt>
      <trkpt lat="43.91025" lon="5.43598">
        <ele>288.072</ele>
        <time>2021-02-21T11:03:16Z</time>
      </trkpt>
      <trkpt lat="43.91028" lon="5.43597">
        <ele>288.253</ele>
        <time>2021-02-21T11:03:17Z</time>
      </trkpt>
      <trkpt lat="43.91037" lon="5.43596">
        <ele>288.277</ele>
        <time>2021-02-21T11:03:20Z</time>
      </trkpt>
      <trkpt lat="43.9105" lon="5.43595">
        <ele>288.638</ele>
        <time>2021-02-21T11:03:24Z</time>
      </trkpt>
      <trkpt lat="43.91067" lon="5.43594">
        <ele>289.247</ele>
        <time>2021-02-21T11:03:29Z</time>
      </trkpt>
      <trkpt lat="43.9108" lon="5.43592">
        <ele>289.629</ele>
        <time>2021-02-21T11:03:33Z</time>
      </trkpt>
      <trkpt lat="43.91091" lon="5.43589">
        <ele>289.821</ele>
        <time>2021-02-21T11:03:37Z</time>
      </trkpt>
      <trkpt lat="43.9111" lon="5.43587">
        <ele>290.608</ele>
        <time>2021-02-21T11:03:43Z</time>
      </trkpt>
      <trkpt lat="43.91125" lon="5.43595">
        <ele>291.29</ele>
        <time>2021-02-21T11:03:48Z</time>
      </trkpt>
      <trkpt lat="43.91133" lon="5.43606">
        <ele>291.83</ele>
        <time>2021-02-21T11:03:52Z</time>
      </trkpt>
      <trkpt lat="43.9115" lon="5.4364">
        <ele>293.247</ele>
        <time>2021-02-21T11:04:01Z</time>
      </trkpt>
      <trkpt lat="43.91164" lon="5.43659">
        <ele>294.066</ele>
        <time>2021-02-21T11:04:07Z</time>
      </trkpt>
      <trkpt lat="43.91169" lon="5.43659">
        <ele>294.437</ele>
        <time>2021-02-21T11:04:09Z</time>
      </trkpt>
      <trkpt lat="43.91174" lon="5.43657">
        <ele>294.868</ele>
        <time>2021-02-21T11:04:11Z</time>
      </trkpt>
      <trkpt lat="43.91186" lon="5.43644">
        <ele>295.622</ele>
        <time>2021-02-21T11:04:17Z</time>
      </trkpt>
      <trkpt lat="43.91195" lon="5.4363">
        <ele>296.453</ele>
        <time>2021-02-21T11:04:22Z</time>
      </trkpt>
      <trkpt lat="43.91207" lon="5.43616">
        <ele>297.471</ele>
        <time>2021-02-21T11:04:28Z</time>
      </trkpt>
      <trkpt lat="43.91218" lon="5.43603">
        <ele>298.241</ele>
        <time>2021-02-21T11:04:33Z</time>
      </trkpt>
      <trkpt lat="43.91231" lon="5.43593">
        <ele>299.215</ele>
        <time>2021-02-21T11:04:39Z</time>
      </trkpt>
      <trkpt lat="43.9125" lon="5.43585">
        <ele>300.008</ele>
        <time>2021-02-21T11:04:46Z</time>
      </trkpt>
      <trkpt lat="43.91265" lon="5.43587">
        <ele>300.843</ele>
        <time>2021-02-21T11:04:51Z</time>
      </trkpt>
      <trkpt lat="43.91278" lon="5.4359">
        <ele>301.453</ele>
        <time>2021-02-21T11:04:56Z</time>
      </trkpt>
      <trkpt lat="43.91294" lon="5.43592">
        <ele>302.25</ele>
        <time>2021-02-21T11:05:02Z</time>
      </trkpt>
      <trkpt lat="43.91311" lon="5.43593">
        <ele>303.229</ele>
        <time>2021-02-21T11:05:08Z</time>
      </trkpt>
      <trkpt lat="43.91314" lon="5.43591">
        <ele>303.65</ele>
        <time>2021-02-21T11:05:12Z</time>
      </trkpt>
      <trkpt lat="43.91315" lon="5.43591">
        <ele>304.671</ele>
        <time>2021-02-21T11:05:20Z</time>
      </trkpt>
      <trkpt lat="43.91317" lon="5.43591">
        <ele>305.085</ele>
        <time>2021-02-21T11:05:22Z</time>
      </trkpt>
      <trkpt lat="43.91322" lon="5.4359">
        <ele>305.486</ele>
        <time>2021-02-21T11:05:25Z</time>
      </trkpt>
      <trkpt lat="43.91327" lon="5.43584">
        <ele>305.829</ele>
        <time>2021-02-21T11:05:28Z</time>
      </trkpt>
      <trkpt lat="43.91331" lon="5.43579">
        <ele>306.2</ele>
        <time>2021-02-21T11:05:30Z</time>
      </trkpt>
      <trkpt lat="43.9134" lon="5.43566">
        <ele>306.82</ele>
        <time>2021-02-21T11:05:35Z</time>
      </trkpt>
      <trkpt lat="43.91348" lon="5.43561">
        <ele>307.408</ele>
        <time>2021-02-21T11:05:39Z</time>
      </trkpt>
      <trkpt lat="43.91361" lon="5.43557">
        <ele>308.098</ele>
        <time>2021-02-21T11:05:44Z</time>
      </trkpt>
      <trkpt lat="43.91368" lon="5.43543">
        <ele>308.218</ele>
        <time>2021-02-21T11:05:48Z</time>
      </trkpt>
      <trkpt lat="43.9137" lon="5.43541">
        <ele>308.495</ele>
        <time>2021-02-21T11:05:49Z</time>
      </trkpt>
      <trkpt lat="43.91375" lon="5.43537">
        <ele>308.624</ele>
        <time>2021-02-21T11:05:51Z</time>
      </trkpt>
      <trkpt lat="43.91384" lon="5.43523">
        <ele>309.015</ele>
        <time>2021-02-21T11:05:55Z</time>
      </trkpt>
      <trkpt lat="43.9139" lon="5.43502">
        <ele>309.646</ele>
        <time>2021-02-21T11:06:00Z</time>
      </trkpt>
      <trkpt lat="43.91402" lon="5.43487">
        <ele>310.03</ele>
        <time>2021-02-21T11:06:05Z</time>
      </trkpt>
      <trkpt lat="43.91412" lon="5.43473">
        <ele>310.611</ele>
        <time>2021-02-21T11:06:09Z</time>
      </trkpt>
      <trkpt lat="43.91407" lon="5.43465">
        <ele>311.232</ele>
        <time>2021-02-21T11:06:12Z</time>
      </trkpt>
      <trkpt lat="43.91406" lon="5.43459">
        <ele>311.492</ele>
        <time>2021-02-21T11:06:14Z</time>
      </trkpt>
      <trkpt lat="43.91408" lon="5.43453">
        <ele>311.811</ele>
        <time>2021-02-21T11:06:16Z</time>
      </trkpt>
      <trkpt lat="43.91408" lon="5.4345">
        <ele>312.008</ele>
        <time>2021-02-21T11:06:17Z</time>
      </trkpt>
      <trkpt lat="43.91407" lon="5.43445">
        <ele>312.229</ele>
        <time>2021-02-21T11:06:19Z</time>
      </trkpt>
      <trkpt lat="43.91408" lon="5.43443">
        <ele>312.479</ele>
        <time>2021-02-21T11:06:20Z</time>
      </trkpt>
      <trkpt lat="43.91411" lon="5.43437">
        <ele>312.866</ele>
        <time>2021-02-21T11:06:23Z</time>
      </trkpt>
      <trkpt lat="43.91412" lon="5.43432">
        <ele>313.215</ele>
        <time>2021-02-21T11:06:25Z</time>
      </trkpt>
      <trkpt lat="43.91417" lon="5.43415">
        <ele>313.436</ele>
        <time>2021-02-21T11:06:30Z</time>
      </trkpt>
      <trkpt lat="43.9142" lon="5.43397">
        <ele>313.897</ele>
        <time>2021-02-21T11:06:35Z</time>
      </trkpt>
      <trkpt lat="43.9143" lon="5.43377">
        <ele>314.671</ele>
        <time>2021-02-21T11:06:41Z</time>
      </trkpt>
      <trkpt lat="43.91444" lon="5.43364">
        <ele>315.072</ele>
        <time>2021-02-21T11:06:47Z</time>
      </trkpt>
      <trkpt lat="43.91458" lon="5.43356">
        <ele>315.491</ele>
        <time>2021-02-21T11:06:53Z</time>
      </trkpt>
      <trkpt lat="43.91472" lon="5.43351">
        <ele>315.881</ele>
        <time>2021-02-21T11:06:58Z</time>
      </trkpt>
      <trkpt lat="43.91474" lon="5.4335">
        <ele>316.019</ele>
        <time>2021-02-21T11:06:59Z</time>
      </trkpt>
      <trkpt lat="43.91483" lon="5.43349">
        <ele>316.008</ele>
        <time>2021-02-21T11:07:02Z</time>
      </trkpt>
      <trkpt lat="43.91491" lon="5.43349">
        <ele>316.265</ele>
        <time>2021-02-21T11:07:06Z</time>
      </trkpt>
      <trkpt lat="43.91508" lon="5.43344">
        <ele>316.425</ele>
        <time>2021-02-21T11:07:11Z</time>
      </trkpt>
      <trkpt lat="43.91513" lon="5.43342">
        <ele>316.462</ele>
        <time>2021-02-21T11:07:12Z</time>
      </trkpt>
      <trkpt lat="43.91522" lon="5.43333">
        <ele>316.651</ele>
        <time>2021-02-21T11:07:14Z</time>
      </trkpt>
      <trkpt lat="43.91528" lon="5.4332">
        <ele>316.622</ele>
        <time>2021-02-21T11:07:17Z</time>
      </trkpt>
      <trkpt lat="43.91529" lon="5.43312">
        <ele>316.633</ele>
        <time>2021-02-21T11:07:19Z</time>
      </trkpt>
      <trkpt lat="43.91525" lon="5.43306">
        <ele>316.817</ele>
        <time>2021-02-21T11:07:21Z</time>
      </trkpt>
      <trkpt lat="43.91508" lon="5.43296">
        <ele>317.228</ele>
        <time>2021-02-21T11:07:26Z</time>
      </trkpt>
      <trkpt lat="43.9149" lon="5.43285">
        <ele>317.495</ele>
        <time>2021-02-21T11:07:32Z</time>
      </trkpt>
      <trkpt lat="43.9148" lon="5.43274">
        <ele>317.849</ele>
        <time>2021-02-21T11:07:36Z</time>
      </trkpt>
      <trkpt lat="43.91479" lon="5.43272">
        <ele>318.023</ele>
        <time>2021-02-21T11:07:37Z</time>
      </trkpt>
      <trkpt lat="43.91479" lon="5.43271">
        <ele>318.208</ele>
        <time>2021-02-21T11:07:41Z</time>
      </trkpt>
      <trkpt lat="43.91479" lon="5.43271">
        <ele>318.815</ele>
        <time>2021-02-21T11:07:54Z</time>
      </trkpt>
      <trkpt lat="43.91479" lon="5.43271">
        <ele>319.675</ele>
        <time>2021-02-21T11:08:12Z</time>
      </trkpt>
      <trkpt lat="43.91479" lon="5.43266">
        <ele>320.012</ele>
        <time>2021-02-21T11:08:18Z</time>
      </trkpt>
      <trkpt lat="43.91481" lon="5.43249">
        <ele>320.461</ele>
        <time>2021-02-21T11:08:22Z</time>
      </trkpt>
      <trkpt lat="43.91482" lon="5.43239">
        <ele>321.032</ele>
        <time>2021-02-21T11:08:26Z</time>
      </trkpt>
      <trkpt lat="43.91482" lon="5.43239">
        <ele>321.693</ele>
        <time>2021-02-21T11:08:40Z</time>
      </trkpt>
      <trkpt lat="43.91482" lon="5.43239">
        <ele>322.647</ele>
        <time>2021-02-21T11:08:57Z</time>
      </trkpt>
      <trkpt lat="43.91482" lon="5.43239">
        <ele>323.448</ele>
        <time>2021-02-21T11:09:17Z</time>
      </trkpt>
      <trkpt lat="43.91485" lon="5.43229">
        <ele>323.657</ele>
        <time>2021-02-21T11:09:21Z</time>
      </trkpt>
      <trkpt lat="43.91491" lon="5.43214">
        <ele>323.8</ele>
        <time>2021-02-21T11:09:26Z</time>
      </trkpt>
      <trkpt lat="43.91493" lon="5.43209">
        <ele>323.82</ele>
        <time>2021-02-21T11:09:28Z</time>
      </trkpt>
      <trkpt lat="43.91493" lon="5.43202">
        <ele>323.808</ele>
        <time>2021-02-21T11:09:30Z</time>
      </trkpt>
      <trkpt lat="43.91504" lon="5.43176">
        <ele>324.051</ele>
        <time>2021-02-21T11:09:37Z</time>
      </trkpt>
      <trkpt lat="43.91518" lon="5.43157">
        <ele>324.081</ele>
        <time>2021-02-21T11:09:43Z</time>
      </trkpt>
      <trkpt lat="43.91526" lon="5.43153">
        <ele>323.878</ele>
        <time>2021-02-21T11:09:46Z</time>
      </trkpt>
      <trkpt lat="43.91539" lon="5.43141">
        <ele>324.217</ele>
        <time>2021-02-21T11:09:50Z</time>
      </trkpt>
      <trkpt lat="43.91542" lon="5.43139">
        <ele>324.078</ele>
        <time>2021-02-21T11:09:51Z</time>
      </trkpt>
      <trkpt lat="43.91548" lon="5.43141">
        <ele>324.029</ele>
        <time>2021-02-21T11:09:53Z</time>
      </trkpt>
      <trkpt lat="43.91554" lon="5.43142">
        <ele>323.893</ele>
        <time>2021-02-21T11:09:55Z</time>
      </trkpt>
      <trkpt lat="43.91558" lon="5.43139">
        <ele>323.844</ele>
        <time>2021-02-21T11:09:56Z</time>
      </trkpt>
      <trkpt lat="43.9156" lon="5.43135">
        <ele>323.848</ele>
        <time>2021-02-21T11:09:57Z</time>
      </trkpt>
      <trkpt lat="43.91558" lon="5.43127">
        <ele>324.061</ele>
        <time>2021-02-21T11:09:59Z</time>
      </trkpt>
      <trkpt lat="43.9155" lon="5.43113">
        <ele>324.217</ele>
        <time>2021-02-21T11:10:03Z</time>
      </trkpt>
      <trkpt lat="43.9155" lon="5.43099">
        <ele>324.408</ele>
        <time>2021-02-21T11:10:06Z</time>
      </trkpt>
      <trkpt lat="43.9156" lon="5.43074">
        <ele>324.69</ele>
        <time>2021-02-21T11:10:12Z</time>
      </trkpt>
      <trkpt lat="43.9156" lon="5.43046">
        <ele>325.24</ele>
        <time>2021-02-21T11:10:18Z</time>
      </trkpt>
      <trkpt lat="43.91567" lon="5.43033">
        <ele>325.457</ele>
        <time>2021-02-21T11:10:22Z</time>
      </trkpt>
      <trkpt lat="43.91568" lon="5.4303">
        <ele>325.666</ele>
        <time>2021-02-21T11:10:23Z</time>
      </trkpt>
      <trkpt lat="43.91565" lon="5.43023">
        <ele>325.817</ele>
        <time>2021-02-21T11:10:25Z</time>
      </trkpt>
      <trkpt lat="43.91561" lon="5.43016">
        <ele>326.018</ele>
        <time>2021-02-21T11:10:27Z</time>
      </trkpt>
      <trkpt lat="43.91559" lon="5.43008">
        <ele>326.232</ele>
        <time>2021-02-21T11:10:29Z</time>
      </trkpt>
      <trkpt lat="43.91553" lon="5.42994">
        <ele>326.463</ele>
        <time>2021-02-21T11:10:34Z</time>
      </trkpt>
      <trkpt lat="43.91552" lon="5.42994">
        <ele>326.837</ele>
        <time>2021-02-21T11:10:40Z</time>
      </trkpt>
      <trkpt lat="43.91552" lon="5.42994">
        <ele>327.449</ele>
        <time>2021-02-21T11:10:52Z</time>
      </trkpt>
      <trkpt lat="43.91552" lon="5.42994">
        <ele>328.213</ele>
        <time>2021-02-21T11:11:09Z</time>
      </trkpt>
      <trkpt lat="43.91552" lon="5.42994">
        <ele>329.008</ele>
        <time>2021-02-21T11:11:26Z</time>
      </trkpt>
      <trkpt lat="43.91552" lon="5.42994">
        <ele>329.659</ele>
        <time>2021-02-21T11:11:44Z</time>
      </trkpt>
      <trkpt lat="43.91552" lon="5.42994">
        <ele>330.259</ele>
        <time>2021-02-21T11:12:05Z</time>
      </trkpt>
      <trkpt lat="43.91552" lon="5.42994">
        <ele>330.686</ele>
        <time>2021-02-21T11:12:20Z</time>
      </trkpt>
      <trkpt lat="43.91552" lon="5.42994">
        <ele>331.085</ele>
        <time>2021-02-21T11:12:38Z</time>
      </trkpt>
      <trkpt lat="43.9155" lon="5.42985">
        <ele>331.056</ele>
        <time>2021-02-21T11:12:41Z</time>
      </trkpt>
      <trkpt lat="43.91548" lon="5.42982">
        <ele>331.067</ele>
        <time>2021-02-21T11:12:42Z</time>
      </trkpt>
      <trkpt lat="43.91544" lon="5.42974">
        <ele>331.041</ele>
        <time>2021-02-21T11:12:44Z</time>
      </trkpt>
      <trkpt lat="43.91541" lon="5.42969">
        <ele>331.252</ele>
        <time>2021-02-21T11:12:45Z</time>
      </trkpt>
      <trkpt lat="43.91539" lon="5.42964">
        <ele>330.862</ele>
        <time>2021-02-21T11:12:46Z</time>
      </trkpt>
      <trkpt lat="43.91537" lon="5.42948">
        <ele>330.683</ele>
        <time>2021-02-21T11:12:49Z</time>
      </trkpt>
      <trkpt lat="43.91528" lon="5.42936">
        <ele>330.411</ele>
        <time>2021-02-21T11:12:53Z</time>
      </trkpt>
      <trkpt lat="43.91513" lon="5.4292">
        <ele>330.008</ele>
        <time>2021-02-21T11:12:57Z</time>
      </trkpt>
      <trkpt lat="43.91499" lon="5.42903">
        <ele>329.842</ele>
        <time>2021-02-21T11:13:01Z</time>
      </trkpt>
      <trkpt lat="43.91497" lon="5.42896">
        <ele>329.672</ele>
        <time>2021-02-21T11:13:03Z</time>
      </trkpt>
      <trkpt lat="43.91495" lon="5.4289">
        <ele>329.459</ele>
        <time>2021-02-21T11:13:05Z</time>
      </trkpt>
      <trkpt lat="43.9149" lon="5.42882">
        <ele>329.688</ele>
        <time>2021-02-21T11:13:09Z</time>
      </trkpt>
      <trkpt lat="43.91489" lon="5.42883">
        <ele>329.419</ele>
        <time>2021-02-21T11:13:15Z</time>
      </trkpt>
      <trkpt lat="43.91487" lon="5.42884">
        <ele>329.42</ele>
        <time>2021-02-21T11:13:16Z</time>
      </trkpt>
      <trkpt lat="43.91485" lon="5.42885">
        <ele>329.254</ele>
        <time>2021-02-21T11:13:17Z</time>
      </trkpt>
      <trkpt lat="43.91476" lon="5.42885">
        <ele>329.025</ele>
        <time>2021-02-21T11:13:20Z</time>
      </trkpt>
      <trkpt lat="43.91462" lon="5.42886">
        <ele>328.441</ele>
        <time>2021-02-21T11:13:23Z</time>
      </trkpt>
      <trkpt lat="43.91454" lon="5.42883">
        <ele>328.281</ele>
        <time>2021-02-21T11:13:25Z</time>
      </trkpt>
      <trkpt lat="43.91454" lon="5.42875">
        <ele>327.809</ele>
        <time>2021-02-21T11:13:27Z</time>
      </trkpt>
      <trkpt lat="43.91456" lon="5.42871">
        <ele>327.608</ele>
        <time>2021-02-21T11:13:28Z</time>
      </trkpt>
      <trkpt lat="43.9146" lon="5.42867">
        <ele>327.68</ele>
        <time>2021-02-21T11:13:29Z</time>
      </trkpt>
      <trkpt lat="43.91468" lon="5.42862">
        <ele>327.25</ele>
        <time>2021-02-21T11:13:31Z</time>
      </trkpt>
      <trkpt lat="43.91473" lon="5.42861">
        <ele>327.267</ele>
        <time>2021-02-21T11:13:32Z</time>
      </trkpt>
      <trkpt lat="43.91483" lon="5.42862">
        <ele>326.876</ele>
        <time>2021-02-21T11:13:34Z</time>
      </trkpt>
      <trkpt lat="43.9149" lon="5.42857">
        <ele>326.697</ele>
        <time>2021-02-21T11:13:36Z</time>
      </trkpt>
      <trkpt lat="43.91491" lon="5.4285">
        <ele>326.478</ele>
        <time>2021-02-21T11:13:38Z</time>
      </trkpt>
      <trkpt lat="43.9149" lon="5.42848">
        <ele>326.482</ele>
        <time>2021-02-21T11:13:39Z</time>
      </trkpt>
      <trkpt lat="43.91485" lon="5.42838">
        <ele>326.423</ele>
        <time>2021-02-21T11:13:44Z</time>
      </trkpt>
      <trkpt lat="43.91474" lon="5.42827">
        <ele>326.286</ele>
        <time>2021-02-21T11:13:49Z</time>
      </trkpt>
      <trkpt lat="43.91461" lon="5.42814">
        <ele>326.46</ele>
        <time>2021-02-21T11:13:54Z</time>
      </trkpt>
      <trkpt lat="43.91453" lon="5.42807">
        <ele>325.426</ele>
        <time>2021-02-21T11:13:57Z</time>
      </trkpt>
      <trkpt lat="43.91449" lon="5.42799">
        <ele>326.008</ele>
        <time>2021-02-21T11:13:59Z</time>
      </trkpt>
      <trkpt lat="43.91438" lon="5.42786">
        <ele>326.624</ele>
        <time>2021-02-21T11:14:02Z</time>
      </trkpt>
      <trkpt lat="43.91433" lon="5.42781">
        <ele>326.494</ele>
        <time>2021-02-21T11:14:03Z</time>
      </trkpt>
      <trkpt lat="43.91427" lon="5.42777">
        <ele>326.021</ele>
        <time>2021-02-21T11:14:04Z</time>
      </trkpt>
      <trkpt lat="43.91411" lon="5.42764">
        <ele>326.03</ele>
        <time>2021-02-21T11:14:07Z</time>
      </trkpt>
      <trkpt lat="43.91406" lon="5.4276">
        <ele>326.021</ele>
        <time>2021-02-21T11:14:08Z</time>
      </trkpt>
      <trkpt lat="43.91389" lon="5.4275">
        <ele>325.882</ele>
        <time>2021-02-21T11:14:11Z</time>
      </trkpt>
      <trkpt lat="43.91385" lon="5.42745">
        <ele>325.646</ele>
        <time>2021-02-21T11:14:12Z</time>
      </trkpt>
      <trkpt lat="43.9138" lon="5.42741">
        <ele>325.697</ele>
        <time>2021-02-21T11:14:13Z</time>
      </trkpt>
      <trkpt lat="43.91371" lon="5.42735">
        <ele>325.473</ele>
        <time>2021-02-21T11:14:15Z</time>
      </trkpt>
      <trkpt lat="43.91365" lon="5.42725">
        <ele>325.285</ele>
        <time>2021-02-21T11:14:17Z</time>
      </trkpt>
      <trkpt lat="43.91361" lon="5.42718">
        <ele>325.213</ele>
        <time>2021-02-21T11:14:18Z</time>
      </trkpt>
      <trkpt lat="43.91358" lon="5.42711">
        <ele>325.008</ele>
        <time>2021-02-21T11:14:19Z</time>
      </trkpt>
      <trkpt lat="43.91354" lon="5.42694">
        <ele>324.663</ele>
        <time>2021-02-21T11:14:21Z</time>
      </trkpt>
      <trkpt lat="43.9135" lon="5.42678">
        <ele>324.093</ele>
        <time>2021-02-21T11:14:24Z</time>
      </trkpt>
      <trkpt lat="43.91349" lon="5.42666">
        <ele>323.27</ele>
        <time>2021-02-21T11:14:29Z</time>
      </trkpt>
      <trkpt lat="43.91345" lon="5.4265">
        <ele>322.669</ele>
        <time>2021-02-21T11:14:35Z</time>
      </trkpt>
      <trkpt lat="43.9134" lon="5.42633">
        <ele>322.24</ele>
        <time>2021-02-21T11:14:39Z</time>
      </trkpt>
      <trkpt lat="43.91342" lon="5.42619">
        <ele>322.241</ele>
        <time>2021-02-21T11:14:43Z</time>
      </trkpt>
      <trkpt lat="43.91343" lon="5.42613">
        <ele>322.295</ele>
        <time>2021-02-21T11:14:45Z</time>
      </trkpt>
      <trkpt lat="43.91342" lon="5.42607">
        <ele>322.036</ele>
        <time>2021-02-21T11:14:47Z</time>
      </trkpt>
      <trkpt lat="43.91341" lon="5.42606">
        <ele>322.022</ele>
        <time>2021-02-21T11:14:48Z</time>
      </trkpt>
      <trkpt lat="43.91339" lon="5.42605">
        <ele>321.662</ele>
        <time>2021-02-21T11:14:53Z</time>
      </trkpt>
      <trkpt lat="43.91336" lon="5.42601">
        <ele>321.608</ele>
        <time>2021-02-21T11:14:55Z</time>
      </trkpt>
      <trkpt lat="43.91333" lon="5.42585">
        <ele>321.408</ele>
        <time>2021-02-21T11:15:00Z</time>
      </trkpt>
      <trkpt lat="43.91324" lon="5.4257">
        <ele>321.418</ele>
        <time>2021-02-21T11:15:05Z</time>
      </trkpt>
      <trkpt lat="43.91319" lon="5.42554">
        <ele>321.248</ele>
        <time>2021-02-21T11:15:11Z</time>
      </trkpt>
      <trkpt lat="43.91317" lon="5.42542">
        <ele>321.045</ele>
        <time>2021-02-21T11:15:16Z</time>
      </trkpt>
      <trkpt lat="43.91317" lon="5.42542">
        <ele>320.894</ele>
        <time>2021-02-21T11:15:27Z</time>
      </trkpt>
      <trkpt lat="43.91317" lon="5.42542">
        <ele>320.635</ele>
        <time>2021-02-21T11:15:39Z</time>
      </trkpt>
      <trkpt lat="43.91317" lon="5.42542">
        <ele>320.496</ele>
        <time>2021-02-21T11:15:55Z</time>
      </trkpt>
      <trkpt lat="43.91315" lon="5.42542">
        <ele>320.43</ele>
        <time>2021-02-21T11:16:10Z</time>
      </trkpt>
      <trkpt lat="43.91313" lon="5.42541">
        <ele>320.461</ele>
        <time>2021-02-21T11:16:11Z</time>
      </trkpt>
      <trkpt lat="43.91312" lon="5.42538">
        <ele>320.492</ele>
        <time>2021-02-21T11:16:12Z</time>
      </trkpt>
      <trkpt lat="43.91311" lon="5.42532">
        <ele>320.473</ele>
        <time>2021-02-21T11:16:15Z</time>
      </trkpt>
      <trkpt lat="43.91308" lon="5.42511">
        <ele>320.22</ele>
        <time>2021-02-21T11:16:23Z</time>
      </trkpt>
      <trkpt lat="43.91306" lon="5.42489">
        <ele>320.408</ele>
        <time>2021-02-21T11:16:29Z</time>
      </trkpt>
      <trkpt lat="43.91306" lon="5.42486">
        <ele>320.415</ele>
        <time>2021-02-21T11:16:30Z</time>
      </trkpt>
      <trkpt lat="43.91303" lon="5.42465">
        <ele>320.475</ele>
        <time>2021-02-21T11:16:36Z</time>
      </trkpt>
      <trkpt lat="43.91301" lon="5.42448">
        <ele>320.882</ele>
        <time>2021-02-21T11:16:41Z</time>
      </trkpt>
      <trkpt lat="43.91298" lon="5.42426">
        <ele>321.261</ele>
        <time>2021-02-21T11:16:47Z</time>
      </trkpt>
      <trkpt lat="43.91297" lon="5.42405">
        <ele>321.492</ele>
        <time>2021-02-21T11:16:52Z</time>
      </trkpt>
      <trkpt lat="43.91297" lon="5.4238">
        <ele>321.813</ele>
        <time>2021-02-21T11:16:58Z</time>
      </trkpt>
      <trkpt lat="43.91304" lon="5.42348">
        <ele>322.477</ele>
        <time>2021-02-21T11:17:06Z</time>
      </trkpt>
      <trkpt lat="43.91314" lon="5.42324">
        <ele>322.878</ele>
        <time>2021-02-21T11:17:13Z</time>
      </trkpt>
      <trkpt lat="43.91326" lon="5.42294">
        <ele>323.444</ele>
        <time>2021-02-21T11:17:21Z</time>
      </trkpt>
      <trkpt lat="43.91329" lon="5.42263">
        <ele>324.005</ele>
        <time>2021-02-21T11:17:28Z</time>
      </trkpt>
      <trkpt lat="43.91336" lon="5.42233">
        <ele>324.615</ele>
        <time>2021-02-21T11:17:35Z</time>
      </trkpt>
      <trkpt lat="43.91346" lon="5.42202">
        <ele>325.208</ele>
        <time>2021-02-21T11:17:42Z</time>
      </trkpt>
      <trkpt lat="43.91355" lon="5.42174">
        <ele>325.85</ele>
        <time>2021-02-21T11:17:48Z</time>
      </trkpt>
      <trkpt lat="43.91361" lon="5.42162">
        <ele>326.28</ele>
        <time>2021-02-21T11:17:51Z</time>
      </trkpt>
      <trkpt lat="43.91361" lon="5.42156">
        <ele>326.437</ele>
        <time>2021-02-21T11:17:52Z</time>
      </trkpt>
      <trkpt lat="43.91365" lon="5.4214">
        <ele>326.856</ele>
        <time>2021-02-21T11:17:55Z</time>
      </trkpt>
      <trkpt lat="43.91365" lon="5.42134">
        <ele>326.897</ele>
        <time>2021-02-21T11:17:56Z</time>
      </trkpt>
      <trkpt lat="43.91363" lon="5.42119">
        <ele>327.058</ele>
        <time>2021-02-21T11:17:58Z</time>
      </trkpt>
      <trkpt lat="43.91362" lon="5.42106">
        <ele>327.472</ele>
        <time>2021-02-21T11:18:00Z</time>
      </trkpt>
      <trkpt lat="43.91364" lon="5.42095">
        <ele>327.623</ele>
        <time>2021-02-21T11:18:02Z</time>
      </trkpt>
      <trkpt lat="43.91365" lon="5.42089">
        <ele>327.681</ele>
        <time>2021-02-21T11:18:03Z</time>
      </trkpt>
      <trkpt lat="43.91366" lon="5.42084">
        <ele>327.861</ele>
        <time>2021-02-21T11:18:04Z</time>
      </trkpt>
      <trkpt lat="43.9137" lon="5.42079">
        <ele>327.817</ele>
        <time>2021-02-21T11:18:06Z</time>
      </trkpt>
      <trkpt lat="43.91376" lon="5.42077">
        <ele>328.208</ele>
        <time>2021-02-21T11:18:09Z</time>
      </trkpt>
      <trkpt lat="43.9138" lon="5.42078">
        <ele>328.454</ele>
        <time>2021-02-21T11:18:11Z</time>
      </trkpt>
      <trkpt lat="43.91385" lon="5.4208">
        <ele>328.874</ele>
        <time>2021-02-21T11:18:13Z</time>
      </trkpt>
      <trkpt lat="43.91388" lon="5.42084">
        <ele>329.031</ele>
        <time>2021-02-21T11:18:15Z</time>
      </trkpt>
      <trkpt lat="43.91389" lon="5.42085">
        <ele>329.03</ele>
        <time>2021-02-21T11:18:16Z</time>
      </trkpt>
      <trkpt lat="43.91393" lon="5.42087">
        <ele>329.421</ele>
        <time>2021-02-21T11:18:18Z</time>
      </trkpt>
      <trkpt lat="43.91395" lon="5.42089">
        <ele>329.612</ele>
        <time>2021-02-21T11:18:19Z</time>
      </trkpt>
      <trkpt lat="43.91404" lon="5.421">
        <ele>330.216</ele>
        <time>2021-02-21T11:18:25Z</time>
      </trkpt>
      <trkpt lat="43.91408" lon="5.42103">
        <ele>330.617</ele>
        <time>2021-02-21T11:18:27Z</time>
      </trkpt>
      <trkpt lat="43.91413" lon="5.42106">
        <ele>331.051</ele>
        <time>2021-02-21T11:18:30Z</time>
      </trkpt>
      <trkpt lat="43.91417" lon="5.42109">
        <ele>331.201</ele>
        <time>2021-02-21T11:18:32Z</time>
      </trkpt>
      <trkpt lat="43.91424" lon="5.42114">
        <ele>331.811</ele>
        <time>2021-02-21T11:18:36Z</time>
      </trkpt>
      <trkpt lat="43.91434" lon="5.42128">
        <ele>332.608</ele>
        <time>2021-02-21T11:18:43Z</time>
      </trkpt>
      <trkpt lat="43.91441" lon="5.42132">
        <ele>333.281</ele>
        <time>2021-02-21T11:18:47Z</time>
      </trkpt>
      <trkpt lat="43.9145" lon="5.42144">
        <ele>334.411</ele>
        <time>2021-02-21T11:18:54Z</time>
      </trkpt>
      <trkpt lat="43.91458" lon="5.42153">
        <ele>335.458</ele>
        <time>2021-02-21T11:19:00Z</time>
      </trkpt>
      <trkpt lat="43.9146" lon="5.42153">
        <ele>335.617</ele>
        <time>2021-02-21T11:19:01Z</time>
      </trkpt>
      <trkpt lat="43.91466" lon="5.42153">
        <ele>336.248</ele>
        <time>2021-02-21T11:19:04Z</time>
      </trkpt>
      <trkpt lat="43.91479" lon="5.42157">
        <ele>337.439</ele>
        <time>2021-02-21T11:19:10Z</time>
      </trkpt>
      <trkpt lat="43.91493" lon="5.42163">
        <ele>339.073</ele>
        <time>2021-02-21T11:19:17Z</time>
      </trkpt>
      <trkpt lat="43.91504" lon="5.42164">
        <ele>340.044</ele>
        <time>2021-02-21T11:19:23Z</time>
      </trkpt>
      <trkpt lat="43.91506" lon="5.42165">
        <ele>340.473</ele>
        <time>2021-02-21T11:19:24Z</time>
      </trkpt>
      <trkpt lat="43.91513" lon="5.42166">
        <ele>341.085</ele>
        <time>2021-02-21T11:19:28Z</time>
      </trkpt>
      <trkpt lat="43.91515" lon="5.42166">
        <ele>341.413</ele>
        <time>2021-02-21T11:19:29Z</time>
      </trkpt>
      <trkpt lat="43.91523" lon="5.42168">
        <ele>342.208</ele>
        <time>2021-02-21T11:19:33Z</time>
      </trkpt>
      <trkpt lat="43.91533" lon="5.4217">
        <ele>343.453</ele>
        <time>2021-02-21T11:19:38Z</time>
      </trkpt>
      <trkpt lat="43.91545" lon="5.42174">
        <ele>345.093</ele>
        <time>2021-02-21T11:19:44Z</time>
      </trkpt>
      <trkpt lat="43.9155" lon="5.42174">
        <ele>345.66</ele>
        <time>2021-02-21T11:19:47Z</time>
      </trkpt>
      <trkpt lat="43.91553" lon="5.42176">
        <ele>346.039</ele>
        <time>2021-02-21T11:19:49Z</time>
      </trkpt>
      <trkpt lat="43.91556" lon="5.42182">
        <ele>346.69</ele>
        <time>2021-02-21T11:19:52Z</time>
      </trkpt>
      <trkpt lat="43.9156" lon="5.42186">
        <ele>347.031</ele>
        <time>2021-02-21T11:19:54Z</time>
      </trkpt>
      <trkpt lat="43.91575" lon="5.42191">
        <ele>348.445</ele>
        <time>2021-02-21T11:20:01Z</time>
      </trkpt>
      <trkpt lat="43.91586" lon="5.42193">
        <ele>349.416</ele>
        <time>2021-02-21T11:20:06Z</time>
      </trkpt>
      <trkpt lat="43.91595" lon="5.42194">
        <ele>350.457</ele>
        <time>2021-02-21T11:20:12Z</time>
      </trkpt>
      <trkpt lat="43.91595" lon="5.42194">
        <ele>351.6</ele>
        <time>2021-02-21T11:20:20Z</time>
      </trkpt>
      <trkpt lat="43.91595" lon="5.42194">
        <ele>353.42</ele>
        <time>2021-02-21T11:20:33Z</time>
      </trkpt>
      <trkpt lat="43.91595" lon="5.42194">
        <ele>354.808</ele>
        <time>2021-02-21T11:20:45Z</time>
      </trkpt>
      <trkpt lat="43.91595" lon="5.42194">
        <ele>356.451</ele>
        <time>2021-02-21T11:20:59Z</time>
      </trkpt>
      <trkpt lat="43.91595" lon="5.42194">
        <ele>357.861</ele>
        <time>2021-02-21T11:21:15Z</time>
      </trkpt>
      <trkpt lat="43.91595" lon="5.42194">
        <ele>358.668</ele>
        <time>2021-02-21T11:21:28Z</time>
      </trkpt>
      <trkpt lat="43.91595" lon="5.42194">
        <ele>359.627</ele>
        <time>2021-02-21T11:21:41Z</time>
      </trkpt>
      <trkpt lat="43.91595" lon="5.42194">
        <ele>360.428</ele>
        <time>2021-02-21T11:21:57Z</time>
      </trkpt>
      <trkpt lat="43.91595" lon="5.42194">
        <ele>361.689</ele>
        <time>2021-02-21T11:22:21Z</time>
      </trkpt>
      <trkpt lat="43.91595" lon="5.42194">
        <ele>362.273</ele>
        <time>2021-02-21T11:22:40Z</time>
      </trkpt>
      <trkpt lat="43.91598" lon="5.42194">
        <ele>362.644</ele>
        <time>2021-02-21T11:22:51Z</time>
      </trkpt>
      <trkpt lat="43.91609" lon="5.42199">
        <ele>363.088</ele>
        <time>2021-02-21T11:22:57Z</time>
      </trkpt>
      <trkpt lat="43.9162" lon="5.42202">
        <ele>363.424</ele>
        <time>2021-02-21T11:23:03Z</time>
      </trkpt>
      <trkpt lat="43.9163" lon="5.42207">
        <ele>363.826</ele>
        <time>2021-02-21T11:23:08Z</time>
      </trkpt>
      <trkpt lat="43.91643" lon="5.4221">
        <ele>364.208</ele>
        <time>2021-02-21T11:23:14Z</time>
      </trkpt>
      <trkpt lat="43.91655" lon="5.42202">
        <ele>364.694</ele>
        <time>2021-02-21T11:23:20Z</time>
      </trkpt>
      <trkpt lat="43.91658" lon="5.42196">
        <ele>365.094</ele>
        <time>2021-02-21T11:23:22Z</time>
      </trkpt>
      <trkpt lat="43.9166" lon="5.42189">
        <ele>365.281</ele>
        <time>2021-02-21T11:23:24Z</time>
      </trkpt>
      <trkpt lat="43.91667" lon="5.42183">
        <ele>365.46</ele>
        <time>2021-02-21T11:23:27Z</time>
      </trkpt>
      <trkpt lat="43.91669" lon="5.42183">
        <ele>365.651</ele>
        <time>2021-02-21T11:23:28Z</time>
      </trkpt>
      <trkpt lat="43.91685" lon="5.42175">
        <ele>366.282</ele>
        <time>2021-02-21T11:23:34Z</time>
      </trkpt>
      <trkpt lat="43.91703" lon="5.42174">
        <ele>367.276</ele>
        <time>2021-02-21T11:23:41Z</time>
      </trkpt>
      <trkpt lat="43.91719" lon="5.4218">
        <ele>367.837</ele>
        <time>2021-02-21T11:23:47Z</time>
      </trkpt>
      <trkpt lat="43.91737" lon="5.42179">
        <ele>368.477</ele>
        <time>2021-02-21T11:23:53Z</time>
      </trkpt>
      <trkpt lat="43.91745" lon="5.42176">
        <ele>368.861</ele>
        <time>2021-02-21T11:23:56Z</time>
      </trkpt>
      <trkpt lat="43.91753" lon="5.42176">
        <ele>369.227</ele>
        <time>2021-02-21T11:23:59Z</time>
      </trkpt>
      <trkpt lat="43.91765" lon="5.4218">
        <ele>370.008</ele>
        <time>2021-02-21T11:24:04Z</time>
      </trkpt>
      <trkpt lat="43.91779" lon="5.42195">
        <ele>370.863</ele>
        <time>2021-02-21T11:24:09Z</time>
      </trkpt>
      <trkpt lat="43.91797" lon="5.42216">
        <ele>371.443</ele>
        <time>2021-02-21T11:24:15Z</time>
      </trkpt>
      <trkpt lat="43.91813" lon="5.42232">
        <ele>371.87</ele>
        <time>2021-02-21T11:24:21Z</time>
      </trkpt>
      <trkpt lat="43.91831" lon="5.42242">
        <ele>372.459</ele>
        <time>2021-02-21T11:24:27Z</time>
      </trkpt>
      <trkpt lat="43.9184" lon="5.42243">
        <ele>372.65</ele>
        <time>2021-02-21T11:24:31Z</time>
      </trkpt>
      <trkpt lat="43.91851" lon="5.42246">
        <ele>372.811</ele>
        <time>2021-02-21T11:24:34Z</time>
      </trkpt>
      <trkpt lat="43.91855" lon="5.42245">
        <ele>372.895</ele>
        <time>2021-02-21T11:24:35Z</time>
      </trkpt>
      <trkpt lat="43.91858" lon="5.42247">
        <ele>373.036</ele>
        <time>2021-02-21T11:24:36Z</time>
      </trkpt>
      <trkpt lat="43.91865" lon="5.42253">
        <ele>373.042</ele>
        <time>2021-02-21T11:24:38Z</time>
      </trkpt>
      <trkpt lat="43.91885" lon="5.42258">
        <ele>372.808</ele>
        <time>2021-02-21T11:24:43Z</time>
      </trkpt>
      <trkpt lat="43.91886" lon="5.42259">
        <ele>372.82</ele>
        <time>2021-02-21T11:24:45Z</time>
      </trkpt>
      <trkpt lat="43.91887" lon="5.42259">
        <ele>372.86</ele>
        <time>2021-02-21T11:24:51Z</time>
      </trkpt>
      <trkpt lat="43.91887" lon="5.42259">
        <ele>373.257</ele>
        <time>2021-02-21T11:25:12Z</time>
      </trkpt>
      <trkpt lat="43.91888" lon="5.42259">
        <ele>373.476</ele>
        <time>2021-02-21T11:25:41Z</time>
      </trkpt>
      <trkpt lat="43.91888" lon="5.42259">
        <ele>373.447</ele>
        <time>2021-02-21T11:26:03Z</time>
      </trkpt>
      <trkpt lat="43.91887" lon="5.42259">
        <ele>373.668</ele>
        <time>2021-02-21T11:26:12Z</time>
      </trkpt>
      <trkpt lat="43.91889" lon="5.42262">
        <ele>374.222</ele>
        <time>2021-02-21T11:26:20Z</time>
      </trkpt>
      <trkpt lat="43.91896" lon="5.42278">
        <ele>374.284</ele>
        <time>2021-02-21T11:26:28Z</time>
      </trkpt>
      <trkpt lat="43.91897" lon="5.42277">
        <ele>374.007</ele>
        <time>2021-02-21T11:26:35Z</time>
      </trkpt>
      <trkpt lat="43.91896" lon="5.42264">
        <ele>374.408</ele>
        <time>2021-02-21T11:26:41Z</time>
      </trkpt>
      <trkpt lat="43.91897" lon="5.42247">
        <ele>374.814</ele>
        <time>2021-02-21T11:26:46Z</time>
      </trkpt>
      <trkpt lat="43.91895" lon="5.42224">
        <ele>375.034</ele>
        <time>2021-02-21T11:26:51Z</time>
      </trkpt>
      <trkpt lat="43.91893" lon="5.42216">
        <ele>375.241</ele>
        <time>2021-02-21T11:26:53Z</time>
      </trkpt>
      <trkpt lat="43.91894" lon="5.42205">
        <ele>375.48</ele>
        <time>2021-02-21T11:26:55Z</time>
      </trkpt>
      <trkpt lat="43.9189" lon="5.42179">
        <ele>375.851</ele>
        <time>2021-02-21T11:27:00Z</time>
      </trkpt>
      <trkpt lat="43.91884" lon="5.42155">
        <ele>376.282</ele>
        <time>2021-02-21T11:27:05Z</time>
      </trkpt>
      <trkpt lat="43.91881" lon="5.42131">
        <ele>376.866</ele>
        <time>2021-02-21T11:27:10Z</time>
      </trkpt>
      <trkpt lat="43.91876" lon="5.42103">
        <ele>377.247</ele>
        <time>2021-02-21T11:27:15Z</time>
      </trkpt>
      <trkpt lat="43.91873" lon="5.42075">
        <ele>377.272</ele>
        <time>2021-02-21T11:27:19Z</time>
      </trkpt>
      <trkpt lat="43.91873" lon="5.42069">
        <ele>377.213</ele>
        <time>2021-02-21T11:27:20Z</time>
      </trkpt>
      <trkpt lat="43.91871" lon="5.4205">
        <ele>377.014</ele>
        <time>2021-02-21T11:27:24Z</time>
      </trkpt>
      <trkpt lat="43.91868" lon="5.42023">
        <ele>376.808</ele>
        <time>2021-02-21T11:27:29Z</time>
      </trkpt>
      <trkpt lat="43.91869" lon="5.42011">
        <ele>376.823</ele>
        <time>2021-02-21T11:27:31Z</time>
      </trkpt>
      <trkpt lat="43.91868" lon="5.41998">
        <ele>375.873</ele>
        <time>2021-02-21T11:27:33Z</time>
      </trkpt>
      <trkpt lat="43.91867" lon="5.41985">
        <ele>376.21</ele>
        <time>2021-02-21T11:27:35Z</time>
      </trkpt>
      <trkpt lat="43.91867" lon="5.41971">
        <ele>376.049</ele>
        <time>2021-02-21T11:27:37Z</time>
      </trkpt>
      <trkpt lat="43.9185" lon="5.41932">
        <ele>374.83</ele>
        <time>2021-02-21T11:27:43Z</time>
      </trkpt>
      <trkpt lat="43.91837" lon="5.4191">
        <ele>374.251</ele>
        <time>2021-02-21T11:27:46Z</time>
      </trkpt>
      <trkpt lat="43.91834" lon="5.41908">
        <ele>374.075</ele>
        <time>2021-02-21T11:27:47Z</time>
      </trkpt>
      <trkpt lat="43.91833" lon="5.41908">
        <ele>373.666</ele>
        <time>2021-02-21T11:27:52Z</time>
      </trkpt>
      <trkpt lat="43.91828" lon="5.41905">
        <ele>372.481</ele>
        <time>2021-02-21T11:28:00Z</time>
      </trkpt>
      <trkpt lat="43.9182" lon="5.41902">
        <ele>363.3</ele>
      </trkpt>
      <trkpt lat="43.91814" lon="5.41895">
        <ele>371.861</ele>
        <time>2021-02-21T11:28:04Z</time>
      </trkpt>
      <trkpt lat="43.91807" lon="5.41888">
        <ele>371.417</ele>
        <time>2021-02-21T11:28:06Z</time>
      </trkpt>
      <trkpt lat="43.918" lon="5.41881">
        <ele>371.008</ele>
        <time>2021-02-21T11:28:08Z</time>
      </trkpt>
      <trkpt lat="43.91791" lon="5.41872">
        <ele>370.484</ele>
        <time>2021-02-21T11:28:10Z</time>
      </trkpt>
      <trkpt lat="43.91785" lon="5.41868">
        <ele>370.214</ele>
        <time>2021-02-21T11:28:11Z</time>
      </trkpt>
      <trkpt lat="43.91779" lon="5.41865">
        <ele>369.841</ele>
        <time>2021-02-21T11:28:12Z</time>
      </trkpt>
      <trkpt lat="43.9177" lon="5.41857">
        <ele>369.24</ele>
        <time>2021-02-21T11:28:14Z</time>
      </trkpt>
      <trkpt lat="43.91761" lon="5.41846">
        <ele>368.451</ele>
        <time>2021-02-21T11:28:16Z</time>
      </trkpt>
      <trkpt lat="43.91757" lon="5.4184">
        <ele>368.082</ele>
        <time>2021-02-21T11:28:17Z</time>
      </trkpt>
      <trkpt lat="43.91751" lon="5.41827">
        <ele>367.236</ele>
        <time>2021-02-21T11:28:19Z</time>
      </trkpt>
      <trkpt lat="43.91748" lon="5.4182">
        <ele>366.887</ele>
        <time>2021-02-21T11:28:20Z</time>
      </trkpt>
      <trkpt lat="43.91745" lon="5.41806">
        <ele>366.054</ele>
        <time>2021-02-21T11:28:22Z</time>
      </trkpt>
      <trkpt lat="43.91745" lon="5.418">
        <ele>365.656</ele>
        <time>2021-02-21T11:28:23Z</time>
      </trkpt>
      <trkpt lat="43.91745" lon="5.41793">
        <ele>365.211</ele>
        <time>2021-02-21T11:28:24Z</time>
      </trkpt>
      <trkpt lat="43.91745" lon="5.41777">
        <ele>364.008</ele>
        <time>2021-02-21T11:28:27Z</time>
      </trkpt>
      <trkpt lat="43.91744" lon="5.41766">
        <ele>362.841</ele>
        <time>2021-02-21T11:28:30Z</time>
      </trkpt>
      <trkpt lat="43.91742" lon="5.41763">
        <ele>360.091</ele>
        <time>2021-02-21T11:28:40Z</time>
      </trkpt>
      <trkpt lat="43.91742" lon="5.41763">
        <ele>357.838</ele>
        <time>2021-02-21T11:28:49Z</time>
      </trkpt>
      <trkpt lat="43.91743" lon="5.41757">
        <ele>355.037</ele>
        <time>2021-02-21T11:29:01Z</time>
      </trkpt>
      <trkpt lat="43.91743" lon="5.41751">
        <ele>354.418</ele>
        <time>2021-02-21T11:29:03Z</time>
      </trkpt>
      <trkpt lat="43.91743" lon="5.41747">
        <ele>354.059</ele>
        <time>2021-02-21T11:29:05Z</time>
      </trkpt>
      <trkpt lat="43.91747" lon="5.41738">
        <ele>353.233</ele>
        <time>2021-02-21T11:29:08Z</time>
      </trkpt>
      <trkpt lat="43.91748" lon="5.41725">
        <ele>352.284</ele>
        <time>2021-02-21T11:29:11Z</time>
      </trkpt>
      <trkpt lat="43.91745" lon="5.41714">
        <ele>351.648</ele>
        <time>2021-02-21T11:29:13Z</time>
      </trkpt>
      <trkpt lat="43.91743" lon="5.41709">
        <ele>351.261</ele>
        <time>2021-02-21T11:29:14Z</time>
      </trkpt>
      <trkpt lat="43.91729" lon="5.41695">
        <ele>349.617</ele>
        <time>2021-02-21T11:29:18Z</time>
      </trkpt>
      <trkpt lat="43.91726" lon="5.41691">
        <ele>349.208</ele>
        <time>2021-02-21T11:29:19Z</time>
      </trkpt>
      <trkpt lat="43.91712" lon="5.41677">
        <ele>348.27</ele>
        <time>2021-02-21T11:29:22Z</time>
      </trkpt>
      <trkpt lat="43.91693" lon="5.41661">
        <ele>346.65</ele>
        <time>2021-02-21T11:29:26Z</time>
      </trkpt>
      <trkpt lat="43.91681" lon="5.41653">
        <ele>345.667</ele>
        <time>2021-02-21T11:29:29Z</time>
      </trkpt>
      <trkpt lat="43.9168" lon="5.41651">
        <ele>345.236</ele>
        <time>2021-02-21T11:29:30Z</time>
      </trkpt>
      <trkpt lat="43.9168" lon="5.41647">
        <ele>344.637</ele>
        <time>2021-02-21T11:29:32Z</time>
      </trkpt>
      <trkpt lat="43.91684" lon="5.41639">
        <ele>343.268</ele>
        <time>2021-02-21T11:29:36Z</time>
      </trkpt>
      <trkpt lat="43.91684" lon="5.41638">
        <ele>343.012</ele>
        <time>2021-02-21T11:29:37Z</time>
      </trkpt>
      <trkpt lat="43.91684" lon="5.41635">
        <ele>341.433</ele>
        <time>2021-02-21T11:29:43Z</time>
      </trkpt>
      <trkpt lat="43.91684" lon="5.41635">
        <ele>339.011</ele>
        <time>2021-02-21T11:29:52Z</time>
      </trkpt>
      <trkpt lat="43.91685" lon="5.41633">
        <ele>335.421</ele>
        <time>2021-02-21T11:30:09Z</time>
      </trkpt>
      <trkpt lat="43.91691" lon="5.41623">
        <ele>334.803</ele>
        <time>2021-02-21T11:30:12Z</time>
      </trkpt>
      <trkpt lat="43.91694" lon="5.41618">
        <ele>334.608</ele>
        <time>2021-02-21T11:30:13Z</time>
      </trkpt>
      <trkpt lat="43.91699" lon="5.41608">
        <ele>334.217</ele>
        <time>2021-02-21T11:30:15Z</time>
      </trkpt>
      <trkpt lat="43.91702" lon="5.41605">
        <ele>322.228</ele>
        <time>2021-02-21T11:31:35Z</time>
      </trkpt>
      <trkpt lat="43.91705" lon="5.41605">
        <ele>321.82</ele>
        <time>2021-02-21T11:31:41Z</time>
      </trkpt>
      <trkpt lat="43.91709" lon="5.41605">
        <ele>321.408</ele>
        <time>2021-02-21T11:31:55Z</time>
      </trkpt>
      <trkpt lat="43.91719" lon="5.41612">
        <ele>321.013</ele>
        <time>2021-02-21T11:31:59Z</time>
      </trkpt>
      <trkpt lat="43.91722" lon="5.41614">
        <ele>320.823</ele>
        <time>2021-02-21T11:32:00Z</time>
      </trkpt>
      <trkpt lat="43.91728" lon="5.41615">
        <ele>320.68</ele>
        <time>2021-02-21T11:32:02Z</time>
      </trkpt>
      <trkpt lat="43.91741" lon="5.41609">
        <ele>319.829</ele>
        <time>2021-02-21T11:32:06Z</time>
      </trkpt>
      <trkpt lat="43.91749" lon="5.41602">
        <ele>319.26</ele>
        <time>2021-02-21T11:32:08Z</time>
      </trkpt>
      <trkpt lat="43.91756" lon="5.41596">
        <ele>319.231</ele>
        <time>2021-02-21T11:32:10Z</time>
      </trkpt>
      <trkpt lat="43.91756" lon="5.41594">
        <ele>319.065</ele>
        <time>2021-02-21T11:32:11Z</time>
      </trkpt>
      <trkpt lat="43.91757" lon="5.41586">
        <ele>319.096</ele>
        <time>2021-02-21T11:32:13Z</time>
      </trkpt>
      <trkpt lat="43.91758" lon="5.41582">
        <ele>319.065</ele>
        <time>2021-02-21T11:32:14Z</time>
      </trkpt>
      <trkpt lat="43.91762" lon="5.41579">
        <ele>318.868</ele>
        <time>2021-02-21T11:32:16Z</time>
      </trkpt>
      <trkpt lat="43.91777" lon="5.41578">
        <ele>318.414</ele>
        <time>2021-02-21T11:32:22Z</time>
      </trkpt>
      <trkpt lat="43.91787" lon="5.41581">
        <ele>317.608</ele>
        <time>2021-02-21T11:32:26Z</time>
      </trkpt>
      <trkpt lat="43.9179" lon="5.4158">
        <ele>317.432</ele>
        <time>2021-02-21T11:32:27Z</time>
      </trkpt>
      <trkpt lat="43.91795" lon="5.41573">
        <ele>317.062</ele>
        <time>2021-02-21T11:32:29Z</time>
      </trkpt>
      <trkpt lat="43.91807" lon="5.41573">
        <ele>316.499</ele>
        <time>2021-02-21T11:32:32Z</time>
      </trkpt>
      <trkpt lat="43.91826" lon="5.41575">
        <ele>315.458</ele>
        <time>2021-02-21T11:32:37Z</time>
      </trkpt>
      <trkpt lat="43.91829" lon="5.41573">
        <ele>314.469</ele>
        <time>2021-02-21T11:32:40Z</time>
      </trkpt>
      <trkpt lat="43.91829" lon="5.41573">
        <ele>313.46</ele>
        <time>2021-02-21T11:32:46Z</time>
      </trkpt>
      <trkpt lat="43.91828" lon="5.41573">
        <ele>311.894</ele>
        <time>2021-02-21T11:32:51Z</time>
      </trkpt>
      <trkpt lat="43.91837" lon="5.41574">
        <ele>311.245</ele>
        <time>2021-02-21T11:33:01Z</time>
      </trkpt>
      <trkpt lat="43.91837" lon="5.41575">
        <ele>309.412</ele>
        <time>2021-02-21T11:33:13Z</time>
      </trkpt>
      <trkpt lat="43.91838" lon="5.41577">
        <ele>309.032</ele>
        <time>2021-02-21T11:33:15Z</time>
      </trkpt>
      <trkpt lat="43.91843" lon="5.41578">
        <ele>308.605</ele>
        <time>2021-02-21T11:33:17Z</time>
      </trkpt>
      <trkpt lat="43.91854" lon="5.41578">
        <ele>308.008</ele>
        <time>2021-02-21T11:33:21Z</time>
      </trkpt>
      <trkpt lat="43.91869" lon="5.41586">
        <ele>308.057</ele>
        <time>2021-02-21T11:33:26Z</time>
      </trkpt>
      <trkpt lat="43.91879" lon="5.41597">
        <ele>308.027</ele>
        <time>2021-02-21T11:33:29Z</time>
      </trkpt>
      <trkpt lat="43.91881" lon="5.41601">
        <ele>308.244</ele>
        <time>2021-02-21T11:33:30Z</time>
      </trkpt>
      <trkpt lat="43.91884" lon="5.4161">
        <ele>308.453</ele>
        <time>2021-02-21T11:33:32Z</time>
      </trkpt>
      <trkpt lat="43.91884" lon="5.41615">
        <ele>308.464</ele>
        <time>2021-02-21T11:33:34Z</time>
      </trkpt>
      <trkpt lat="43.91889" lon="5.41625">
        <ele>307.435</ele>
        <time>2021-02-21T11:33:37Z</time>
      </trkpt>
      <trkpt lat="43.9189" lon="5.41633">
        <ele>307.639</ele>
        <time>2021-02-21T11:33:39Z</time>
      </trkpt>
      <trkpt lat="43.91895" lon="5.41644">
        <ele>308.88</ele>
        <time>2021-02-21T11:33:42Z</time>
      </trkpt>
      <trkpt lat="43.91895" lon="5.41647">
        <ele>308.834</ele>
        <time>2021-02-21T11:33:43Z</time>
      </trkpt>
      <trkpt lat="43.91896" lon="5.41655">
        <ele>309.455</ele>
        <time>2021-02-21T11:33:45Z</time>
      </trkpt>
      <trkpt lat="43.91899" lon="5.4166">
        <ele>308.61</ele>
        <time>2021-02-21T11:33:47Z</time>
      </trkpt>
      <trkpt lat="43.91901" lon="5.41663">
        <ele>308.808</ele>
        <time>2021-02-21T11:33:48Z</time>
      </trkpt>
      <trkpt lat="43.91908" lon="5.41674">
        <ele>309.479</ele>
        <time>2021-02-21T11:33:52Z</time>
      </trkpt>
      <trkpt lat="43.91919" lon="5.41685">
        <ele>309.869</ele>
        <time>2021-02-21T11:33:57Z</time>
      </trkpt>
      <trkpt lat="43.91925" lon="5.41688">
        <ele>310.046</ele>
        <time>2021-02-21T11:33:59Z</time>
      </trkpt>
      <trkpt lat="43.91932" lon="5.41686">
        <ele>310.025</ele>
        <time>2021-02-21T11:34:01Z</time>
      </trkpt>
      <trkpt lat="43.91937" lon="5.41684">
        <ele>310.286</ele>
        <time>2021-02-21T11:34:03Z</time>
      </trkpt>
      <trkpt lat="43.91942" lon="5.41679">
        <ele>310.017</ele>
        <time>2021-02-21T11:34:05Z</time>
      </trkpt>
      <trkpt lat="43.91952" lon="5.41663">
        <ele>309.871</ele>
        <time>2021-02-21T11:34:09Z</time>
      </trkpt>
      <trkpt lat="43.91959" lon="5.4166">
        <ele>309.652</ele>
        <time>2021-02-21T11:34:11Z</time>
      </trkpt>
      <trkpt lat="43.91963" lon="5.41657">
        <ele>310.448</ele>
        <time>2021-02-21T11:34:12Z</time>
      </trkpt>
      <trkpt lat="43.91967" lon="5.41655">
        <ele>310.061</ele>
        <time>2021-02-21T11:34:13Z</time>
      </trkpt>
      <trkpt lat="43.91971" lon="5.41657">
        <ele>309.217</ele>
        <time>2021-02-21T11:34:15Z</time>
      </trkpt>
      <trkpt lat="43.91976" lon="5.41664">
        <ele>309.208</ele>
        <time>2021-02-21T11:34:17Z</time>
      </trkpt>
      <trkpt lat="43.91982" lon="5.41673">
        <ele>309.08</ele>
        <time>2021-02-21T11:34:19Z</time>
      </trkpt>
      <trkpt lat="43.91984" lon="5.41677">
        <ele>308.87</ele>
        <time>2021-02-21T11:34:20Z</time>
      </trkpt>
      <trkpt lat="43.91983" lon="5.41687">
        <ele>308.657</ele>
        <time>2021-02-21T11:34:22Z</time>
      </trkpt>
      <trkpt lat="43.91978" lon="5.41711">
        <ele>308.046</ele>
        <time>2021-02-21T11:34:27Z</time>
      </trkpt>
      <trkpt lat="43.9197" lon="5.41736">
        <ele>307.297</ele>
        <time>2021-02-21T11:34:32Z</time>
      </trkpt>
      <trkpt lat="43.91959" lon="5.41745">
        <ele>306.268</ele>
        <time>2021-02-21T11:34:36Z</time>
      </trkpt>
      <trkpt lat="43.91949" lon="5.41753">
        <ele>305.212</ele>
        <time>2021-02-21T11:34:40Z</time>
      </trkpt>
      <trkpt lat="43.91946" lon="5.41757">
        <ele>304.073</ele>
        <time>2021-02-21T11:34:45Z</time>
      </trkpt>
      <trkpt lat="43.91946" lon="5.4176">
        <ele>303.053</ele>
        <time>2021-02-21T11:34:51Z</time>
      </trkpt>
      <trkpt lat="43.91947" lon="5.41762">
        <ele>301.604</ele>
        <time>2021-02-21T11:35:02Z</time>
      </trkpt>
      <trkpt lat="43.91949" lon="5.41762">
        <ele>301.414</ele>
        <time>2021-02-21T11:35:03Z</time>
      </trkpt>
      <trkpt lat="43.91955" lon="5.41765">
        <ele>301.008</ele>
        <time>2021-02-21T11:35:05Z</time>
      </trkpt>
      <trkpt lat="43.91961" lon="5.41762">
        <ele>300.861</ele>
        <time>2021-02-21T11:35:08Z</time>
      </trkpt>
      <trkpt lat="43.91968" lon="5.41759">
        <ele>300.811</ele>
        <time>2021-02-21T11:35:11Z</time>
      </trkpt>
      <trkpt lat="43.91974" lon="5.41762">
        <ele>301.298</ele>
        <time>2021-02-21T11:35:13Z</time>
      </trkpt>
      <trkpt lat="43.91983" lon="5.41771">
        <ele>302.837</ele>
        <time>2021-02-21T11:35:18Z</time>
      </trkpt>
      <trkpt lat="43.91995" lon="5.41779">
        <ele>304.448</ele>
        <time>2021-02-21T11:35:23Z</time>
      </trkpt>
      <trkpt lat="43.91998" lon="5.41781">
        <ele>304.669</ele>
        <time>2021-02-21T11:35:24Z</time>
      </trkpt>
      <trkpt lat="43.9201" lon="5.41787">
        <ele>305.883</ele>
        <time>2021-02-21T11:35:30Z</time>
      </trkpt>
      <trkpt lat="43.92011" lon="5.41788">
        <ele>306.274</ele>
        <time>2021-02-21T11:35:34Z</time>
      </trkpt>
      <trkpt lat="43.92011" lon="5.41788">
        <ele>308.491</ele>
        <time>2021-02-21T11:35:51Z</time>
      </trkpt>
      <trkpt lat="43.92011" lon="5.41788">
        <ele>309.881</ele>
        <time>2021-02-21T11:36:02Z</time>
      </trkpt>
      <trkpt lat="43.9201" lon="5.41788">
        <ele>311.419</ele>
        <time>2021-02-21T11:36:18Z</time>
      </trkpt>
      <trkpt lat="43.92012" lon="5.41794">
        <ele>312.608</ele>
        <time>2021-02-21T11:36:24Z</time>
      </trkpt>
      <trkpt lat="43.92012" lon="5.41794">
        <ele>313.885</ele>
        <time>2021-02-21T11:36:37Z</time>
      </trkpt>
      <trkpt lat="43.92012" lon="5.41794">
        <ele>315.475</ele>
        <time>2021-02-21T11:36:56Z</time>
      </trkpt>
      <trkpt lat="43.92012" lon="5.41794">
        <ele>316.692</ele>
        <time>2021-02-21T11:37:12Z</time>
      </trkpt>
      <trkpt lat="43.92013" lon="5.41797">
        <ele>317.441</ele>
        <time>2021-02-21T11:37:20Z</time>
      </trkpt>
      <trkpt lat="43.92012" lon="5.418">
        <ele>317.682</ele>
        <time>2021-02-21T11:37:21Z</time>
      </trkpt>
      <trkpt lat="43.92013" lon="5.41803">
        <ele>317.673</ele>
        <time>2021-02-21T11:37:22Z</time>
      </trkpt>
      <trkpt lat="43.92015" lon="5.41814">
        <ele>318.237</ele>
        <time>2021-02-21T11:37:25Z</time>
      </trkpt>
      <trkpt lat="43.92015" lon="5.41817">
        <ele>318.248</ele>
        <time>2021-02-21T11:37:26Z</time>
      </trkpt>
      <trkpt lat="43.92014" lon="5.41828">
        <ele>318.464</ele>
        <time>2021-02-21T11:37:29Z</time>
      </trkpt>
      <trkpt lat="43.92013" lon="5.41851">
        <ele>319.006</ele>
        <time>2021-02-21T11:37:36Z</time>
      </trkpt>
      <trkpt lat="43.92014" lon="5.41854">
        <ele>319.016</ele>
        <time>2021-02-21T11:37:40Z</time>
      </trkpt>
      <trkpt lat="43.92013" lon="5.41856">
        <ele>319.208</ele>
        <time>2021-02-21T11:37:45Z</time>
      </trkpt>
      <trkpt lat="43.92012" lon="5.41858">
        <ele>319.282</ele>
        <time>2021-02-21T11:37:46Z</time>
      </trkpt>
      <trkpt lat="43.92012" lon="5.41873">
        <ele>319.472</ele>
        <time>2021-02-21T11:37:50Z</time>
      </trkpt>
      <trkpt lat="43.92053" lon="5.4188">
        <ele>321.613</ele>
        <time>2021-02-21T11:38:26Z</time>
      </trkpt>
      <trkpt lat="43.92134" lon="5.41974">
        <ele>325.6</ele>
      </trkpt>
    </trkseg>
  </trk>
</gpx>